<?xml version='1.0' encoding='UTF-8'?><gpx version="1.1" creator="JPX - https://github.com/jenetics/jpx" xmlns="http://www.topografix.com/GPX/1/1"><trk><trkseg><trkpt lat="42.08973930686907" lon="12.787175495189416"><ele>361.0</ele><time>2026-04-12T08:51:51Z</time></trkpt><trkpt lat="42.08979768682466" lon="12.78713610024451"><ele>361.0</ele><time>2026-04-12T08:51:53Z</time></trkpt><trkpt lat="42.089872058726925" lon="12.787082718146817"><ele>361.0</ele><time>2026-04-12T08:51:56Z</time></trkpt><trkpt lat="42.089926819998055" lon="12.787037256301"><ele>361.0</ele><time>2026-04-12T08:51:58Z</time></trkpt><trkpt lat="42.09000175916179" lon="12.786976242221153"><ele>361.0</ele><time>2026-04-12T08:52:00Z</time></trkpt><trkpt lat="42.09008185614776" lon="12.786936850766276"><ele>361.0</ele><time>2026-04-12T08:52:03Z</time></trkpt><trkpt lat="42.09013446821088" lon="12.786886450589861"><ele>360.5</ele><time>2026-04-12T08:52:05Z</time></trkpt><trkpt lat="42.0901962011431" lon="12.78684133375347"><ele>360.0</ele><time>2026-04-12T08:52:07Z</time></trkpt><trkpt lat="42.09026464694825" lon="12.786798703380171"><ele>359.5</ele><time>2026-04-12T08:52:09Z</time></trkpt><trkpt lat="42.09033470281236" lon="12.786752098677736"><ele>359.0</ele><time>2026-04-12T08:52:12Z</time></trkpt><trkpt lat="42.09040018120814" lon="12.78671951711103"><ele>358.5</ele><time>2026-04-12T08:52:15Z</time></trkpt><trkpt lat="42.09047094398603" lon="12.786666248203014"><ele>358.0</ele><time>2026-04-12T08:52:17Z</time></trkpt><trkpt lat="42.09054213348378" lon="12.78655973429996"><ele>358.0</ele><time>2026-04-12T08:52:19.999Z</time></trkpt><trkpt lat="42.09059082721349" lon="12.786498541087273"><ele>358.0</ele><time>2026-04-12T08:52:21.999Z</time></trkpt><trkpt lat="42.090681697001344" lon="12.786405743974713"><ele>358.0</ele><time>2026-04-12T08:52:24.999Z</time></trkpt><trkpt lat="42.09075725638469" lon="12.786320088439762"><ele>358.0</ele><time>2026-04-12T08:52:26.999Z</time></trkpt><trkpt lat="42.0908260449905" lon="12.786216222367823"><ele>358.0</ele><time>2026-04-12T08:52:28.999Z</time></trkpt><trkpt lat="42.090890259771236" lon="12.786161924586025"><ele>357.16666666666663</ele><time>2026-04-12T08:52:30.999Z</time></trkpt><trkpt lat="42.09095383123798" lon="12.786076615258974"><ele>356.3333333333333</ele><time>2026-04-12T08:52:32.999Z</time></trkpt><trkpt lat="42.09102492005057" lon="12.786010554786763"><ele>355.5</ele><time>2026-04-12T08:52:34.999Z</time></trkpt><trkpt lat="42.091107579334285" lon="12.785922084228613"><ele>354.6666666666667</ele><time>2026-04-12T08:52:37.999Z</time></trkpt><trkpt lat="42.09117466937397" lon="12.785876305342349"><ele>353.83333333333337</ele><time>2026-04-12T08:52:39.999Z</time></trkpt><trkpt lat="42.09124139066901" lon="12.785801185627964"><ele>353.0</ele><time>2026-04-12T08:52:41.999Z</time></trkpt><trkpt lat="42.091302039648504" lon="12.785746467444536"><ele>353.0</ele><time>2026-04-12T08:52:43.999Z</time></trkpt><trkpt lat="42.091368668781975" lon="12.785687264626622"><ele>353.0</ele><time>2026-04-12T08:52:45.999Z</time></trkpt><trkpt lat="42.09145994816906" lon="12.7856223455528"><ele>353.0</ele><time>2026-04-12T08:52:48.999Z</time></trkpt><trkpt lat="42.091521696504486" lon="12.785564681036172"><ele>353.0</ele><time>2026-04-12T08:52:50.999Z</time></trkpt><trkpt lat="42.09158983944737" lon="12.785496637421124"><ele>353.0</ele><time>2026-04-12T08:52:52.999Z</time></trkpt><trkpt lat="42.09165803418003" lon="12.785420238492422"><ele>353.0</ele><time>2026-04-12T08:52:54.999Z</time></trkpt><trkpt lat="42.09171604796131" lon="12.785373105674346"><ele>353.1666666666667</ele><time>2026-04-12T08:52:56.999Z</time></trkpt><trkpt lat="42.09178895087152" lon="12.785321535421417"><ele>353.33333333333337</ele><time>2026-04-12T08:52:58.999Z</time></trkpt><trkpt lat="42.09185795741777" lon="12.785249408710756"><ele>353.5</ele><time>2026-04-12T08:53:00.999Z</time></trkpt><trkpt lat="42.09194548950504" lon="12.78520436078364"><ele>353.6666666666667</ele><time>2026-04-12T08:53:03.999Z</time></trkpt><trkpt lat="42.0920077653954" lon="12.785148261835023"><ele>353.8333333333333</ele><time>2026-04-12T08:53:05.999Z</time></trkpt><trkpt lat="42.092065635111666" lon="12.785085422611532"><ele>354.0</ele><time>2026-04-12T08:53:07.999Z</time></trkpt><trkpt lat="42.0921185125637" lon="12.78503607829886"><ele>354.0</ele><time>2026-04-12T08:53:09.999Z</time></trkpt><trkpt lat="42.09217785482871" lon="12.784970081478816"><ele>354.0</ele><time>2026-04-12T08:53:12.999Z</time></trkpt><trkpt lat="42.09224544077235" lon="12.78490100101508"><ele>354.0</ele><time>2026-04-12T08:53:15.999Z</time></trkpt><trkpt lat="42.09229122082723" lon="12.784836713420336"><ele>354.0</ele><time>2026-04-12T08:53:17.999Z</time></trkpt><trkpt lat="42.09234300779937" lon="12.784781560767978"><ele>354.0</ele><time>2026-04-12T08:53:19.998Z</time></trkpt><trkpt lat="42.092401771800795" lon="12.78472891525629"><ele>354.0</ele><time>2026-04-12T08:53:21.998Z</time></trkpt><trkpt lat="42.09244839608007" lon="12.784657921447488"><ele>354.0</ele><time>2026-04-12T08:53:23.998Z</time></trkpt><trkpt lat="42.092505176989576" lon="12.784593655432369"><ele>353.3333333333333</ele><time>2026-04-12T08:53:25.998Z</time></trkpt><trkpt lat="42.09256619478342" lon="12.784536702611545"><ele>352.6666666666667</ele><time>2026-04-12T08:53:27.998Z</time></trkpt><trkpt lat="42.09265280397146" lon="12.78444880248022"><ele>352.0</ele><time>2026-04-12T08:53:29.998Z</time></trkpt><trkpt lat="42.09271462067171" lon="12.784374206366067"><ele>351.33333333333337</ele><time>2026-04-12T08:53:31.998Z</time></trkpt><trkpt lat="42.09278790382869" lon="12.784305421852268"><ele>350.6666666666667</ele><time>2026-04-12T08:53:33.998Z</time></trkpt><trkpt lat="42.09284770311927" lon="12.78423957981068"><ele>350.0</ele><time>2026-04-12T08:53:35.998Z</time></trkpt><trkpt lat="42.092912571439726" lon="12.78417740398338"><ele>350.0</ele><time>2026-04-12T08:53:38.998Z</time></trkpt><trkpt lat="42.0929642649886" lon="12.78412065933229"><ele>350.0</ele><time>2026-04-12T08:53:40.998Z</time></trkpt><trkpt lat="42.09303385792294" lon="12.784056372126589"><ele>350.0</ele><time>2026-04-12T08:53:43.998Z</time></trkpt><trkpt lat="42.09309073976426" lon="12.784002365840639"><ele>350.0</ele><time>2026-04-12T08:53:45.998Z</time></trkpt><trkpt lat="42.093171848037834" lon="12.783934238868714"><ele>350.0</ele><time>2026-04-12T08:53:47.998Z</time></trkpt><trkpt lat="42.09325273698411" lon="12.78384339292581"><ele>350.0</ele><time>2026-04-12T08:53:49.998Z</time></trkpt><trkpt lat="42.09332986988938" lon="12.783800357613163"><ele>353.33333333333337</ele><time>2026-04-12T08:53:51.998Z</time></trkpt><trkpt lat="42.093405158462026" lon="12.783749431040507"><ele>356.6666666666667</ele><time>2026-04-12T08:53:53.998Z</time></trkpt><trkpt lat="42.09346560717403" lon="12.783708839198034"><ele>360.0</ele><time>2026-04-12T08:53:55.999Z</time></trkpt><trkpt lat="42.09353742603463" lon="12.783685673942676"><ele>363.3333333333333</ele><time>2026-04-12T08:53:57.999Z</time></trkpt><trkpt lat="42.09360637107892" lon="12.783637571957989"><ele>366.66666666666663</ele><time>2026-04-12T08:53:59.999Z</time></trkpt><trkpt lat="42.09367376050099" lon="12.78360688569473"><ele>370.0</ele><time>2026-04-12T08:54:01.999Z</time></trkpt><trkpt lat="42.09375746088209" lon="12.78355731236879"><ele>367.8</ele><time>2026-04-12T08:54:03.999Z</time></trkpt><trkpt lat="42.09388463378298" lon="12.783478989106044"><ele>365.6</ele><time>2026-04-12T08:54:08Z</time></trkpt><trkpt lat="42.09395718901434" lon="12.78343510578406"><ele>363.4</ele><time>2026-04-12T08:54:10Z</time></trkpt><trkpt lat="42.094046947693734" lon="12.783369220581537"><ele>361.2</ele><time>2026-04-12T08:54:12Z</time></trkpt><trkpt lat="42.09413656898736" lon="12.783297884415362"><ele>359.0</ele><time>2026-04-12T08:54:14Z</time></trkpt><trkpt lat="42.09422108986782" lon="12.783216686155205"><ele>359.0</ele><time>2026-04-12T08:54:16Z</time></trkpt><trkpt lat="42.094299742986" lon="12.783147707830242"><ele>359.0</ele><time>2026-04-12T08:54:17.999Z</time></trkpt><trkpt lat="42.09437266595877" lon="12.783086988878944"><ele>359.0</ele><time>2026-04-12T08:54:19.999Z</time></trkpt><trkpt lat="42.09444484109345" lon="12.78302456788837"><ele>359.0</ele><time>2026-04-12T08:54:21.999Z</time></trkpt><trkpt lat="42.094522559601074" lon="12.782957278679278"><ele>359.0</ele><time>2026-04-12T08:54:23.999Z</time></trkpt><trkpt lat="42.09459834170752" lon="12.78290384120633"><ele>359.0</ele><time>2026-04-12T08:54:25.999Z</time></trkpt><trkpt lat="42.09467323095712" lon="12.782856781525256"><ele>359.0</ele><time>2026-04-12T08:54:27.999Z</time></trkpt><trkpt lat="42.094754777744285" lon="12.782786542778522"><ele>359.0</ele><time>2026-04-12T08:54:29.999Z</time></trkpt><trkpt lat="42.09484256026193" lon="12.782717741852567"><ele>359.0</ele><time>2026-04-12T08:54:31.999Z</time></trkpt><trkpt lat="42.0949280267938" lon="12.782646449275672"><ele>359.0</ele><time>2026-04-12T08:54:33.999Z</time></trkpt><trkpt lat="42.094997202359394" lon="12.782575068445063"><ele>359.0</ele><time>2026-04-12T08:54:35.999Z</time></trkpt><trkpt lat="42.09505653162815" lon="12.782499780323695"><ele>358.83333333333337</ele><time>2026-04-12T08:54:37.999Z</time></trkpt><trkpt lat="42.095105235455925" lon="12.782429720309796"><ele>358.6666666666667</ele><time>2026-04-12T08:54:39.999Z</time></trkpt><trkpt lat="42.095161133124826" lon="12.782371579669716"><ele>358.5</ele><time>2026-04-12T08:54:41.999Z</time></trkpt><trkpt lat="42.09521781451234" lon="12.782301666172216"><ele>358.3333333333333</ele><time>2026-04-12T08:54:43.999Z</time></trkpt><trkpt lat="42.09528575608898" lon="12.782242904842667"><ele>358.16666666666663</ele><time>2026-04-12T08:54:45.999Z</time></trkpt><trkpt lat="42.095365076081" lon="12.7821803886403"><ele>358.0</ele><time>2026-04-12T08:54:47.999Z</time></trkpt><trkpt lat="42.095454385368164" lon="12.782119060866336"><ele>358.0</ele><time>2026-04-12T08:54:49.999Z</time></trkpt><trkpt lat="42.09552418775097" lon="12.782055861232218"><ele>358.0</ele><time>2026-04-12T08:54:51.999Z</time></trkpt><trkpt lat="42.09560032245919" lon="12.781995472097991"><ele>358.0</ele><time>2026-04-12T08:54:53.999Z</time></trkpt><trkpt lat="42.09568400574127" lon="12.781929782466634"><ele>358.0</ele><time>2026-04-12T08:54:55.999Z</time></trkpt><trkpt lat="42.09575240817981" lon="12.781876414799843"><ele>358.0</ele><time>2026-04-12T08:54:57.999Z</time></trkpt><trkpt lat="42.0958243604814" lon="12.781824373328881"><ele>358.0</ele><time>2026-04-12T08:54:59.999Z</time></trkpt><trkpt lat="42.09590965397047" lon="12.781742469282038"><ele>357.5</ele><time>2026-04-12T08:55:01.999Z</time></trkpt><trkpt lat="42.09599649573937" lon="12.781684122920469"><ele>357.0</ele><time>2026-04-12T08:55:03.999Z</time></trkpt><trkpt lat="42.09606421220501" lon="12.781621581582408"><ele>356.5</ele><time>2026-04-12T08:55:05.999Z</time></trkpt><trkpt lat="42.09613325906279" lon="12.78156902679039"><ele>356.0</ele><time>2026-04-12T08:55:07.999Z</time></trkpt><trkpt lat="42.09621113191815" lon="12.781511703545169"><ele>355.5</ele><time>2026-04-12T08:55:09.999Z</time></trkpt><trkpt lat="42.096296416298806" lon="12.781444561863387"><ele>355.0</ele><time>2026-04-12T08:55:11.999Z</time></trkpt><trkpt lat="42.09638217933655" lon="12.781368745206077"><ele>355.0</ele><time>2026-04-12T08:55:13.999Z</time></trkpt><trkpt lat="42.09646447779781" lon="12.781306784159788"><ele>355.0</ele><time>2026-04-12T08:55:15.999Z</time></trkpt><trkpt lat="42.09655292890928" lon="12.781244596192018"><ele>355.0</ele><time>2026-04-12T08:55:17.999Z</time></trkpt><trkpt lat="42.096651491895706" lon="12.781183129286724"><ele>355.0</ele><time>2026-04-12T08:55:19.999Z</time></trkpt><trkpt lat="42.09674246933484" lon="12.781133331676246"><ele>355.0</ele><time>2026-04-12T08:55:21.999Z</time></trkpt><trkpt lat="42.096836012597805" lon="12.781076523816948"><ele>353.16666666666663</ele><time>2026-04-12T08:55:23.999Z</time></trkpt><trkpt lat="42.09692310112937" lon="12.781025542758881"><ele>351.3333333333333</ele><time>2026-04-12T08:55:25.999Z</time></trkpt><trkpt lat="42.097006229248315" lon="12.780980830376686"><ele>349.5</ele><time>2026-04-12T08:55:27.999Z</time></trkpt><trkpt lat="42.09707693933878" lon="12.780929699464169"><ele>347.6666666666667</ele><time>2026-04-12T08:55:29.999Z</time></trkpt><trkpt lat="42.09714412318892" lon="12.780893341430097"><ele>345.83333333333337</ele><time>2026-04-12T08:55:31.998Z</time></trkpt><trkpt lat="42.097211525781034" lon="12.780861166771937"><ele>344.0</ele><time>2026-04-12T08:55:33.998Z</time></trkpt><trkpt lat="42.09728288177857" lon="12.780816959260097"><ele>344.0</ele><time>2026-04-12T08:55:35.998Z</time></trkpt><trkpt lat="42.09737967036164" lon="12.780761119139457"><ele>344.0</ele><time>2026-04-12T08:55:37.998Z</time></trkpt><trkpt lat="42.09747460820547" lon="12.780707187573556"><ele>344.0</ele><time>2026-04-12T08:55:39.998Z</time></trkpt><trkpt lat="42.09755993331793" lon="12.780655694982768"><ele>344.0</ele><time>2026-04-12T08:55:41.998Z</time></trkpt><trkpt lat="42.09763428115149" lon="12.780628063797405"><ele>344.0</ele><time>2026-04-12T08:55:43.998Z</time></trkpt><trkpt lat="42.097718236089584" lon="12.780567767857237"><ele>347.1666666666667</ele><time>2026-04-12T08:55:45.998Z</time></trkpt><trkpt lat="42.09779796431219" lon="12.780523824167455"><ele>350.33333333333337</ele><time>2026-04-12T08:55:47.998Z</time></trkpt><trkpt lat="42.09787919201294" lon="12.780484120793362"><ele>353.5</ele><time>2026-04-12T08:55:49.998Z</time></trkpt><trkpt lat="42.09794836017736" lon="12.78043837336972"><ele>356.6666666666667</ele><time>2026-04-12T08:55:51.998Z</time></trkpt><trkpt lat="42.09801749851653" lon="12.780402246014575"><ele>359.8333333333333</ele><time>2026-04-12T08:55:53.998Z</time></trkpt><trkpt lat="42.09808663143963" lon="12.780353633777478"><ele>363.0</ele><time>2026-04-12T08:55:55.998Z</time></trkpt><trkpt lat="42.098170953311296" lon="12.780304168727616"><ele>365.0</ele><time>2026-04-12T08:55:57.998Z</time></trkpt><trkpt lat="42.09825756488374" lon="12.780269026950704"><ele>367.0</ele><time>2026-04-12T08:55:59.998Z</time></trkpt><trkpt lat="42.09832818026044" lon="12.780226023419637"><ele>369.0</ele><time>2026-04-12T08:56:02Z</time></trkpt><trkpt lat="42.098402164968306" lon="12.780175984921133"><ele>371.0</ele><time>2026-04-12T08:56:23Z</time></trkpt><trkpt lat="42.098485903360874" lon="12.780147568804221"><ele>373.0</ele><time>2026-04-12T08:56:26Z</time></trkpt><trkpt lat="42.09856205745376" lon="12.780119289069257"><ele>375.0</ele><time>2026-04-12T08:56:29Z</time></trkpt><trkpt lat="42.09862646908854" lon="12.780095687762183"><ele>372.0</ele><time>2026-04-12T08:56:31Z</time></trkpt><trkpt lat="42.0987083947305" lon="12.780069118484843"><ele>369.0</ele><time>2026-04-12T08:56:33Z</time></trkpt><trkpt lat="42.09879027908443" lon="12.780040364386748"><ele>366.0</ele><time>2026-04-12T08:56:35Z</time></trkpt><trkpt lat="42.09885857737587" lon="12.780018591816342"><ele>363.0</ele><time>2026-04-12T08:56:37Z</time></trkpt><trkpt lat="42.098933032119554" lon="12.779987633621852"><ele>360.0</ele><time>2026-04-12T08:56:39Z</time></trkpt><trkpt lat="42.09900488851966" lon="12.779957320966481"><ele>357.0</ele><time>2026-04-12T08:56:41Z</time></trkpt><trkpt lat="42.09910502575065" lon="12.779914703589835"><ele>357.0</ele><time>2026-04-12T08:56:43Z</time></trkpt><trkpt lat="42.099188939443216" lon="12.779859867403664"><ele>357.0</ele><time>2026-04-12T08:56:45Z</time></trkpt><trkpt lat="42.09927272327864" lon="12.779818115698472"><ele>357.0</ele><time>2026-04-12T08:56:46.999Z</time></trkpt><trkpt lat="42.09933130596932" lon="12.779779374108864"><ele>357.0</ele><time>2026-04-12T08:56:48.999Z</time></trkpt><trkpt lat="42.09940125250529" lon="12.77975252255869"><ele>357.0</ele><time>2026-04-12T08:56:50.999Z</time></trkpt><trkpt lat="42.099504100036235" lon="12.77971147864114"><ele>357.0</ele><time>2026-04-12T08:56:52.999Z</time></trkpt><trkpt lat="42.099613288897615" lon="12.77968166208142"><ele>357.0</ele><time>2026-04-12T08:56:54.999Z</time></trkpt><trkpt lat="42.099725311601645" lon="12.779661911879787"><ele>357.0</ele><time>2026-04-12T08:56:56.999Z</time></trkpt><trkpt lat="42.09981095203487" lon="12.779638102902199"><ele>357.0</ele><time>2026-04-12T08:56:58.999Z</time></trkpt><trkpt lat="42.09989887658002" lon="12.779620329824068"><ele>357.0</ele><time>2026-04-12T08:57:00.999Z</time></trkpt><trkpt lat="42.09998343074501" lon="12.779601134970312"><ele>357.0</ele><time>2026-04-12T08:57:02.999Z</time></trkpt><trkpt lat="42.100075401730244" lon="12.779581224473612"><ele>359.8</ele><time>2026-04-12T08:57:04.999Z</time></trkpt><trkpt lat="42.10015988638891" lon="12.779559781462417"><ele>362.6</ele><time>2026-04-12T08:57:06.999Z</time></trkpt><trkpt lat="42.10025399707143" lon="12.779531339183723"><ele>365.40000000000003</ele><time>2026-04-12T08:57:08.999Z</time></trkpt><trkpt lat="42.100358679246135" lon="12.779508735634392"><ele>368.20000000000005</ele><time>2026-04-12T08:57:10.999Z</time></trkpt><trkpt lat="42.100463577979376" lon="12.779494287467573"><ele>371.0</ele><time>2026-04-12T08:57:12.999Z</time></trkpt><trkpt lat="42.10056596739592" lon="12.779481778229208"><ele>371.0</ele><time>2026-04-12T08:57:14.999Z</time></trkpt><trkpt lat="42.10066522680866" lon="12.779474267308249"><ele>371.0</ele><time>2026-04-12T08:57:16.999Z</time></trkpt><trkpt lat="42.10075536818861" lon="12.779455986549006"><ele>371.0</ele><time>2026-04-12T08:57:18.999Z</time></trkpt><trkpt lat="42.10083715489357" lon="12.779445393700277"><ele>371.0</ele><time>2026-04-12T08:57:20.999Z</time></trkpt><trkpt lat="42.10092636790508" lon="12.77939361943611"><ele>371.0</ele><time>2026-04-12T08:57:22.999Z</time></trkpt><trkpt lat="42.10100631259962" lon="12.779349521465255"><ele>366.0</ele><time>2026-04-12T08:57:24.999Z</time></trkpt><trkpt lat="42.10106551385436" lon="12.779313058623124"><ele>361.0</ele><time>2026-04-12T08:57:26.999Z</time></trkpt><trkpt lat="42.101128931163394" lon="12.779285070949935"><ele>356.0</ele><time>2026-04-12T08:57:28.999Z</time></trkpt><trkpt lat="42.10120325220309" lon="12.779241835150263"><ele>351.0</ele><time>2026-04-12T08:57:30.999Z</time></trkpt><trkpt lat="42.10128396069692" lon="12.779202283729843"><ele>346.0</ele><time>2026-04-12T08:57:32.999Z</time></trkpt><trkpt lat="42.10136790250312" lon="12.779164162569232"><ele>341.0</ele><time>2026-04-12T08:57:34.999Z</time></trkpt><trkpt lat="42.101456100239794" lon="12.77912336526865"><ele>341.0</ele><time>2026-04-12T08:57:36.999Z</time></trkpt><trkpt lat="42.10153440921616" lon="12.779089783914205"><ele>341.0</ele><time>2026-04-12T08:57:38.999Z</time></trkpt><trkpt lat="42.101607623578644" lon="12.779058513062736"><ele>341.0</ele><time>2026-04-12T08:57:40.999Z</time></trkpt><trkpt lat="42.101677932507485" lon="12.779019560306777"><ele>341.0</ele><time>2026-04-12T08:57:42.999Z</time></trkpt><trkpt lat="42.10174804303856" lon="12.778987179216436"><ele>341.0</ele><time>2026-04-12T08:57:44.999Z</time></trkpt><trkpt lat="42.10182227505341" lon="12.77896119198365"><ele>341.0</ele><time>2026-04-12T08:57:46.999Z</time></trkpt><trkpt lat="42.10189809085879" lon="12.778939181476256"><ele>343.20000000000005</ele><time>2026-04-12T08:57:48.999Z</time></trkpt><trkpt lat="42.10198278078499" lon="12.778916987000875"><ele>345.40000000000003</ele><time>2026-04-12T08:57:50.999Z</time></trkpt><trkpt lat="42.10207281901395" lon="12.77890366233131"><ele>347.6</ele><time>2026-04-12T08:57:52.998Z</time></trkpt><trkpt lat="42.10216445357782" lon="12.778874802371032"><ele>349.8</ele><time>2026-04-12T08:57:54.998Z</time></trkpt><trkpt lat="42.10227215579407" lon="12.778843212480313"><ele>352.0</ele><time>2026-04-12T08:57:56.998Z</time></trkpt><trkpt lat="42.10236858901405" lon="12.778804310779133"><ele>354.40000000000003</ele><time>2026-04-12T08:57:58.998Z</time></trkpt><trkpt lat="42.10247313146501" lon="12.778764211154295"><ele>356.8</ele><time>2026-04-12T08:58:00.998Z</time></trkpt><trkpt lat="42.10255832127762" lon="12.778743684644118"><ele>359.2</ele><time>2026-04-12T08:58:02.998Z</time></trkpt><trkpt lat="42.102650824158815" lon="12.778690468427179"><ele>361.6</ele><time>2026-04-12T08:58:04.998Z</time></trkpt><trkpt lat="42.10273734479934" lon="12.77865210132888"><ele>364.0</ele><time>2026-04-12T08:58:07Z</time></trkpt><trkpt lat="42.10282909463746" lon="12.778610480423005"><ele>364.0</ele><time>2026-04-12T08:58:09Z</time></trkpt><trkpt lat="42.10292702184041" lon="12.77854776116654"><ele>364.0</ele><time>2026-04-12T08:58:11Z</time></trkpt><trkpt lat="42.10302323273743" lon="12.778487890627298"><ele>364.0</ele><time>2026-04-12T08:58:13Z</time></trkpt><trkpt lat="42.103120271416444" lon="12.778411376875393"><ele>364.0</ele><time>2026-04-12T08:58:15Z</time></trkpt><trkpt lat="42.10317464170882" lon="12.778366931501205"><ele>364.0</ele><time>2026-04-12T08:58:16Z</time></trkpt><trkpt lat="42.10327745465284" lon="12.778284053853989"><ele>361.6</ele><time>2026-04-12T08:58:18Z</time></trkpt><trkpt lat="42.10337171268986" lon="12.778198237807224"><ele>359.2</ele><time>2026-04-12T08:58:20Z</time></trkpt><trkpt lat="42.103454774027" lon="12.778121613689843"><ele>356.8</ele><time>2026-04-12T08:58:22Z</time></trkpt><trkpt lat="42.103534360076225" lon="12.778056373606294"><ele>354.40000000000003</ele><time>2026-04-12T08:58:24Z</time></trkpt><trkpt lat="42.1036056499434" lon="12.777998495302457"><ele>352.0</ele><time>2026-04-12T08:58:26Z</time></trkpt><trkpt lat="42.10368437054497" lon="12.777944268691545"><ele>352.0</ele><time>2026-04-12T08:58:28Z</time></trkpt><trkpt lat="42.10378589153573" lon="12.77788935670125"><ele>352.0</ele><time>2026-04-12T08:58:30Z</time></trkpt><trkpt lat="42.10387854818454" lon="12.777832119614434"><ele>352.0</ele><time>2026-04-12T08:58:32Z</time></trkpt><trkpt lat="42.1039775211357" lon="12.777789746269901"><ele>352.0</ele><time>2026-04-12T08:58:34Z</time></trkpt><trkpt lat="42.104072490274724" lon="12.77774317772946"><ele>352.0</ele><time>2026-04-12T08:58:36Z</time></trkpt><trkpt lat="42.10416186137824" lon="12.777699290929847"><ele>350.0</ele><time>2026-04-12T08:58:38Z</time></trkpt><trkpt lat="42.10423946635782" lon="12.777646469203185"><ele>348.0</ele><time>2026-04-12T08:58:40Z</time></trkpt><trkpt lat="42.10430591594479" lon="12.77759651929794"><ele>346.0</ele><time>2026-04-12T08:58:42Z</time></trkpt><trkpt lat="42.104375647940905" lon="12.777549596466882"><ele>344.0</ele><time>2026-04-12T08:58:45Z</time></trkpt><trkpt lat="42.1044409070558" lon="12.777511194516661"><ele>342.0</ele><time>2026-04-12T08:58:49Z</time></trkpt><trkpt lat="42.10450132406683" lon="12.777460921908101"><ele>340.0</ele><time>2026-04-12T08:58:51Z</time></trkpt><trkpt lat="42.104566140671196" lon="12.77740008300005"><ele>340.0</ele><time>2026-04-12T08:58:53Z</time></trkpt><trkpt lat="42.10463867457159" lon="12.777344067891624"><ele>340.0</ele><time>2026-04-12T08:58:54.999Z</time></trkpt><trkpt lat="42.104707438935115" lon="12.777283662447063"><ele>340.0</ele><time>2026-04-12T08:58:56.999Z</time></trkpt><trkpt lat="42.10477243463735" lon="12.777224754122841"><ele>340.0</ele><time>2026-04-12T08:58:58.999Z</time></trkpt><trkpt lat="42.10484400819697" lon="12.77716794334288"><ele>340.0</ele><time>2026-04-12T08:59:00.999Z</time></trkpt><trkpt lat="42.10490601513254" lon="12.777115672370904"><ele>340.0</ele><time>2026-04-12T08:59:02.999Z</time></trkpt><trkpt lat="42.10496723445958" lon="12.777066287135266"><ele>339.0</ele><time>2026-04-12T08:59:04.999Z</time></trkpt><trkpt lat="42.105027512732846" lon="12.777008543326252"><ele>338.0</ele><time>2026-04-12T08:59:06.999Z</time></trkpt><trkpt lat="42.10509694628245" lon="12.776949994872089"><ele>337.0</ele><time>2026-04-12T08:59:08.999Z</time></trkpt><trkpt lat="42.105164180346875" lon="12.776901855987044"><ele>336.0</ele><time>2026-04-12T08:59:10.999Z</time></trkpt><trkpt lat="42.1052301082881" lon="12.776836819469773"><ele>335.0</ele><time>2026-04-12T08:59:12.999Z</time></trkpt><trkpt lat="42.10529582092092" lon="12.7767783252628"><ele>334.0</ele><time>2026-04-12T08:59:14.999Z</time></trkpt><trkpt lat="42.10536940751997" lon="12.776716549018579"><ele>334.0</ele><time>2026-04-12T08:59:16.999Z</time></trkpt><trkpt lat="42.10544205521699" lon="12.776638270868068"><ele>334.0</ele><time>2026-04-12T08:59:18.999Z</time></trkpt><trkpt lat="42.105510856321395" lon="12.776551954351905"><ele>334.0</ele><time>2026-04-12T08:59:20.999Z</time></trkpt><trkpt lat="42.10557466543523" lon="12.776474212002407"><ele>334.0</ele><time>2026-04-12T08:59:22.999Z</time></trkpt><trkpt lat="42.10564574240624" lon="12.776412816333986"><ele>334.0</ele><time>2026-04-12T08:59:24.999Z</time></trkpt><trkpt lat="42.10570910350626" lon="12.776350214751055"><ele>334.0</ele><time>2026-04-12T08:59:26.999Z</time></trkpt><trkpt lat="42.105789326497835" lon="12.776292763039283"><ele>337.0</ele><time>2026-04-12T08:59:28.999Z</time></trkpt><trkpt lat="42.105867246020566" lon="12.776228393659762"><ele>340.0</ele><time>2026-04-12T08:59:30.999Z</time></trkpt><trkpt lat="42.10594137573924" lon="12.776187968163558"><ele>343.0</ele><time>2026-04-12T08:59:32.999Z</time></trkpt><trkpt lat="42.10600587879342" lon="12.776154740679583"><ele>346.0</ele><time>2026-04-12T08:59:34.999Z</time></trkpt><trkpt lat="42.10608745175233" lon="12.776113957274575"><ele>349.0</ele><time>2026-04-12T08:59:36.999Z</time></trkpt><trkpt lat="42.10616511211425" lon="12.776086623515829"><ele>352.0</ele><time>2026-04-12T08:59:38.999Z</time></trkpt><trkpt lat="42.1062447244429" lon="12.776052995147824"><ele>352.0</ele><time>2026-04-12T08:59:40.999Z</time></trkpt><trkpt lat="42.106322179345916" lon="12.776020846772688"><ele>352.0</ele><time>2026-04-12T08:59:42.999Z</time></trkpt><trkpt lat="42.10641133276919" lon="12.775976727653074"><ele>352.0</ele><time>2026-04-12T08:59:44.999Z</time></trkpt><trkpt lat="42.10649655861346" lon="12.775937676507272"><ele>352.0</ele><time>2026-04-12T08:59:46.999Z</time></trkpt><trkpt lat="42.106566389559035" lon="12.775893151282466"><ele>352.0</ele><time>2026-04-12T08:59:48.999Z</time></trkpt><trkpt lat="42.10663210030107" lon="12.77585236438673"><ele>352.0</ele><time>2026-04-12T08:59:50.999Z</time></trkpt><trkpt lat="42.10669726933875" lon="12.775796000994845"><ele>350.8333333333333</ele><time>2026-04-12T08:59:52.999Z</time></trkpt><trkpt lat="42.106774935507126" lon="12.775741198097487"><ele>349.66666666666663</ele><time>2026-04-12T08:59:54.999Z</time></trkpt><trkpt lat="42.10684243707811" lon="12.775674444346706"><ele>348.5</ele><time>2026-04-12T08:59:56.999Z</time></trkpt><trkpt lat="42.106909417168225" lon="12.775626653189796"><ele>347.3333333333333</ele><time>2026-04-12T08:59:58.998Z</time></trkpt><trkpt lat="42.10697323462604" lon="12.77557352271305"><ele>346.1666666666667</ele><time>2026-04-12T09:00:00.998Z</time></trkpt><trkpt lat="42.1070389248612" lon="12.775531225694756"><ele>345.0</ele><time>2026-04-12T09:00:02.998Z</time></trkpt><trkpt lat="42.1071108061211" lon="12.775472134133643"><ele>345.0</ele><time>2026-04-12T09:00:04.998Z</time></trkpt><trkpt lat="42.107187951990646" lon="12.775413561578366"><ele>345.0</ele><time>2026-04-12T09:00:06.998Z</time></trkpt><trkpt lat="42.107258442429746" lon="12.77535495069159"><ele>345.0</ele><time>2026-04-12T09:00:08.998Z</time></trkpt><trkpt lat="42.10734943929699" lon="12.775296038608577"><ele>345.0</ele><time>2026-04-12T09:00:10.998Z</time></trkpt><trkpt lat="42.107435004084095" lon="12.77524133428234"><ele>345.0</ele><time>2026-04-12T09:00:13Z</time></trkpt><trkpt lat="42.1075124333176" lon="12.775193790999651"><ele>342.8</ele><time>2026-04-12T09:00:15Z</time></trkpt><trkpt lat="42.10759669950386" lon="12.775171658772784"><ele>340.6</ele><time>2026-04-12T09:00:17Z</time></trkpt><trkpt lat="42.107704835472454" lon="12.775155663387125"><ele>338.4</ele><time>2026-04-12T09:00:20Z</time></trkpt><trkpt lat="42.1077941584828" lon="12.775157164747231"><ele>336.2</ele><time>2026-04-12T09:00:22Z</time></trkpt><trkpt lat="42.107870554148484" lon="12.775169964388628"><ele>334.0</ele><time>2026-04-12T09:00:24Z</time></trkpt><trkpt lat="42.107961482803105" lon="12.775169740138528"><ele>337.66666666666663</ele><time>2026-04-12T09:00:27Z</time></trkpt><trkpt lat="42.10805605081775" lon="12.7751900502977"><ele>341.3333333333333</ele><time>2026-04-12T09:00:29Z</time></trkpt><trkpt lat="42.10812782878388" lon="12.775213787672008"><ele>345.0</ele><time>2026-04-12T09:00:31Z</time></trkpt><trkpt lat="42.10819809353919" lon="12.775224086136497"><ele>348.6666666666667</ele><time>2026-04-12T09:00:33Z</time></trkpt><trkpt lat="42.108277388520754" lon="12.775271904288498"><ele>352.33333333333337</ele><time>2026-04-12T09:00:36Z</time></trkpt><trkpt lat="42.10835422157131" lon="12.77530328792746"><ele>356.0</ele><time>2026-04-12T09:00:40Z</time></trkpt><trkpt lat="42.10843451442466" lon="12.775328737067749"><ele>357.1666666666667</ele><time>2026-04-12T09:00:44Z</time></trkpt><trkpt lat="42.10850040394338" lon="12.775362988118308"><ele>358.33333333333337</ele><time>2026-04-12T09:00:48Z</time></trkpt><trkpt lat="42.108565181018726" lon="12.775374986714413"><ele>359.5</ele><time>2026-04-12T09:00:50Z</time></trkpt><trkpt lat="42.10863464573984" lon="12.775418474744663"><ele>360.6666666666667</ele><time>2026-04-12T09:00:52Z</time></trkpt><trkpt lat="42.10871178954939" lon="12.775461101588252"><ele>361.8333333333333</ele><time>2026-04-12T09:00:53Z</time></trkpt><trkpt lat="42.108813564264054" lon="12.775499158919402"><ele>363.0</ele><time>2026-04-12T09:00:55Z</time></trkpt><trkpt lat="42.108894912735046" lon="12.775530393824381"><ele>363.0</ele><time>2026-04-12T09:00:58Z</time></trkpt><trkpt lat="42.10898519970481" lon="12.77555198083459"><ele>363.0</ele><time>2026-04-12T09:01:01Z</time></trkpt><trkpt lat="42.10905855404056" lon="12.77560466678059"><ele>363.0</ele><time>2026-04-12T09:01:03Z</time></trkpt><trkpt lat="42.10916497057482" lon="12.775660185346414"><ele>363.0</ele><time>2026-04-12T09:01:04.999Z</time></trkpt><trkpt lat="42.109258968189046" lon="12.77569599466072"><ele>363.0</ele><time>2026-04-12T09:01:06.999Z</time></trkpt><trkpt lat="42.10932037953308" lon="12.775718691902517"><ele>360.5</ele><time>2026-04-12T09:01:08.999Z</time></trkpt><trkpt lat="42.10939229166262" lon="12.775738293200526"><ele>358.0</ele><time>2026-04-12T09:01:10.999Z</time></trkpt><trkpt lat="42.10947355049938" lon="12.775773244225368"><ele>355.5</ele><time>2026-04-12T09:01:12.999Z</time></trkpt><trkpt lat="42.1095416858609" lon="12.775799800680627"><ele>353.0</ele><time>2026-04-12T09:01:14.999Z</time></trkpt><trkpt lat="42.109601941915834" lon="12.775825958253625"><ele>350.5</ele><time>2026-04-12T09:01:16.999Z</time></trkpt><trkpt lat="42.109709427239984" lon="12.775850079249611"><ele>348.0</ele><time>2026-04-12T09:01:18.999Z</time></trkpt><trkpt lat="42.10978207649888" lon="12.775862234181988"><ele>348.0</ele><time>2026-04-12T09:01:20.999Z</time></trkpt><trkpt lat="42.10984115325952" lon="12.775897692558887"><ele>348.0</ele><time>2026-04-12T09:01:22.999Z</time></trkpt><trkpt lat="42.109907322782966" lon="12.775925281339319"><ele>348.0</ele><time>2026-04-12T09:01:24.999Z</time></trkpt><trkpt lat="42.10998382787407" lon="12.775956382763392"><ele>348.0</ele><time>2026-04-12T09:01:26.999Z</time></trkpt><trkpt lat="42.11005238882829" lon="12.776006179386599"><ele>348.0</ele><time>2026-04-12T09:01:28.999Z</time></trkpt><trkpt lat="42.110122984962736" lon="12.776079895659793"><ele>348.0</ele><time>2026-04-12T09:01:30.999Z</time></trkpt><trkpt lat="42.11021117159985" lon="12.776164918309794"><ele>351.79999999999995</ele><time>2026-04-12T09:01:32.999Z</time></trkpt><trkpt lat="42.11029943869102" lon="12.776256461755725"><ele>355.6</ele><time>2026-04-12T09:01:34.999Z</time></trkpt><trkpt lat="42.11037713486152" lon="12.776330702664923"><ele>359.4</ele><time>2026-04-12T09:01:36.999Z</time></trkpt><trkpt lat="42.11045137876688" lon="12.776406377204614"><ele>363.20000000000005</ele><time>2026-04-12T09:01:38.999Z</time></trkpt><trkpt lat="42.11053615445114" lon="12.776478297806657"><ele>367.0</ele><time>2026-04-12T09:01:40.999Z</time></trkpt><trkpt lat="42.11058582359655" lon="12.776562782006224"><ele>367.0</ele><time>2026-04-12T09:01:42.999Z</time></trkpt><trkpt lat="42.110658857761244" lon="12.776633259264768"><ele>367.0</ele><time>2026-04-12T09:01:44.999Z</time></trkpt><trkpt lat="42.11071942338971" lon="12.776674716480988"><ele>367.0</ele><time>2026-04-12T09:01:46.999Z</time></trkpt><trkpt lat="42.11081946852283" lon="12.776673535546646"><ele>367.0</ele><time>2026-04-12T09:01:50.999Z</time></trkpt><trkpt lat="42.11090507511616" lon="12.776602525670574"><ele>367.0</ele><time>2026-04-12T09:01:52.999Z</time></trkpt><trkpt lat="42.11097466443352" lon="12.776512747819966"><ele>363.16666666666663</ele><time>2026-04-12T09:01:54.999Z</time></trkpt><trkpt lat="42.11104007452921" lon="12.776434279434293"><ele>359.3333333333333</ele><time>2026-04-12T09:01:56.999Z</time></trkpt><trkpt lat="42.111100508337564" lon="12.77633256814993"><ele>355.5</ele><time>2026-04-12T09:01:58.999Z</time></trkpt><trkpt lat="42.11113017075273" lon="12.776255626449467"><ele>351.6666666666667</ele><time>2026-04-12T09:01:59.999Z</time></trkpt><trkpt lat="42.11119232581573" lon="12.776153876106077"><ele>347.83333333333337</ele><time>2026-04-12T09:02:01.999Z</time></trkpt><trkpt lat="42.11124920514185" lon="12.776050028471262"><ele>344.0</ele><time>2026-04-12T09:02:03.999Z</time></trkpt><trkpt lat="42.111301424440875" lon="12.775961749322333"><ele>340.0</ele><time>2026-04-12T09:02:05.999Z</time></trkpt><trkpt lat="42.11136496669111" lon="12.775872767507689"><ele>336.0</ele><time>2026-04-12T09:02:07.998Z</time></trkpt><trkpt lat="42.11143476332724" lon="12.775793150649116"><ele>332.0</ele><time>2026-04-12T09:02:09.998Z</time></trkpt><trkpt lat="42.11150338398986" lon="12.775727260863786"><ele>328.0</ele><time>2026-04-12T09:02:11.998Z</time></trkpt><trkpt lat="42.11156045144685" lon="12.77567250705331"><ele>324.0</ele><time>2026-04-12T09:02:13.998Z</time></trkpt><trkpt lat="42.111616168021" lon="12.775609361757768"><ele>320.0</ele><time>2026-04-12T09:02:15.998Z</time></trkpt><trkpt lat="42.111672246488794" lon="12.775544817952937"><ele>320.0</ele><time>2026-04-12T09:02:17.998Z</time></trkpt><trkpt lat="42.111732356956885" lon="12.775472893071688"><ele>320.0</ele><time>2026-04-12T09:02:20Z</time></trkpt><trkpt lat="42.111796744663636" lon="12.775413486318104"><ele>320.0</ele><time>2026-04-12T09:02:22Z</time></trkpt><trkpt lat="42.11188012158109" lon="12.775354059153482"><ele>320.0</ele><time>2026-04-12T09:02:24Z</time></trkpt><trkpt lat="42.111959817598745" lon="12.775285733356577"><ele>320.0</ele><time>2026-04-12T09:02:26Z</time></trkpt><trkpt lat="42.11204456066158" lon="12.775224133509091"><ele>320.0</ele><time>2026-04-12T09:02:29Z</time></trkpt><trkpt lat="42.11211769737603" lon="12.775160876718784"><ele>316.5</ele><time>2026-04-12T09:02:31Z</time></trkpt><trkpt lat="42.11220189741049" lon="12.775101115493742"><ele>313.0</ele><time>2026-04-12T09:02:33Z</time></trkpt><trkpt lat="42.11228304861737" lon="12.77502934859591"><ele>309.5</ele><time>2026-04-12T09:02:35Z</time></trkpt><trkpt lat="42.112377940516446" lon="12.774986494574524"><ele>306.0</ele><time>2026-04-12T09:02:37Z</time></trkpt><trkpt lat="42.112437332847634" lon="12.774921159874646"><ele>302.5</ele><time>2026-04-12T09:02:38Z</time></trkpt><trkpt lat="42.11249324374242" lon="12.774859271907633"><ele>299.0</ele><time>2026-04-12T09:02:39Z</time></trkpt><trkpt lat="42.112560572336115" lon="12.7748031224721"><ele>299.0</ele><time>2026-04-12T09:02:40Z</time></trkpt><trkpt lat="42.11262611702493" lon="12.77475018514266"><ele>299.0</ele><time>2026-04-12T09:02:41Z</time></trkpt><trkpt lat="42.112700197965665" lon="12.774748445366107"><ele>299.0</ele><time>2026-04-12T09:02:42Z</time></trkpt><trkpt lat="42.11282162050875" lon="12.77469215272269"><ele>299.0</ele><time>2026-04-12T09:02:44Z</time></trkpt><trkpt lat="42.11292866300532" lon="12.774616445267764"><ele>299.0</ele><time>2026-04-12T09:02:46Z</time></trkpt><trkpt lat="42.112979652467416" lon="12.774563359931081"><ele>299.0</ele><time>2026-04-12T09:02:47Z</time></trkpt><trkpt lat="42.113050758452346" lon="12.774438730814394"><ele>299.0</ele><time>2026-04-12T09:02:49Z</time></trkpt><trkpt lat="42.11313023247013" lon="12.774358918658962"><ele>299.0</ele><time>2026-04-12T09:02:51Z</time></trkpt><trkpt lat="42.113197184522484" lon="12.77428555377055"><ele>299.0</ele><time>2026-04-12T09:02:53Z</time></trkpt><trkpt lat="42.11326023794629" lon="12.774187108086473"><ele>299.0</ele><time>2026-04-12T09:02:55Z</time></trkpt><trkpt lat="42.113340595994174" lon="12.774054071850948"><ele>296.59999999999997</ele><time>2026-04-12T09:02:57Z</time></trkpt><trkpt lat="42.11341380445903" lon="12.773987668719032"><ele>294.2</ele><time>2026-04-12T09:02:59Z</time></trkpt><trkpt lat="42.11351304295328" lon="12.774033119004704"><ele>291.79999999999995</ele><time>2026-04-12T09:03:01Z</time></trkpt><trkpt lat="42.11360384192675" lon="12.774094276962204"><ele>289.4</ele><time>2026-04-12T09:03:03Z</time></trkpt><trkpt lat="42.113694423594204" lon="12.774129190295964"><ele>287.0</ele><time>2026-04-12T09:03:05Z</time></trkpt><trkpt lat="42.11376047971845" lon="12.774157876770424"><ele>287.0</ele><time>2026-04-12T09:03:07Z</time></trkpt><trkpt lat="42.113843255270396" lon="12.774222349501759"><ele>287.0</ele><time>2026-04-12T09:03:09.999Z</time></trkpt><trkpt lat="42.11390169433247" lon="12.774254353290228"><ele>287.0</ele><time>2026-04-12T09:03:10.999Z</time></trkpt><trkpt lat="42.11398832168863" lon="12.774303317975802"><ele>287.0</ele><time>2026-04-12T09:03:11.999Z</time></trkpt><trkpt lat="42.11407252110523" lon="12.77436659097594"><ele>287.0</ele><time>2026-04-12T09:03:12.999Z</time></trkpt><trkpt lat="42.11416029054891" lon="12.774454504594699"><ele>289.75</ele><time>2026-04-12T09:03:13.999Z</time></trkpt><trkpt lat="42.11424487584045" lon="12.774565813960729"><ele>292.5</ele><time>2026-04-12T09:03:14.999Z</time></trkpt><trkpt lat="42.11432275255509" lon="12.774696775822829"><ele>295.25</ele><time>2026-04-12T09:03:15.999Z</time></trkpt><trkpt lat="42.114404084733515" lon="12.774841101921604"><ele>298.0</ele><time>2026-04-12T09:03:16.999Z</time></trkpt><trkpt lat="42.11448885978845" lon="12.774987453103215"><ele>298.0</ele><time>2026-04-12T09:03:17.999Z</time></trkpt><trkpt lat="42.11457191893443" lon="12.77513705510188"><ele>298.0</ele><time>2026-04-12T09:03:18.999Z</time></trkpt><trkpt lat="42.114660911524176" lon="12.775289488224576"><ele>298.0</ele><time>2026-04-12T09:03:19.999Z</time></trkpt><trkpt lat="42.114749108434694" lon="12.775441546892347"><ele>298.0</ele><time>2026-04-12T09:03:20.999Z</time></trkpt><trkpt lat="42.1148388311089" lon="12.775595861691311"><ele>299.75</ele><time>2026-04-12T09:03:21.999Z</time></trkpt><trkpt lat="42.114927367732015" lon="12.775753486891004"><ele>301.5</ele><time>2026-04-12T09:03:22.999Z</time></trkpt><trkpt lat="42.115016078202125" lon="12.775914976992421"><ele>303.25</ele><time>2026-04-12T09:03:23.999Z</time></trkpt><trkpt lat="42.11509797802439" lon="12.776084484913842"><ele>305.0</ele><time>2026-04-12T09:03:24.999Z</time></trkpt><trkpt lat="42.11517221273232" lon="12.776263271557768"><ele>305.0</ele><time>2026-04-12T09:03:25.999Z</time></trkpt><trkpt lat="42.11522137297181" lon="12.776463847209753"><ele>305.0</ele><time>2026-04-12T09:03:26.999Z</time></trkpt><trkpt lat="42.11528919098815" lon="12.776662938392466"><ele>305.0</ele><time>2026-04-12T09:03:27.999Z</time></trkpt><trkpt lat="42.11535700401894" lon="12.77686229805719"><ele>312.0</ele><time>2026-04-12T09:03:28.999Z</time></trkpt><trkpt lat="42.115428070329195" lon="12.777069783489049"><ele>319.0</ele><time>2026-04-12T09:03:29.999Z</time></trkpt><trkpt lat="42.11547637129069" lon="12.777270360996772"><ele>326.0</ele><time>2026-04-12T09:03:30.999Z</time></trkpt><trkpt lat="42.1155344055282" lon="12.77744979457936"><ele>326.0</ele><time>2026-04-12T09:03:31.999Z</time></trkpt><trkpt lat="42.115629766922254" lon="12.77764140596442"><ele>326.0</ele><time>2026-04-12T09:03:32.999Z</time></trkpt><trkpt lat="42.11573354975275" lon="12.77777713489917"><ele>326.0</ele><time>2026-04-12T09:03:33.999Z</time></trkpt><trkpt lat="42.11586744613565" lon="12.777859023243204"><ele>321.75</ele><time>2026-04-12T09:03:34.999Z</time></trkpt><trkpt lat="42.11600855461636" lon="12.77793160113251"><ele>317.5</ele><time>2026-04-12T09:03:35.999Z</time></trkpt><trkpt lat="42.11615187305695" lon="12.778010407555662"><ele>313.25</ele><time>2026-04-12T09:03:36.999Z</time></trkpt><trkpt lat="42.11627271652859" lon="12.778113595239702"><ele>309.0</ele><time>2026-04-12T09:03:37.999Z</time></trkpt><trkpt lat="42.11636005129954" lon="12.778242543329402"><ele>309.0</ele><time>2026-04-12T09:03:38.999Z</time></trkpt><trkpt lat="42.11643654378819" lon="12.778399013641563"><ele>309.0</ele><time>2026-04-12T09:03:39.999Z</time></trkpt><trkpt lat="42.11644063409083" lon="12.778585388141575"><ele>309.0</ele><time>2026-04-12T09:03:40.999Z</time></trkpt><trkpt lat="42.116423252649064" lon="12.778737148971073"><ele>309.0</ele><time>2026-04-12T09:03:41.999Z</time></trkpt><trkpt lat="42.11639646590972" lon="12.778913165066678"><ele>310.5</ele><time>2026-04-12T09:03:42.999Z</time></trkpt><trkpt lat="42.116376395280746" lon="12.77909815566009"><ele>312.0</ele><time>2026-04-12T09:03:43.999Z</time></trkpt><trkpt lat="42.11633538392573" lon="12.779291920358316"><ele>313.5</ele><time>2026-04-12T09:03:44.999Z</time></trkpt><trkpt lat="42.116293670023886" lon="12.779494039282454"><ele>315.0</ele><time>2026-04-12T09:03:45.999Z</time></trkpt><trkpt lat="42.11624768808089" lon="12.779703361447671"><ele>315.0</ele><time>2026-04-12T09:03:46.999Z</time></trkpt><trkpt lat="42.116199528755104" lon="12.77991776376192"><ele>315.0</ele><time>2026-04-12T09:03:47.999Z</time></trkpt><trkpt lat="42.116158911466414" lon="12.780142730833541"><ele>315.0</ele><time>2026-04-12T09:03:48.999Z</time></trkpt><trkpt lat="42.11610986723092" lon="12.780351154797225"><ele>314.0</ele><time>2026-04-12T09:03:49.999Z</time></trkpt><trkpt lat="42.11611530445448" lon="12.780584557482076"><ele>313.0</ele><time>2026-04-12T09:03:50.999Z</time></trkpt><trkpt lat="42.11610356845254" lon="12.780810543044641"><ele>312.0</ele><time>2026-04-12T09:03:51.999Z</time></trkpt><trkpt lat="42.11611455298936" lon="12.781018261029368"><ele>309.5</ele><time>2026-04-12T09:03:52.999Z</time></trkpt><trkpt lat="42.11615109078084" lon="12.781215393451372"><ele>307.0</ele><time>2026-04-12T09:03:53.999Z</time></trkpt><trkpt lat="42.11617024825344" lon="12.781395092070257"><ele>304.5</ele><time>2026-04-12T09:03:54.999Z</time></trkpt><trkpt lat="42.11614122316868" lon="12.781562750683385"><ele>302.0</ele><time>2026-04-12T09:03:55.999Z</time></trkpt><trkpt lat="42.116102386354264" lon="12.78171267825316"><ele>302.0</ele><time>2026-04-12T09:03:56.999Z</time></trkpt><trkpt lat="42.11604793665949" lon="12.781846193308773"><ele>302.0</ele><time>2026-04-12T09:03:57.999Z</time></trkpt><trkpt lat="42.11601606470951" lon="12.782010854330183"><ele>302.0</ele><time>2026-04-12T09:03:58.999Z</time></trkpt><trkpt lat="42.11592967172084" lon="12.782155187745763"><ele>302.0</ele><time>2026-04-12T09:03:59.999Z</time></trkpt><trkpt lat="42.11583339079361" lon="12.782298186921288"><ele>300.6666666666667</ele><time>2026-04-12T09:04:00.999Z</time></trkpt><trkpt lat="42.11574502209349" lon="12.78245044157468"><ele>299.3333333333333</ele><time>2026-04-12T09:04:01.999Z</time></trkpt><trkpt lat="42.11563997773001" lon="12.782599683409227"><ele>298.0</ele><time>2026-04-12T09:04:02.999Z</time></trkpt><trkpt lat="42.11554692514456" lon="12.782768068854244"><ele>298.0</ele><time>2026-04-12T09:04:03.999Z</time></trkpt><trkpt lat="42.11547410454754" lon="12.782932899114837"><ele>298.0</ele><time>2026-04-12T09:04:04.999Z</time></trkpt><trkpt lat="42.115382089670845" lon="12.7830671377901"><ele>298.0</ele><time>2026-04-12T09:04:05.999Z</time></trkpt><trkpt lat="42.11530045336857" lon="12.783197130929047"><ele>298.0</ele><time>2026-04-12T09:04:06.999Z</time></trkpt><trkpt lat="42.11520681817132" lon="12.783310864182514"><ele>298.0</ele><time>2026-04-12T09:04:07.999Z</time></trkpt><trkpt lat="42.11508477850706" lon="12.783396579063094"><ele>298.0</ele><time>2026-04-12T09:04:08.999Z</time></trkpt><trkpt lat="42.114952132511796" lon="12.7834703807223"><ele>298.0</ele><time>2026-04-12T09:04:09.999Z</time></trkpt><trkpt lat="42.11483043322181" lon="12.783553615723998"><ele>298.0</ele><time>2026-04-12T09:04:10.998Z</time></trkpt><trkpt lat="42.114714982518485" lon="12.783606436919232"><ele>302.25</ele><time>2026-04-12T09:04:11.998Z</time></trkpt><trkpt lat="42.114603376152374" lon="12.783697377843355"><ele>306.5</ele><time>2026-04-12T09:04:12.998Z</time></trkpt><trkpt lat="42.11451687470004" lon="12.783830691939182"><ele>310.75</ele><time>2026-04-12T09:04:13.998Z</time></trkpt><trkpt lat="42.1144750178197" lon="12.783998465690546"><ele>315.0</ele><time>2026-04-12T09:04:14.998Z</time></trkpt><trkpt lat="42.11447582705975" lon="12.784171663429907"><ele>312.0</ele><time>2026-04-12T09:04:15.998Z</time></trkpt><trkpt lat="42.114506665499285" lon="12.784348194011924"><ele>309.0</ele><time>2026-04-12T09:04:16.998Z</time></trkpt><trkpt lat="42.11454948911341" lon="12.784528325286647"><ele>306.0</ele><time>2026-04-12T09:04:17.998Z</time></trkpt><trkpt lat="42.11459547487635" lon="12.78471026333647"><ele>303.0</ele><time>2026-04-12T09:04:18.998Z</time></trkpt><trkpt lat="42.11465100254209" lon="12.784868262724599"><ele>303.0</ele><time>2026-04-12T09:04:19.998Z</time></trkpt><trkpt lat="42.114718780961645" lon="12.785005997171593"><ele>303.0</ele><time>2026-04-12T09:04:20.998Z</time></trkpt><trkpt lat="42.11480873154613" lon="12.785107866626438"><ele>303.0</ele><time>2026-04-12T09:04:21.998Z</time></trkpt><trkpt lat="42.114920718714814" lon="12.78516068836038"><ele>303.0</ele><time>2026-04-12T09:04:22.998Z</time></trkpt><trkpt lat="42.11504592484723" lon="12.785152284200144"><ele>301.75</ele><time>2026-04-12T09:04:23.998Z</time></trkpt><trkpt lat="42.11517352955972" lon="12.785107595824629"><ele>300.5</ele><time>2026-04-12T09:04:25Z</time></trkpt><trkpt lat="42.11529782892395" lon="12.785056105427657"><ele>299.25</ele><time>2026-04-12T09:04:26Z</time></trkpt><trkpt lat="42.115426534208645" lon="12.785005168783163"><ele>298.0</ele><time>2026-04-12T09:04:27Z</time></trkpt><trkpt lat="42.11555680212444" lon="12.784962258683528"><ele>298.0</ele><time>2026-04-12T09:04:28Z</time></trkpt><trkpt lat="42.11569023195899" lon="12.784928587573187"><ele>298.0</ele><time>2026-04-12T09:04:29Z</time></trkpt><trkpt lat="42.11582589917646" lon="12.78489551680231"><ele>298.0</ele><time>2026-04-12T09:04:30Z</time></trkpt><trkpt lat="42.11596028554993" lon="12.784878630131066"><ele>298.0</ele><time>2026-04-12T09:04:31Z</time></trkpt><trkpt lat="42.11609852000613" lon="12.784882720637608"><ele>299.75</ele><time>2026-04-12T09:04:32Z</time></trkpt><trkpt lat="42.11623836398196" lon="12.784895781018196"><ele>301.5</ele><time>2026-04-12T09:04:33Z</time></trkpt><trkpt lat="42.11638021280244" lon="12.784908196200684"><ele>303.25</ele><time>2026-04-12T09:04:34Z</time></trkpt><trkpt lat="42.11652305237986" lon="12.784917359329485"><ele>305.0</ele><time>2026-04-12T09:04:35Z</time></trkpt><trkpt lat="42.116664677532796" lon="12.784912914473601"><ele>306.5</ele><time>2026-04-12T09:04:36Z</time></trkpt><trkpt lat="42.116806784423204" lon="12.784897002375313"><ele>308.0</ele><time>2026-04-12T09:04:37Z</time></trkpt><trkpt lat="42.116951101196165" lon="12.784890410653299"><ele>309.5</ele><time>2026-04-12T09:04:38Z</time></trkpt><trkpt lat="42.11709456548059" lon="12.784906948580042"><ele>311.0</ele><time>2026-04-12T09:04:39Z</time></trkpt><trkpt lat="42.11722438459054" lon="12.784962189009182"><ele>311.0</ele><time>2026-04-12T09:04:40Z</time></trkpt><trkpt lat="42.11732275315976" lon="12.785041406359465"><ele>311.0</ele><time>2026-04-12T09:04:41Z</time></trkpt><trkpt lat="42.11742300190963" lon="12.78510396268163"><ele>311.0</ele><time>2026-04-12T09:04:42Z</time></trkpt><trkpt lat="42.11752270536735" lon="12.785106092279253"><ele>311.0</ele><time>2026-04-12T09:04:43Z</time></trkpt><trkpt lat="42.117622818346426" lon="12.785049175949075"><ele>311.0</ele><time>2026-04-12T09:04:44Z</time></trkpt><trkpt lat="42.117697103464124" lon="12.78493877139075"><ele>311.75</ele><time>2026-04-12T09:04:45Z</time></trkpt><trkpt lat="42.11774254974551" lon="12.784794788067744"><ele>312.5</ele><time>2026-04-12T09:04:46Z</time></trkpt><trkpt lat="42.11776159880515" lon="12.78463931555315"><ele>313.25</ele><time>2026-04-12T09:04:47Z</time></trkpt><trkpt lat="42.11777177510619" lon="12.78447871347343"><ele>314.0</ele><time>2026-04-12T09:04:48Z</time></trkpt><trkpt lat="42.117787329368205" lon="12.784313364885838"><ele>314.0</ele><time>2026-04-12T09:04:49Z</time></trkpt><trkpt lat="42.117805889962" lon="12.784144059466861"><ele>314.0</ele><time>2026-04-12T09:04:50Z</time></trkpt><trkpt lat="42.117826807804356" lon="12.783991635697058"><ele>314.0</ele><time>2026-04-12T09:04:51Z</time></trkpt><trkpt lat="42.117867787414845" lon="12.783874280650661"><ele>314.0</ele><time>2026-04-12T09:04:52Z</time></trkpt><trkpt lat="42.11793121141463" lon="12.783815665619153"><ele>314.0</ele><time>2026-04-12T09:04:53Z</time></trkpt><trkpt lat="42.117994103081585" lon="12.783828274263538"><ele>314.0</ele><time>2026-04-12T09:04:54Z</time></trkpt><trkpt lat="42.11803910211928" lon="12.783896723092075"><ele>314.0</ele><time>2026-04-12T09:04:55Z</time></trkpt><trkpt lat="42.11806465849468" lon="12.783994643339152"><ele>314.0</ele><time>2026-04-12T09:04:56Z</time></trkpt><trkpt lat="42.1180872758239" lon="12.78409048854205"><ele>314.0</ele><time>2026-04-12T09:04:57Z</time></trkpt><trkpt lat="42.11811846447593" lon="12.784185549554481"><ele>314.0</ele><time>2026-04-12T09:04:58Z</time></trkpt><trkpt lat="42.11815376183169" lon="12.78429135096555"><ele>314.0</ele><time>2026-04-12T09:04:59Z</time></trkpt><trkpt lat="42.11819251495879" lon="12.784408218415267"><ele>314.59999999999997</ele><time>2026-04-12T09:05:00Z</time></trkpt><trkpt lat="42.1182328808966" lon="12.78453357481652"><ele>315.2</ele><time>2026-04-12T09:05:01Z</time></trkpt><trkpt lat="42.11827488640909" lon="12.784666869581402"><ele>315.79999999999995</ele><time>2026-04-12T09:05:02Z</time></trkpt><trkpt lat="42.11832194989651" lon="12.784806505678004"><ele>316.4</ele><time>2026-04-12T09:05:03Z</time></trkpt><trkpt lat="42.11836970667396" lon="12.784955649489275"><ele>317.0</ele><time>2026-04-12T09:05:04Z</time></trkpt><trkpt lat="42.11841685016547" lon="12.78511203841243"><ele>320.25</ele><time>2026-04-12T09:05:05Z</time></trkpt><trkpt lat="42.118458461428304" lon="12.78527610503495"><ele>323.5</ele><time>2026-04-12T09:05:06Z</time></trkpt><trkpt lat="42.11849772994134" lon="12.785444383143517"><ele>326.75</ele><time>2026-04-12T09:05:07Z</time></trkpt><trkpt lat="42.118538008046905" lon="12.785608290722383"><ele>330.0</ele><time>2026-04-12T09:05:08Z</time></trkpt><trkpt lat="42.118572200090405" lon="12.785787782027612"><ele>330.0</ele><time>2026-04-12T09:05:08.999Z</time></trkpt><trkpt lat="42.118608690475355" lon="12.785962222994812"><ele>330.0</ele><time>2026-04-12T09:05:09.999Z</time></trkpt><trkpt lat="42.11864877404286" lon="12.786138732296193"><ele>330.0</ele><time>2026-04-12T09:05:10.999Z</time></trkpt><trkpt lat="42.11868740582399" lon="12.786322093012796"><ele>330.0</ele><time>2026-04-12T09:05:11.999Z</time></trkpt><trkpt lat="42.11872777465971" lon="12.78650547958326"><ele>332.0</ele><time>2026-04-12T09:05:12.999Z</time></trkpt><trkpt lat="42.11876981852822" lon="12.786692335689594"><ele>334.0</ele><time>2026-04-12T09:05:13.999Z</time></trkpt><trkpt lat="42.11881019124088" lon="12.786879739330816"><ele>336.0</ele><time>2026-04-12T09:05:14.999Z</time></trkpt><trkpt lat="42.11884858980897" lon="12.787066452647805"><ele>338.0</ele><time>2026-04-12T09:05:15.999Z</time></trkpt><trkpt lat="42.118877688458056" lon="12.787256433814653"><ele>339.75</ele><time>2026-04-12T09:05:16.999Z</time></trkpt><trkpt lat="42.118880635926935" lon="12.787445034487096"><ele>341.5</ele><time>2026-04-12T09:05:17.999Z</time></trkpt><trkpt lat="42.11885133379614" lon="12.787620856198043"><ele>343.25</ele><time>2026-04-12T09:05:18.999Z</time></trkpt><trkpt lat="42.11876873689977" lon="12.787767360106356"><ele>345.0</ele><time>2026-04-12T09:05:19.999Z</time></trkpt><trkpt lat="42.11867252087175" lon="12.787897165500329"><ele>347.25</ele><time>2026-04-12T09:05:20.999Z</time></trkpt><trkpt lat="42.11854824162384" lon="12.787987107705895"><ele>349.5</ele><time>2026-04-12T09:05:21.999Z</time></trkpt><trkpt lat="42.1184423502593" lon="12.788111838973318"><ele>351.75</ele><time>2026-04-12T09:05:22.999Z</time></trkpt><trkpt lat="42.11832425532795" lon="12.788218579063821"><ele>354.0</ele><time>2026-04-12T09:05:23.999Z</time></trkpt><trkpt lat="42.118189010057066" lon="12.788290890747998"><ele>356.25</ele><time>2026-04-12T09:05:24.999Z</time></trkpt><trkpt lat="42.11805506996441" lon="12.788363231901462"><ele>358.5</ele><time>2026-04-12T09:05:25.999Z</time></trkpt><trkpt lat="42.11791281443365" lon="12.788336366172373"><ele>360.75</ele><time>2026-04-12T09:05:26.999Z</time></trkpt><trkpt lat="42.11779388024453" lon="12.788263383153021"><ele>363.0</ele><time>2026-04-12T09:05:27.999Z</time></trkpt><trkpt lat="42.1176839296609" lon="12.788169257623109"><ele>363.0</ele><time>2026-04-12T09:05:28.999Z</time></trkpt><trkpt lat="42.11756106720096" lon="12.788074909403797"><ele>363.0</ele><time>2026-04-12T09:05:29.999Z</time></trkpt><trkpt lat="42.117443691205295" lon="12.787979408864224"><ele>363.0</ele><time>2026-04-12T09:05:30.999Z</time></trkpt><trkpt lat="42.1173179615393" lon="12.787899032587758"><ele>363.0</ele><time>2026-04-12T09:05:31.999Z</time></trkpt><trkpt lat="42.11718630441658" lon="12.787831304297391"><ele>361.75</ele><time>2026-04-12T09:05:32.999Z</time></trkpt><trkpt lat="42.11705482771639" lon="12.787773168952496"><ele>360.5</ele><time>2026-04-12T09:05:33.999Z</time></trkpt><trkpt lat="42.11692561114996" lon="12.787717889100035"><ele>359.25</ele><time>2026-04-12T09:05:34.999Z</time></trkpt><trkpt lat="42.11681328460321" lon="12.787674796593954"><ele>358.0</ele><time>2026-04-12T09:05:35.999Z</time></trkpt><trkpt lat="42.11671150229797" lon="12.787644681467611"><ele>358.0</ele><time>2026-04-12T09:05:36.999Z</time></trkpt><trkpt lat="42.11662361326229" lon="12.787636361743756"><ele>358.0</ele><time>2026-04-12T09:05:37.999Z</time></trkpt><trkpt lat="42.11654218318263" lon="12.78765767524661"><ele>358.0</ele><time>2026-04-12T09:05:38.999Z</time></trkpt><trkpt lat="42.11650707883566" lon="12.787771611613804"><ele>358.0</ele><time>2026-04-12T09:05:39.999Z</time></trkpt><trkpt lat="42.11648937108909" lon="12.787874560562555"><ele>358.0</ele><time>2026-04-12T09:05:40.999Z</time></trkpt><trkpt lat="42.11656216873556" lon="12.787961626735848"><ele>358.0</ele><time>2026-04-12T09:05:41.999Z</time></trkpt><trkpt lat="42.11662920326859" lon="12.788028354685414"><ele>361.2</ele><time>2026-04-12T09:05:42.999Z</time></trkpt><trkpt lat="42.11670263534843" lon="12.78809432092729"><ele>364.4</ele><time>2026-04-12T09:05:43.999Z</time></trkpt><trkpt lat="42.11678371122488" lon="12.78817487836861"><ele>367.59999999999997</ele><time>2026-04-12T09:05:44.999Z</time></trkpt><trkpt lat="42.11686683222468" lon="12.788262588443713"><ele>370.79999999999995</ele><time>2026-04-12T09:05:45.999Z</time></trkpt><trkpt lat="42.116950038277174" lon="12.788348358758393"><ele>374.0</ele><time>2026-04-12T09:05:46.999Z</time></trkpt><trkpt lat="42.11703268445439" lon="12.78844667896337"><ele>378.75</ele><time>2026-04-12T09:05:47.999Z</time></trkpt><trkpt lat="42.11711566031317" lon="12.788554036268824"><ele>383.5</ele><time>2026-04-12T09:05:48.999Z</time></trkpt><trkpt lat="42.11720476859686" lon="12.788674871614743"><ele>388.25</ele><time>2026-04-12T09:05:49.999Z</time></trkpt><trkpt lat="42.117289676643196" lon="12.788804846241556"><ele>393.0</ele><time>2026-04-12T09:05:50.999Z</time></trkpt><trkpt lat="42.117369060262924" lon="12.78894121829333"><ele>394.5</ele><time>2026-04-12T09:05:51.999Z</time></trkpt><trkpt lat="42.117450435143624" lon="12.789074723791492"><ele>396.0</ele><time>2026-04-12T09:05:52.999Z</time></trkpt><trkpt lat="42.11755134293173" lon="12.7892006297253"><ele>397.5</ele><time>2026-04-12T09:05:53.999Z</time></trkpt><trkpt lat="42.11765455852783" lon="12.789308524796393"><ele>399.0</ele><time>2026-04-12T09:05:54.999Z</time></trkpt><trkpt lat="42.117774613275984" lon="12.789407585237981"><ele>399.0</ele><time>2026-04-12T09:05:55.999Z</time></trkpt><trkpt lat="42.11789055969633" lon="12.78950254235967"><ele>399.0</ele><time>2026-04-12T09:05:56.999Z</time></trkpt><trkpt lat="42.11799855619308" lon="12.78957200365049"><ele>399.0</ele><time>2026-04-12T09:05:57.999Z</time></trkpt><trkpt lat="42.11808269555853" lon="12.789616652362955"><ele>399.0</ele><time>2026-04-12T09:05:58.999Z</time></trkpt><trkpt lat="42.11813444857096" lon="12.789679430293932"><ele>399.0</ele><time>2026-04-12T09:05:59.999Z</time></trkpt><trkpt lat="42.11816848631658" lon="12.789759606262464"><ele>399.0</ele><time>2026-04-12T09:06:00.999Z</time></trkpt><trkpt lat="42.118070229124406" lon="12.789874066290347"><ele>399.0</ele><time>2026-04-12T09:06:02.999Z</time></trkpt><trkpt lat="42.11798366936774" lon="12.789861107015156"><ele>399.0</ele><time>2026-04-12T09:06:03.999Z</time></trkpt><trkpt lat="42.11790930628238" lon="12.789767886194161"><ele>399.0</ele><time>2026-04-12T09:06:04.999Z</time></trkpt><trkpt lat="42.11781658446947" lon="12.789725145381563"><ele>399.0</ele><time>2026-04-12T09:06:05.999Z</time></trkpt><trkpt lat="42.11771847135607" lon="12.789666849682314"><ele>399.0</ele><time>2026-04-12T09:06:06.999Z</time></trkpt><trkpt lat="42.11761235911718" lon="12.78960973400419"><ele>399.0</ele><time>2026-04-12T09:06:07.999Z</time></trkpt><trkpt lat="42.1174964033958" lon="12.789561533715341"><ele>399.0</ele><time>2026-04-12T09:06:08.999Z</time></trkpt><trkpt lat="42.11738226071426" lon="12.789519668711408"><ele>399.0</ele><time>2026-04-12T09:06:09.999Z</time></trkpt><trkpt lat="42.11725775567615" lon="12.789482114090617"><ele>397.5</ele><time>2026-04-12T09:06:10.998Z</time></trkpt><trkpt lat="42.11713669971444" lon="12.78943019941575"><ele>396.0</ele><time>2026-04-12T09:06:11.998Z</time></trkpt><trkpt lat="42.117015926746255" lon="12.789360431778345"><ele>394.5</ele><time>2026-04-12T09:06:12.998Z</time></trkpt><trkpt lat="42.11688800103739" lon="12.789289487880698"><ele>393.0</ele><time>2026-04-12T09:06:13.998Z</time></trkpt><trkpt lat="42.116761690492915" lon="12.789218363680826"><ele>393.0</ele><time>2026-04-12T09:06:14.998Z</time></trkpt><trkpt lat="42.11663244479347" lon="12.789148612879371"><ele>393.0</ele><time>2026-04-12T09:06:15.998Z</time></trkpt><trkpt lat="42.11649885692585" lon="12.789088533895203"><ele>393.0</ele><time>2026-04-12T09:06:16.998Z</time></trkpt><trkpt lat="42.11636195216394" lon="12.789031422200408"><ele>393.0</ele><time>2026-04-12T09:06:17.998Z</time></trkpt><trkpt lat="42.11622544560355" lon="12.788983570209176"><ele>395.75</ele><time>2026-04-12T09:06:18.998Z</time></trkpt><trkpt lat="42.116086817280326" lon="12.788940040259105"><ele>398.5</ele><time>2026-04-12T09:06:19.998Z</time></trkpt><trkpt lat="42.11594343492581" lon="12.788894199529585"><ele>401.25</ele><time>2026-04-12T09:06:20.998Z</time></trkpt><trkpt lat="42.11579937984854" lon="12.788845989752168"><ele>404.0</ele><time>2026-04-12T09:06:21.998Z</time></trkpt><trkpt lat="42.11565750207051" lon="12.788798049915545"><ele>405.5</ele><time>2026-04-12T09:06:22.998Z</time></trkpt><trkpt lat="42.11551279150926" lon="12.788754201728675"><ele>407.0</ele><time>2026-04-12T09:06:23.998Z</time></trkpt><trkpt lat="42.11536823298252" lon="12.788712886310153"><ele>408.5</ele><time>2026-04-12T09:06:24.998Z</time></trkpt><trkpt lat="42.115234550253184" lon="12.788680147980394"><ele>410.0</ele><time>2026-04-12T09:06:25.998Z</time></trkpt><trkpt lat="42.11511870295919" lon="12.788646147982096"><ele>409.99999999999994</ele><time>2026-04-12T09:06:26.998Z</time></trkpt><trkpt lat="42.11501805637202" lon="12.788621925488792"><ele>410.0</ele><time>2026-04-12T09:06:27.998Z</time></trkpt><trkpt lat="42.11493122359751" lon="12.788604900379315"><ele>410.0</ele><time>2026-04-12T09:06:28.998Z</time></trkpt><trkpt lat="42.11486437274271" lon="12.788636039467303"><ele>410.0</ele><time>2026-04-12T09:06:29.998Z</time></trkpt><trkpt lat="42.11482238743438" lon="12.788719808953223"><ele>409.99999999999994</ele><time>2026-04-12T09:06:31Z</time></trkpt><trkpt lat="42.11483275281057" lon="12.788836562944462"><ele>410.0</ele><time>2026-04-12T09:06:32Z</time></trkpt><trkpt lat="42.114905693757265" lon="12.788925879436544"><ele>410.0</ele><time>2026-04-12T09:06:33Z</time></trkpt><trkpt lat="42.11499366640945" lon="12.788979404766863"><ele>410.0</ele><time>2026-04-12T09:06:34Z</time></trkpt><trkpt lat="42.115087639548534" lon="12.789032610654319"><ele>410.0</ele><time>2026-04-12T09:06:35Z</time></trkpt><trkpt lat="42.11518726173849" lon="12.789091906960504"><ele>410.0</ele><time>2026-04-12T09:06:36Z</time></trkpt><trkpt lat="42.1152879454547" lon="12.789162858128426"><ele>410.0</ele><time>2026-04-12T09:06:37Z</time></trkpt><trkpt lat="42.11538882292616" lon="12.789240630510658"><ele>410.0</ele><time>2026-04-12T09:06:38Z</time></trkpt><trkpt lat="42.115495284571274" lon="12.789333488097792"><ele>410.0</ele><time>2026-04-12T09:06:39Z</time></trkpt><trkpt lat="42.11559866172991" lon="12.78943341174282"><ele>410.0</ele><time>2026-04-12T09:06:40Z</time></trkpt><trkpt lat="42.11570018053957" lon="12.789539938806852"><ele>410.0</ele><time>2026-04-12T09:06:41Z</time></trkpt><trkpt lat="42.11579974594133" lon="12.789650792385292"><ele>414.25</ele><time>2026-04-12T09:06:42Z</time></trkpt><trkpt lat="42.11590699500528" lon="12.789758910105505"><ele>418.5</ele><time>2026-04-12T09:06:43Z</time></trkpt><trkpt lat="42.116016061166484" lon="12.789863392674834"><ele>422.75</ele><time>2026-04-12T09:06:44Z</time></trkpt><trkpt lat="42.116130662456634" lon="12.789970390470051"><ele>427.0</ele><time>2026-04-12T09:06:45Z</time></trkpt><trkpt lat="42.11624395847098" lon="12.790074880996109"><ele>428.25</ele><time>2026-04-12T09:06:46Z</time></trkpt><trkpt lat="42.11636154973418" lon="12.790179792524734"><ele>429.5</ele><time>2026-04-12T09:06:47Z</time></trkpt><trkpt lat="42.116474250520135" lon="12.790284299200499"><ele>430.75</ele><time>2026-04-12T09:06:48Z</time></trkpt><trkpt lat="42.11657965604324" lon="12.790404204221518"><ele>432.0</ele><time>2026-04-12T09:06:49Z</time></trkpt><trkpt lat="42.11668477500323" lon="12.790540323967946"><ele>432.0</ele><time>2026-04-12T09:06:50Z</time></trkpt><trkpt lat="42.116785619130255" lon="12.790682566678704"><ele>432.0</ele><time>2026-04-12T09:06:51Z</time></trkpt><trkpt lat="42.11688684236275" lon="12.790824711075977"><ele>432.0</ele><time>2026-04-12T09:06:52Z</time></trkpt><trkpt lat="42.11697648291632" lon="12.79096413463126"><ele>432.0</ele><time>2026-04-12T09:06:53Z</time></trkpt><trkpt lat="42.11709372389411" lon="12.791086888559777"><ele>434.25</ele><time>2026-04-12T09:06:54Z</time></trkpt><trkpt lat="42.11721651595327" lon="12.791193522948637"><ele>436.5</ele><time>2026-04-12T09:06:55Z</time></trkpt><trkpt lat="42.117353109419376" lon="12.79127835177207"><ele>438.75</ele><time>2026-04-12T09:06:56Z</time></trkpt><trkpt lat="42.117490560184514" lon="12.7913354238197"><ele>441.0</ele><time>2026-04-12T09:06:57Z</time></trkpt><trkpt lat="42.11760632675739" lon="12.791397208376159"><ele>441.0</ele><time>2026-04-12T09:06:58Z</time></trkpt><trkpt lat="42.117714833515315" lon="12.791441039545827"><ele>441.0</ele><time>2026-04-12T09:06:59Z</time></trkpt><trkpt lat="42.11777124431264" lon="12.791521572102857"><ele>441.0</ele><time>2026-04-12T09:07:00Z</time></trkpt><trkpt lat="42.117788878582104" lon="12.79161062540535"><ele>441.0</ele><time>2026-04-12T09:07:01Z</time></trkpt><trkpt lat="42.117682680296205" lon="12.791654582953678"><ele>441.0</ele><time>2026-04-12T09:07:03Z</time></trkpt><trkpt lat="42.117607297420875" lon="12.791627916598863"><ele>441.0</ele><time>2026-04-12T09:07:04Z</time></trkpt><trkpt lat="42.11753181519894" lon="12.791608128306091"><ele>441.0</ele><time>2026-04-12T09:07:05Z</time></trkpt><trkpt lat="42.11744671393452" lon="12.791583892550104"><ele>441.0</ele><time>2026-04-12T09:07:06Z</time></trkpt><trkpt lat="42.11735485231369" lon="12.791550544008857"><ele>441.0</ele><time>2026-04-12T09:07:07Z</time></trkpt><trkpt lat="42.11725146834195" lon="12.791523184310153"><ele>441.0</ele><time>2026-04-12T09:07:08Z</time></trkpt><trkpt lat="42.117142029882615" lon="12.791497729711175"><ele>443.25</ele><time>2026-04-12T09:07:09Z</time></trkpt><trkpt lat="42.11702525456633" lon="12.791471024593449"><ele>445.5</ele><time>2026-04-12T09:07:10Z</time></trkpt><trkpt lat="42.116907782731104" lon="12.791445302125966"><ele>447.75</ele><time>2026-04-12T09:07:11Z</time></trkpt><trkpt lat="42.116782303633705" lon="12.791425132536682"><ele>450.0</ele><time>2026-04-12T09:07:12Z</time></trkpt><trkpt lat="42.11665421102614" lon="12.791402035969249"><ele>450.75</ele><time>2026-04-12T09:07:13Z</time></trkpt><trkpt lat="42.11652391315656" lon="12.791377114461918"><ele>451.5</ele><time>2026-04-12T09:07:14Z</time></trkpt><trkpt lat="42.11639107645713" lon="12.791357396071126"><ele>452.25</ele><time>2026-04-12T09:07:15Z</time></trkpt><trkpt lat="42.116254626115854" lon="12.791334148393045"><ele>453.0</ele><time>2026-04-12T09:07:16Z</time></trkpt><trkpt lat="42.116120804359255" lon="12.791307921537552"><ele>453.0</ele><time>2026-04-12T09:07:17Z</time></trkpt><trkpt lat="42.11598056655669" lon="12.791275063613208"><ele>453.0</ele><time>2026-04-12T09:07:17.999Z</time></trkpt><trkpt lat="42.115851896926095" lon="12.791235325653671"><ele>453.0</ele><time>2026-04-12T09:07:18.999Z</time></trkpt><trkpt lat="42.11574467372322" lon="12.79120383780258"><ele>453.0</ele><time>2026-04-12T09:07:19.999Z</time></trkpt><trkpt lat="42.11564145387197" lon="12.791195129804859"><ele>450.25</ele><time>2026-04-12T09:07:20.999Z</time></trkpt><trkpt lat="42.115536271367574" lon="12.791224812693025"><ele>447.5</ele><time>2026-04-12T09:07:21.999Z</time></trkpt><trkpt lat="42.115446623417945" lon="12.791321469468787"><ele>444.75</ele><time>2026-04-12T09:07:22.999Z</time></trkpt><trkpt lat="42.115402696168104" lon="12.791465192538585"><ele>442.0</ele><time>2026-04-12T09:07:23.999Z</time></trkpt><trkpt lat="42.11541688394152" lon="12.7916240811114"><ele>442.0</ele><time>2026-04-12T09:07:24.999Z</time></trkpt><trkpt lat="42.11544584607576" lon="12.79177444465297"><ele>442.0</ele><time>2026-04-12T09:07:25.999Z</time></trkpt><trkpt lat="42.11546547157276" lon="12.791929653855853"><ele>442.0</ele><time>2026-04-12T09:07:26.999Z</time></trkpt><trkpt lat="42.11547695409276" lon="12.79208770530129"><ele>442.0</ele><time>2026-04-12T09:07:27.999Z</time></trkpt><trkpt lat="42.11547602965767" lon="12.792258886739726"><ele>443.0</ele><time>2026-04-12T09:07:28.999Z</time></trkpt><trkpt lat="42.115465781519404" lon="12.792426657264006"><ele>444.0</ele><time>2026-04-12T09:07:29.999Z</time></trkpt><trkpt lat="42.11544272031776" lon="12.792595909459104"><ele>445.0</ele><time>2026-04-12T09:07:30.999Z</time></trkpt><trkpt lat="42.1154140157193" lon="12.792765892107138"><ele>446.0</ele><time>2026-04-12T09:07:31.999Z</time></trkpt><trkpt lat="42.115378012654695" lon="12.792942427746324"><ele>448.75</ele><time>2026-04-12T09:07:32.999Z</time></trkpt><trkpt lat="42.11533610761888" lon="12.79311938870665"><ele>451.5</ele><time>2026-04-12T09:07:33.999Z</time></trkpt><trkpt lat="42.11528600074216" lon="12.793289192172576"><ele>454.25</ele><time>2026-04-12T09:07:34.999Z</time></trkpt><trkpt lat="42.11523444265566" lon="12.793461970231633"><ele>457.0</ele><time>2026-04-12T09:07:35.999Z</time></trkpt><trkpt lat="42.11518705615797" lon="12.793632271821954"><ele>460.75</ele><time>2026-04-12T09:07:36.999Z</time></trkpt><trkpt lat="42.11513083229453" lon="12.793799963775644"><ele>464.5</ele><time>2026-04-12T09:07:37.999Z</time></trkpt><trkpt lat="42.11507156863125" lon="12.793971654658163"><ele>468.25</ele><time>2026-04-12T09:07:38.999Z</time></trkpt><trkpt lat="42.11501205534275" lon="12.794143784418997"><ele>472.0</ele><time>2026-04-12T09:07:39.999Z</time></trkpt><trkpt lat="42.11494734772777" lon="12.794317423955343"><ele>469.5</ele><time>2026-04-12T09:07:40.999Z</time></trkpt><trkpt lat="42.11486006371372" lon="12.794473879947006"><ele>467.0</ele><time>2026-04-12T09:07:41.999Z</time></trkpt><trkpt lat="42.11475001511708" lon="12.794608566252126"><ele>464.5</ele><time>2026-04-12T09:07:42.999Z</time></trkpt><trkpt lat="42.11463152834107" lon="12.794725519279394"><ele>462.0</ele><time>2026-04-12T09:07:43.999Z</time></trkpt><trkpt lat="42.114521934780605" lon="12.79485924830859"><ele>462.0</ele><time>2026-04-12T09:07:44.999Z</time></trkpt><trkpt lat="42.114437291983805" lon="12.79501513267452"><ele>462.0</ele><time>2026-04-12T09:07:45.999Z</time></trkpt><trkpt lat="42.11437592990678" lon="12.795192711881821"><ele>462.0</ele><time>2026-04-12T09:07:46.999Z</time></trkpt><trkpt lat="42.114329595115876" lon="12.795378946605739"><ele>462.0</ele><time>2026-04-12T09:07:47.999Z</time></trkpt><trkpt lat="42.11428908329586" lon="12.7955648034069"><ele>466.5</ele><time>2026-04-12T09:07:48.999Z</time></trkpt><trkpt lat="42.114250316109754" lon="12.795749579062184"><ele>471.0</ele><time>2026-04-12T09:07:49.999Z</time></trkpt><trkpt lat="42.11419931881519" lon="12.795933611733748"><ele>475.5</ele><time>2026-04-12T09:07:50.999Z</time></trkpt><trkpt lat="42.11414040358052" lon="12.796112704008284"><ele>480.0</ele><time>2026-04-12T09:07:51.999Z</time></trkpt><trkpt lat="42.11407537424788" lon="12.796284107123904"><ele>478.75</ele><time>2026-04-12T09:07:52.999Z</time></trkpt><trkpt lat="42.11400304375916" lon="12.796452000589213"><ele>477.5</ele><time>2026-04-12T09:07:53.999Z</time></trkpt><trkpt lat="42.11392904579961" lon="12.796611977620719"><ele>476.25</ele><time>2026-04-12T09:07:54.999Z</time></trkpt><trkpt lat="42.11385265210474" lon="12.796776070070441"><ele>475.0</ele><time>2026-04-12T09:07:55.999Z</time></trkpt><trkpt lat="42.11377825910937" lon="12.796944098846255"><ele>477.75</ele><time>2026-04-12T09:07:56.999Z</time></trkpt><trkpt lat="42.11371219939395" lon="12.797121036358465"><ele>480.5</ele><time>2026-04-12T09:07:57.999Z</time></trkpt><trkpt lat="42.11365823844159" lon="12.797304720222112"><ele>483.25</ele><time>2026-04-12T09:07:58.999Z</time></trkpt><trkpt lat="42.11360677940948" lon="12.797486218743476"><ele>486.0</ele><time>2026-04-12T09:07:59.999Z</time></trkpt><trkpt lat="42.11355028945845" lon="12.797668179105349"><ele>487.0</ele><time>2026-04-12T09:08:00.999Z</time></trkpt><trkpt lat="42.11351226955278" lon="12.797853035838953"><ele>488.0</ele><time>2026-04-12T09:08:01.999Z</time></trkpt><trkpt lat="42.11351187997623" lon="12.798048889229495"><ele>489.0</ele><time>2026-04-12T09:08:02.999Z</time></trkpt><trkpt lat="42.11355835740676" lon="12.798232722056136"><ele>490.0</ele><time>2026-04-12T09:08:03.999Z</time></trkpt><trkpt lat="42.11363694922562" lon="12.798396498196006"><ele>491.5</ele><time>2026-04-12T09:08:04.999Z</time></trkpt><trkpt lat="42.113744270048954" lon="12.79852294721767"><ele>493.0</ele><time>2026-04-12T09:08:05.999Z</time></trkpt><trkpt lat="42.1138672610752" lon="12.798627286492184"><ele>494.5</ele><time>2026-04-12T09:08:06.999Z</time></trkpt><trkpt lat="42.114003834304" lon="12.798698766174493"><ele>496.0</ele><time>2026-04-12T09:08:07.999Z</time></trkpt><trkpt lat="42.11414716612151" lon="12.798730675320225"><ele>496.75</ele><time>2026-04-12T09:08:08.999Z</time></trkpt><trkpt lat="42.11427766569596" lon="12.798694662057986"><ele>497.5</ele><time>2026-04-12T09:08:09.999Z</time></trkpt><trkpt lat="42.11439261569317" lon="12.798596355289998"><ele>498.25</ele><time>2026-04-12T09:08:10.999Z</time></trkpt><trkpt lat="42.11448221861155" lon="12.798479052084067"><ele>499.0</ele><time>2026-04-12T09:08:11.999Z</time></trkpt><trkpt lat="42.1145555799475" lon="12.798375980010732"><ele>499.79999999999995</ele><time>2026-04-12T09:08:12.999Z</time></trkpt><trkpt lat="42.11461450772852" lon="12.798303932416212"><ele>500.59999999999997</ele><time>2026-04-12T09:08:13.999Z</time></trkpt><trkpt lat="42.11468921473174" lon="12.79822947920166"><ele>501.4</ele><time>2026-04-12T09:08:15.999Z</time></trkpt><trkpt lat="42.11469089548384" lon="12.798115096775314"><ele>502.2</ele><time>2026-04-12T09:09:11Z</time></trkpt><trkpt lat="42.114590004643524" lon="12.79820118375433"><ele>503.0</ele><time>2026-04-12T09:09:13Z</time></trkpt><trkpt lat="42.11453343531558" lon="12.798320488843762"><ele>503.0</ele><time>2026-04-12T09:09:14Z</time></trkpt><trkpt lat="42.114467253361276" lon="12.79843114704099"><ele>503.0</ele><time>2026-04-12T09:09:15Z</time></trkpt><trkpt lat="42.11438855770793" lon="12.79854121827564"><ele>503.0</ele><time>2026-04-12T09:09:16Z</time></trkpt><trkpt lat="42.11429308704153" lon="12.79864137089849"><ele>503.0</ele><time>2026-04-12T09:09:17Z</time></trkpt><trkpt lat="42.11418729366742" lon="12.79869036610014"><ele>501.25</ele><time>2026-04-12T09:09:18Z</time></trkpt><trkpt lat="42.11407149622849" lon="12.79870570243885"><ele>499.5</ele><time>2026-04-12T09:09:19Z</time></trkpt><trkpt lat="42.11395870846366" lon="12.798611550971298"><ele>497.75</ele><time>2026-04-12T09:09:19.999Z</time></trkpt><trkpt lat="42.1138432409517" lon="12.798533167641677"><ele>496.0</ele><time>2026-04-12T09:09:20.999Z</time></trkpt><trkpt lat="42.1137050328913" lon="12.798434154222905"><ele>494.5</ele><time>2026-04-12T09:09:21.999Z</time></trkpt><trkpt lat="42.11360085325791" lon="12.798276903445375"><ele>493.0</ele><time>2026-04-12T09:09:22.999Z</time></trkpt><trkpt lat="42.11355368136302" lon="12.798087080394609"><ele>491.5</ele><time>2026-04-12T09:09:23.999Z</time></trkpt><trkpt lat="42.1135484793134" lon="12.79790873102669"><ele>490.0</ele><time>2026-04-12T09:09:24.999Z</time></trkpt><trkpt lat="42.11357721703856" lon="12.797713379789272"><ele>488.6666666666667</ele><time>2026-04-12T09:09:25.999Z</time></trkpt><trkpt lat="42.11360996844559" lon="12.797518312444623"><ele>487.33333333333337</ele><time>2026-04-12T09:09:26.999Z</time></trkpt><trkpt lat="42.113688375013375" lon="12.797323517668296"><ele>486.0</ele><time>2026-04-12T09:09:27.999Z</time></trkpt><trkpt lat="42.11375998908318" lon="12.797116957427622"><ele>486.0</ele><time>2026-04-12T09:09:28.999Z</time></trkpt><trkpt lat="42.11383753610668" lon="12.79690616710983"><ele>486.0</ele><time>2026-04-12T09:09:29.999Z</time></trkpt><trkpt lat="42.11393095236387" lon="12.796704032500827"><ele>486.0</ele><time>2026-04-12T09:09:30.999Z</time></trkpt><trkpt lat="42.11402965450661" lon="12.796497469671458"><ele>484.0</ele><time>2026-04-12T09:09:31.999Z</time></trkpt><trkpt lat="42.11412823091616" lon="12.796280785780993"><ele>482.0</ele><time>2026-04-12T09:09:32.999Z</time></trkpt><trkpt lat="42.114213890890774" lon="12.796057354351886"><ele>480.0</ele><time>2026-04-12T09:09:33.999Z</time></trkpt><trkpt lat="42.11426997860845" lon="12.795808441951861"><ele>480.0</ele><time>2026-04-12T09:09:34.999Z</time></trkpt><trkpt lat="42.11431250164686" lon="12.795568520073186"><ele>480.0</ele><time>2026-04-12T09:09:35.999Z</time></trkpt><trkpt lat="42.11434915601186" lon="12.795355238799687"><ele>480.0</ele><time>2026-04-12T09:09:36.999Z</time></trkpt><trkpt lat="42.11440884024491" lon="12.795156146005313"><ele>474.0</ele><time>2026-04-12T09:09:37.999Z</time></trkpt><trkpt lat="42.11449362041433" lon="12.79496750594063"><ele>468.0</ele><time>2026-04-12T09:09:38.999Z</time></trkpt><trkpt lat="42.114591450888575" lon="12.794795979524077"><ele>462.0</ele><time>2026-04-12T09:09:39.999Z</time></trkpt><trkpt lat="42.11473996594016" lon="12.794660387227779"><ele>462.0</ele><time>2026-04-12T09:09:40.999Z</time></trkpt><trkpt lat="42.11486885261101" lon="12.794517748576904"><ele>462.0</ele><time>2026-04-12T09:09:41.999Z</time></trkpt><trkpt lat="42.11497895441067" lon="12.794354891813665"><ele>462.0</ele><time>2026-04-12T09:09:42.999Z</time></trkpt><trkpt lat="42.115059402562935" lon="12.794148847900829"><ele>460.33333333333337</ele><time>2026-04-12T09:09:43.999Z</time></trkpt><trkpt lat="42.1151235835988" lon="12.793923264591124"><ele>458.6666666666667</ele><time>2026-04-12T09:09:44.999Z</time></trkpt><trkpt lat="42.1151881756095" lon="12.793692300588583"><ele>457.0</ele><time>2026-04-12T09:09:45.999Z</time></trkpt><trkpt lat="42.11526249363727" lon="12.7934691436716"><ele>457.0</ele><time>2026-04-12T09:09:46.999Z</time></trkpt><trkpt lat="42.11534145034806" lon="12.793240856950046"><ele>457.0</ele><time>2026-04-12T09:09:47.999Z</time></trkpt><trkpt lat="42.115405089786265" lon="12.793006021715843"><ele>457.0</ele><time>2026-04-12T09:09:48.999Z</time></trkpt><trkpt lat="42.115452457801574" lon="12.792772170717432"><ele>453.33333333333337</ele><time>2026-04-12T09:09:49.999Z</time></trkpt><trkpt lat="42.115488877294" lon="12.792554607725307"><ele>449.66666666666663</ele><time>2026-04-12T09:09:50.999Z</time></trkpt><trkpt lat="42.11550777240644" lon="12.79232508107325"><ele>446.0</ele><time>2026-04-12T09:09:51.999Z</time></trkpt><trkpt lat="42.11550331868728" lon="12.792089990816907"><ele>446.0</ele><time>2026-04-12T09:09:52.999Z</time></trkpt><trkpt lat="42.11548609828416" lon="12.791875205912449"><ele>446.0</ele><time>2026-04-12T09:09:53.999Z</time></trkpt><trkpt lat="42.1154594359877" lon="12.791703469770445"><ele>446.0</ele><time>2026-04-12T09:09:54.999Z</time></trkpt><trkpt lat="42.11543430728773" lon="12.791565019729354"><ele>446.0</ele><time>2026-04-12T09:09:55.999Z</time></trkpt><trkpt lat="42.115425557337645" lon="12.791439626665763"><ele>445.0</ele><time>2026-04-12T09:09:56.999Z</time></trkpt><trkpt lat="42.11546249396928" lon="12.79132088947847"><ele>444.0</ele><time>2026-04-12T09:09:57.999Z</time></trkpt><trkpt lat="42.11554910279942" lon="12.791237457029007"><ele>443.0</ele><time>2026-04-12T09:09:58.999Z</time></trkpt><trkpt lat="42.11567566046866" lon="12.791212254274127"><ele>442.0</ele><time>2026-04-12T09:09:59.999Z</time></trkpt><trkpt lat="42.11580444731617" lon="12.791278682268235"><ele>444.75</ele><time>2026-04-12T09:10:00.999Z</time></trkpt><trkpt lat="42.11593777214321" lon="12.791304370132986"><ele>447.5</ele><time>2026-04-12T09:10:01.999Z</time></trkpt><trkpt lat="42.11608695238387" lon="12.791348601377248"><ele>450.25</ele><time>2026-04-12T09:10:02.999Z</time></trkpt><trkpt lat="42.11623824580288" lon="12.791381886146295"><ele>453.0</ele><time>2026-04-12T09:10:03.999Z</time></trkpt><trkpt lat="42.116397768312574" lon="12.791408856587584"><ele>453.0</ele><time>2026-04-12T09:10:04.999Z</time></trkpt><trkpt lat="42.116560244826" lon="12.791433248349305"><ele>453.0</ele><time>2026-04-12T09:10:05.999Z</time></trkpt><trkpt lat="42.116735601855176" lon="12.791462963948188"><ele>453.0</ele><time>2026-04-12T09:10:06.999Z</time></trkpt><trkpt lat="42.116919841719515" lon="12.791490310840087"><ele>452.0</ele><time>2026-04-12T09:10:07.999Z</time></trkpt><trkpt lat="42.11709786706957" lon="12.791525908834336"><ele>451.0</ele><time>2026-04-12T09:10:08.999Z</time></trkpt><trkpt lat="42.11727015793503" lon="12.79157499661358"><ele>450.0</ele><time>2026-04-12T09:10:09.999Z</time></trkpt><trkpt lat="42.11742722341224" lon="12.791621090843584"><ele>448.2</ele><time>2026-04-12T09:10:10.999Z</time></trkpt><trkpt lat="42.117572929570535" lon="12.791660876085691"><ele>446.4</ele><time>2026-04-12T09:10:11.999Z</time></trkpt><trkpt lat="42.11769032144845" lon="12.791687127974358"><ele>444.6</ele><time>2026-04-12T09:10:12.999Z</time></trkpt><trkpt lat="42.11777827182463" lon="12.791698947940302"><ele>442.8</ele><time>2026-04-12T09:10:13.999Z</time></trkpt><trkpt lat="42.11783975040655" lon="12.791649439894487"><ele>441.0</ele><time>2026-04-12T09:10:14.999Z</time></trkpt><trkpt lat="42.117861939370414" lon="12.791526094351038"><ele>441.0</ele><time>2026-04-12T09:10:15.999Z</time></trkpt><trkpt lat="42.11780130550676" lon="12.791400400975862"><ele>441.0</ele><time>2026-04-12T09:10:16.999Z</time></trkpt><trkpt lat="42.117692578032866" lon="12.791343275785506"><ele>441.0</ele><time>2026-04-12T09:10:17.999Z</time></trkpt><trkpt lat="42.11758196059497" lon="12.791311123533319"><ele>441.0</ele><time>2026-04-12T09:10:18.999Z</time></trkpt><trkpt lat="42.11746345037365" lon="12.791257643870305"><ele>443.25</ele><time>2026-04-12T09:10:19.999Z</time></trkpt><trkpt lat="42.11733729601193" lon="12.791196709735186"><ele>445.5</ele><time>2026-04-12T09:10:20.999Z</time></trkpt><trkpt lat="42.117203826921106" lon="12.791109271605778"><ele>447.75</ele><time>2026-04-12T09:10:21.998Z</time></trkpt><trkpt lat="42.11707278302953" lon="12.790993004185275"><ele>450.0</ele><time>2026-04-12T09:10:22.998Z</time></trkpt><trkpt lat="42.116938924498804" lon="12.790843331801337"><ele>444.0</ele><time>2026-04-12T09:10:23.998Z</time></trkpt><trkpt lat="42.116826526879315" lon="12.790666709404213"><ele>438.0</ele><time>2026-04-12T09:10:24.998Z</time></trkpt><trkpt lat="42.11670953055167" lon="12.790482463179654"><ele>432.0</ele><time>2026-04-12T09:10:25.998Z</time></trkpt><trkpt lat="42.116582737398254" lon="12.790315931706443"><ele>430.75</ele><time>2026-04-12T09:10:26.998Z</time></trkpt><trkpt lat="42.1164526513576" lon="12.79017576832403"><ele>429.5</ele><time>2026-04-12T09:10:27.998Z</time></trkpt><trkpt lat="42.116349825966196" lon="12.790091847851349"><ele>428.25</ele><time>2026-04-12T09:10:28.998Z</time></trkpt><trkpt lat="42.11627728042054" lon="12.790044924165368"><ele>427.0</ele><time>2026-04-12T09:10:29.998Z</time></trkpt><trkpt lat="42.11619934374682" lon="12.789969687261836"><ele>427.00000000000006</ele><time>2026-04-12T09:10:31.998Z</time></trkpt><trkpt lat="42.116138701480004" lon="12.789914022606808"><ele>427.0</ele><time>2026-04-12T09:10:34.998Z</time></trkpt><trkpt lat="42.11607166862967" lon="12.789855225778386"><ele>427.0</ele><time>2026-04-12T09:10:38.998Z</time></trkpt><trkpt lat="42.11612596098861" lon="12.789915405179416"><ele>427.0</ele><time>2026-04-12T09:10:41.998Z</time></trkpt><trkpt lat="42.11617295282508" lon="12.789998042342116"><ele>427.00000000000006</ele><time>2026-04-12T09:10:43Z</time></trkpt><trkpt lat="42.116244801498645" lon="12.79005117421306"><ele>427.0</ele><time>2026-04-12T09:10:44Z</time></trkpt><trkpt lat="42.116313480189284" lon="12.790116453697912"><ele>428.0</ele><time>2026-04-12T09:10:45Z</time></trkpt><trkpt lat="42.116373799261545" lon="12.790192347146247"><ele>429.00000000000006</ele><time>2026-04-12T09:10:46Z</time></trkpt><trkpt lat="42.11646186116749" lon="12.790265224130604"><ele>430.00000000000006</ele><time>2026-04-12T09:10:47Z</time></trkpt><trkpt lat="42.116542129696285" lon="12.790347003727787"><ele>431.0</ele><time>2026-04-12T09:10:48Z</time></trkpt><trkpt lat="42.11662204699757" lon="12.790446127251222"><ele>432.0</ele><time>2026-04-12T09:10:49Z</time></trkpt><trkpt lat="42.11669560238708" lon="12.7905566694344"><ele>432.0</ele><time>2026-04-12T09:10:50Z</time></trkpt><trkpt lat="42.11677299710761" lon="12.790660610529239"><ele>432.00000000000006</ele><time>2026-04-12T09:10:51Z</time></trkpt><trkpt lat="42.11684725988572" lon="12.790773780714625"><ele>432.00000000000006</ele><time>2026-04-12T09:10:52Z</time></trkpt><trkpt lat="42.11692736625123" lon="12.790882595415605"><ele>432.0</ele><time>2026-04-12T09:10:53Z</time></trkpt><trkpt lat="42.117006880227805" lon="12.790983970823035"><ele>432.0</ele><time>2026-04-12T09:10:54Z</time></trkpt><trkpt lat="42.11708530782441" lon="12.791074224791556"><ele>433.8</ele><time>2026-04-12T09:10:55Z</time></trkpt><trkpt lat="42.11717268444011" lon="12.791152104008843"><ele>435.6</ele><time>2026-04-12T09:10:56Z</time></trkpt><trkpt lat="42.117256779637174" lon="12.791208580778523"><ele>437.40000000000003</ele><time>2026-04-12T09:10:57Z</time></trkpt><trkpt lat="42.11732908916623" lon="12.791272870195936"><ele>439.20000000000005</ele><time>2026-04-12T09:10:58Z</time></trkpt><trkpt lat="42.11741567356402" lon="12.791316492147478"><ele>441.0</ele><time>2026-04-12T09:10:59Z</time></trkpt><trkpt lat="42.11751905521594" lon="12.791359774705413"><ele>441.0</ele><time>2026-04-12T09:11:00Z</time></trkpt><trkpt lat="42.11761388156271" lon="12.791402113011337"><ele>441.0</ele><time>2026-04-12T09:11:01Z</time></trkpt><trkpt lat="42.11769503370207" lon="12.791444793009816"><ele>441.0</ele><time>2026-04-12T09:11:02Z</time></trkpt><trkpt lat="42.117763223637155" lon="12.791489824257432"><ele>441.0</ele><time>2026-04-12T09:11:03Z</time></trkpt><trkpt lat="42.117790867666685" lon="12.79162351888036"><ele>441.0</ele><time>2026-04-12T09:11:05Z</time></trkpt><trkpt lat="42.11772183732021" lon="12.791665342734285"><ele>441.0</ele><time>2026-04-12T09:11:06Z</time></trkpt><trkpt lat="42.11763248294831" lon="12.791634393256139"><ele>441.0</ele><time>2026-04-12T09:11:07Z</time></trkpt><trkpt lat="42.11755469306929" lon="12.791613510742962"><ele>441.0</ele><time>2026-04-12T09:11:08Z</time></trkpt><trkpt lat="42.11747193249785" lon="12.791600191954732"><ele>441.0</ele><time>2026-04-12T09:11:09Z</time></trkpt><trkpt lat="42.117379965372486" lon="12.791556888687891"><ele>441.0</ele><time>2026-04-12T09:11:10Z</time></trkpt><trkpt lat="42.11727542593617" lon="12.791534671483648"><ele>441.0</ele><time>2026-04-12T09:11:11Z</time></trkpt><trkpt lat="42.11716781106379" lon="12.79151003143825"><ele>442.8</ele><time>2026-04-12T09:11:12Z</time></trkpt><trkpt lat="42.11706643460087" lon="12.791490425352766"><ele>444.6</ele><time>2026-04-12T09:11:13Z</time></trkpt><trkpt lat="42.116963970230344" lon="12.791466874168124"><ele>446.4</ele><time>2026-04-12T09:11:14Z</time></trkpt><trkpt lat="42.11684941946692" lon="12.791446927075546"><ele>448.2</ele><time>2026-04-12T09:11:15Z</time></trkpt><trkpt lat="42.116732067609554" lon="12.791421031360564"><ele>450.0</ele><time>2026-04-12T09:11:16Z</time></trkpt><trkpt lat="42.11662534371877" lon="12.791398500442291"><ele>450.6</ele><time>2026-04-12T09:11:17Z</time></trkpt><trkpt lat="42.11651391574225" lon="12.791380345305539"><ele>451.2</ele><time>2026-04-12T09:11:18Z</time></trkpt><trkpt lat="42.11641164924395" lon="12.791377083854611"><ele>451.79999999999995</ele><time>2026-04-12T09:11:19Z</time></trkpt><trkpt lat="42.11630677304285" lon="12.791367652842434"><ele>452.4</ele><time>2026-04-12T09:11:20Z</time></trkpt><trkpt lat="42.11620511290112" lon="12.791347540818927"><ele>453.0</ele><time>2026-04-12T09:11:21Z</time></trkpt><trkpt lat="42.11610763216828" lon="12.791320730211297"><ele>453.0</ele><time>2026-04-12T09:11:22Z</time></trkpt><trkpt lat="42.116007065915916" lon="12.791296806730653"><ele>453.0</ele><time>2026-04-12T09:11:23Z</time></trkpt><trkpt lat="42.11592610658837" lon="12.791265647865645"><ele>453.0</ele><time>2026-04-12T09:11:24Z</time></trkpt><trkpt lat="42.115853104823586" lon="12.791237934581785"><ele>453.0</ele><time>2026-04-12T09:11:25Z</time></trkpt><trkpt lat="42.115779513333635" lon="12.791217122136125"><ele>453.0</ele><time>2026-04-12T09:11:26Z</time></trkpt><trkpt lat="42.1157056284614" lon="12.791203624229338"><ele>453.0</ele><time>2026-04-12T09:11:26.999Z</time></trkpt><trkpt lat="42.115625681218006" lon="12.791202037760115"><ele>451.1666666666667</ele><time>2026-04-12T09:11:27.999Z</time></trkpt><trkpt lat="42.115554593134874" lon="12.791216688122082"><ele>449.33333333333337</ele><time>2026-04-12T09:11:28.999Z</time></trkpt><trkpt lat="42.11548514301129" lon="12.791257793050045"><ele>447.5</ele><time>2026-04-12T09:11:29.999Z</time></trkpt><trkpt lat="42.11543062109904" lon="12.791327479593626"><ele>445.6666666666667</ele><time>2026-04-12T09:11:30.999Z</time></trkpt><trkpt lat="42.115394438671274" lon="12.79142454113974"><ele>443.83333333333337</ele><time>2026-04-12T09:11:31.999Z</time></trkpt><trkpt lat="42.1153876050935" lon="12.791532564928765"><ele>442.0</ele><time>2026-04-12T09:11:32.999Z</time></trkpt><trkpt lat="42.115411210586494" lon="12.791645818216354"><ele>442.0</ele><time>2026-04-12T09:11:33.999Z</time></trkpt><trkpt lat="42.11543980115308" lon="12.791764761426444"><ele>442.00000000000006</ele><time>2026-04-12T09:11:34.999Z</time></trkpt><trkpt lat="42.11546008659296" lon="12.791893146879726"><ele>442.00000000000006</ele><time>2026-04-12T09:11:35.999Z</time></trkpt><trkpt lat="42.115473218338" lon="12.792031862772598"><ele>442.0</ele><time>2026-04-12T09:11:36.999Z</time></trkpt><trkpt lat="42.11547825456841" lon="12.792169505525676"><ele>442.0</ele><time>2026-04-12T09:11:37.999Z</time></trkpt><trkpt lat="42.115475441825126" lon="12.792304193540382"><ele>442.8</ele><time>2026-04-12T09:11:38.999Z</time></trkpt><trkpt lat="42.115464578756914" lon="12.792439528538134"><ele>443.6</ele><time>2026-04-12T09:11:39.999Z</time></trkpt><trkpt lat="42.11544785176093" lon="12.792577186420576"><ele>444.40000000000003</ele><time>2026-04-12T09:11:40.999Z</time></trkpt><trkpt lat="42.1154268748993" lon="12.792717640875168"><ele>445.20000000000005</ele><time>2026-04-12T09:11:41.999Z</time></trkpt><trkpt lat="42.11540074234359" lon="12.792860452555333"><ele>446.0</ele><time>2026-04-12T09:11:42.999Z</time></trkpt><trkpt lat="42.115369170986654" lon="12.7930096562293"><ele>448.75</ele><time>2026-04-12T09:11:43.999Z</time></trkpt><trkpt lat="42.11532998981265" lon="12.793158790061758"><ele>451.5</ele><time>2026-04-12T09:11:44.999Z</time></trkpt><trkpt lat="42.115286214670746" lon="12.793308080187737"><ele>454.25</ele><time>2026-04-12T09:11:45.999Z</time></trkpt><trkpt lat="42.115238473970756" lon="12.793457088210891"><ele>457.0</ele><time>2026-04-12T09:11:46.999Z</time></trkpt><trkpt lat="42.11518915383348" lon="12.793605622659072"><ele>460.0</ele><time>2026-04-12T09:11:47.999Z</time></trkpt><trkpt lat="42.115140128620965" lon="12.793748968859111"><ele>463.00000000000006</ele><time>2026-04-12T09:11:48.999Z</time></trkpt><trkpt lat="42.11509728706063" lon="12.793872364945415"><ele>466.00000000000006</ele><time>2026-04-12T09:11:49.999Z</time></trkpt><trkpt lat="42.11505505960761" lon="12.79400260425127"><ele>469.0</ele><time>2026-04-12T09:11:50.999Z</time></trkpt><trkpt lat="42.11501710630362" lon="12.79413146998236"><ele>472.0</ele><time>2026-04-12T09:11:51.999Z</time></trkpt><trkpt lat="42.11497899511812" lon="12.794257877582066"><ele>470.0</ele><time>2026-04-12T09:11:52.999Z</time></trkpt><trkpt lat="42.11493286683615" lon="12.794356842492281"><ele>468.00000000000006</ele><time>2026-04-12T09:11:53.999Z</time></trkpt><trkpt lat="42.11487444586157" lon="12.794446874954687"><ele>466.00000000000006</ele><time>2026-04-12T09:11:54.999Z</time></trkpt><trkpt lat="42.11479999449415" lon="12.794543516309352"><ele>464.0</ele><time>2026-04-12T09:11:55.999Z</time></trkpt><trkpt lat="42.11472316004465" lon="12.7946293343398"><ele>462.0</ele><time>2026-04-12T09:11:56.999Z</time></trkpt><trkpt lat="42.11464001994283" lon="12.794710585250161"><ele>462.0</ele><time>2026-04-12T09:11:57.999Z</time></trkpt><trkpt lat="42.11456294425137" lon="12.794797176313413"><ele>462.00000000000006</ele><time>2026-04-12T09:11:58.999Z</time></trkpt><trkpt lat="42.1145013107947" lon="12.794894802996199"><ele>462.00000000000006</ele><time>2026-04-12T09:11:59.999Z</time></trkpt><trkpt lat="42.11444449869452" lon="12.795010209990542"><ele>462.0</ele><time>2026-04-12T09:12:00.999Z</time></trkpt><trkpt lat="42.11439721785476" lon="12.795139958112262"><ele>462.0</ele><time>2026-04-12T09:12:01.999Z</time></trkpt><trkpt lat="42.11435855866837" lon="12.795271758245141"><ele>466.5</ele><time>2026-04-12T09:12:02.999Z</time></trkpt><trkpt lat="42.114325781570706" lon="12.795411990339403"><ele>471.0</ele><time>2026-04-12T09:12:03.999Z</time></trkpt><trkpt lat="42.11429530438852" lon="12.795552926563081"><ele>475.5</ele><time>2026-04-12T09:12:04.999Z</time></trkpt><trkpt lat="42.1142605520651" lon="12.79570469011337"><ele>480.0</ele><time>2026-04-12T09:12:05.999Z</time></trkpt><trkpt lat="42.11422680282852" lon="12.795868796976698"><ele>478.75</ele><time>2026-04-12T09:12:06.999Z</time></trkpt><trkpt lat="42.11418698739056" lon="12.796027277738327"><ele>477.5</ele><time>2026-04-12T09:12:07.999Z</time></trkpt><trkpt lat="42.114135609249225" lon="12.79617857409369"><ele>476.25</ele><time>2026-04-12T09:12:08.999Z</time></trkpt><trkpt lat="42.114078538874914" lon="12.796321807329853"><ele>475.0</ele><time>2026-04-12T09:12:09.999Z</time></trkpt><trkpt lat="42.1140077042569" lon="12.796448999963149"><ele>475.0</ele><time>2026-04-12T09:12:10.999Z</time></trkpt><trkpt lat="42.113950113067034" lon="12.796580567033802"><ele>475.0</ele><time>2026-04-12T09:12:11.999Z</time></trkpt><trkpt lat="42.11389626958431" lon="12.796725252072367"><ele>475.0</ele><time>2026-04-12T09:12:12.999Z</time></trkpt><trkpt lat="42.11383601485612" lon="12.7968461150033"><ele>475.0</ele><time>2026-04-12T09:12:13.999Z</time></trkpt><trkpt lat="42.11377148112974" lon="12.79697490178756"><ele>477.2</ele><time>2026-04-12T09:12:14.999Z</time></trkpt><trkpt lat="42.11372355852093" lon="12.797125242456078"><ele>479.4</ele><time>2026-04-12T09:12:15.999Z</time></trkpt><trkpt lat="42.113682844380214" lon="12.797265714259938"><ele>481.6</ele><time>2026-04-12T09:12:16.999Z</time></trkpt><trkpt lat="42.11362431122583" lon="12.797384652291447"><ele>483.8</ele><time>2026-04-12T09:12:17.999Z</time></trkpt><trkpt lat="42.11358409402794" lon="12.79751449725488"><ele>486.0</ele><time>2026-04-12T09:12:18.999Z</time></trkpt><trkpt lat="42.11354926200136" lon="12.797640335686445"><ele>486.6666666666667</ele><time>2026-04-12T09:12:19.999Z</time></trkpt><trkpt lat="42.113527955808394" lon="12.797748420815918"><ele>487.33333333333337</ele><time>2026-04-12T09:12:20.999Z</time></trkpt><trkpt lat="42.11351148361442" lon="12.797864853794895"><ele>488.0</ele><time>2026-04-12T09:12:21.999Z</time></trkpt><trkpt lat="42.11351525874925" lon="12.797976703855678"><ele>488.6666666666667</ele><time>2026-04-12T09:12:22.999Z</time></trkpt><trkpt lat="42.11353585764445" lon="12.79809469121859"><ele>489.33333333333337</ele><time>2026-04-12T09:12:23.999Z</time></trkpt><trkpt lat="42.113567856722746" lon="12.798210604720213"><ele>490.0</ele><time>2026-04-12T09:12:24.999Z</time></trkpt><trkpt lat="42.11361053325152" lon="12.79832348121025"><ele>490.0</ele><time>2026-04-12T09:12:25.999Z</time></trkpt><trkpt lat="42.11366662003907" lon="12.798416079576059"><ele>490.0</ele><time>2026-04-12T09:12:26.999Z</time></trkpt><trkpt lat="42.113740788036736" lon="12.798504100554624"><ele>490.0</ele><time>2026-04-12T09:12:27.999Z</time></trkpt><trkpt lat="42.11383649624934" lon="12.79857138664079"><ele>490.0</ele><time>2026-04-12T09:12:28.999Z</time></trkpt><trkpt lat="42.11393423957228" lon="12.798645733619937"><ele>490.0</ele><time>2026-04-12T09:12:29.999Z</time></trkpt><trkpt lat="42.114035260373456" lon="12.798703895252297"><ele>491.8</ele><time>2026-04-12T09:12:30.998Z</time></trkpt><trkpt lat="42.11413289138338" lon="12.798723241110078"><ele>493.6</ele><time>2026-04-12T09:12:31.998Z</time></trkpt><trkpt lat="42.11422916567917" lon="12.798720384321369"><ele>495.4</ele><time>2026-04-12T09:12:32.998Z</time></trkpt><trkpt lat="42.114317182090325" lon="12.798673865186577"><ele>497.2</ele><time>2026-04-12T09:12:33.998Z</time></trkpt><trkpt lat="42.11438063761976" lon="12.798607809673983"><ele>499.0</ele><time>2026-04-12T09:12:34.998Z</time></trkpt><trkpt lat="42.1144416290966" lon="12.798533381254186"><ele>499.79999999999995</ele><time>2026-04-12T09:12:35.998Z</time></trkpt><trkpt lat="42.11450028265192" lon="12.79845177622312"><ele>500.59999999999997</ele><time>2026-04-12T09:12:36.998Z</time></trkpt><trkpt lat="42.11456199225845" lon="12.798355504504343"><ele>501.4</ele><time>2026-04-12T09:12:37.998Z</time></trkpt><trkpt lat="42.114631593543756" lon="12.798260132626728"><ele>502.2</ele><time>2026-04-12T09:12:38.998Z</time></trkpt><trkpt lat="42.11470636967929" lon="12.798162341990286"><ele>503.0</ele><time>2026-04-12T09:12:39.998Z</time></trkpt><trkpt lat="42.11479233736956" lon="12.798057671419699"><ele>503.0</ele><time>2026-04-12T09:12:40.998Z</time></trkpt><trkpt lat="42.11488498450506" lon="12.797959988880026"><ele>503.0</ele><time>2026-04-12T09:12:41.998Z</time></trkpt><trkpt lat="42.11498604550899" lon="12.797866620912961"><ele>503.0</ele><time>2026-04-12T09:12:42.998Z</time></trkpt><trkpt lat="42.11509208818516" lon="12.797781764245409"><ele>503.0</ele><time>2026-04-12T09:12:43.998Z</time></trkpt><trkpt lat="42.115202360671404" lon="12.797696448969115"><ele>504.75</ele><time>2026-04-12T09:12:44.998Z</time></trkpt><trkpt lat="42.11531085847545" lon="12.797607821971184"><ele>506.5</ele><time>2026-04-12T09:12:45.998Z</time></trkpt><trkpt lat="42.11541459500651" lon="12.797522008649038"><ele>508.25</ele><time>2026-04-12T09:12:46.998Z</time></trkpt><trkpt lat="42.11551960500456" lon="12.797439734402017"><ele>510.0</ele><time>2026-04-12T09:12:47.998Z</time></trkpt><trkpt lat="42.11562543423824" lon="12.79735447055463"><ele>510.0</ele><time>2026-04-12T09:12:49Z</time></trkpt><trkpt lat="42.11572554723892" lon="12.797277975186441"><ele>510.0</ele><time>2026-04-12T09:12:50Z</time></trkpt><trkpt lat="42.115814914907844" lon="12.79719926677082"><ele>510.0</ele><time>2026-04-12T09:12:51Z</time></trkpt><trkpt lat="42.1158804515332" lon="12.797126678589073"><ele>510.0</ele><time>2026-04-12T09:12:52Z</time></trkpt><trkpt lat="42.115948033817055" lon="12.797045701349564"><ele>510.0</ele><time>2026-04-12T09:12:53Z</time></trkpt><trkpt lat="42.11600979690976" lon="12.796959938091298"><ele>511.6</ele><time>2026-04-12T09:12:54Z</time></trkpt><trkpt lat="42.11607217244601" lon="12.796868625429582"><ele>513.2</ele><time>2026-04-12T09:12:55Z</time></trkpt><trkpt lat="42.116135110153245" lon="12.796767305662907"><ele>514.8</ele><time>2026-04-12T09:12:56Z</time></trkpt><trkpt lat="42.11619733897088" lon="12.796670951415427"><ele>516.4</ele><time>2026-04-12T09:12:57Z</time></trkpt><trkpt lat="42.11626396848206" lon="12.796567224288443"><ele>518.0</ele><time>2026-04-12T09:12:58Z</time></trkpt><trkpt lat="42.1163274271188" lon="12.796454859843953"><ele>518.0</ele><time>2026-04-12T09:12:59Z</time></trkpt><trkpt lat="42.11639267937245" lon="12.79633846661667"><ele>518.0</ele><time>2026-04-12T09:13:00Z</time></trkpt><trkpt lat="42.11646462261169" lon="12.796213017434246"><ele>518.0</ele><time>2026-04-12T09:13:01Z</time></trkpt><trkpt lat="42.116526226696585" lon="12.79608914357295"><ele>518.0</ele><time>2026-04-12T09:13:02Z</time></trkpt><trkpt lat="42.11658863382194" lon="12.796002353598439"><ele>518.0</ele><time>2026-04-12T09:13:03Z</time></trkpt><trkpt lat="42.11666073734893" lon="12.79596308369955"><ele>519.4285714285714</ele><time>2026-04-12T09:13:04Z</time></trkpt><trkpt lat="42.116725494004385" lon="12.795970316419828"><ele>520.8571428571429</ele><time>2026-04-12T09:13:05Z</time></trkpt><trkpt lat="42.11677879690167" lon="12.796016625473547"><ele>522.2857142857142</ele><time>2026-04-12T09:13:06Z</time></trkpt><trkpt lat="42.11681308731064" lon="12.796108118995049"><ele>523.7142857142858</ele><time>2026-04-12T09:13:07Z</time></trkpt><trkpt lat="42.11681959514599" lon="12.796192783415457"><ele>525.1428571428571</ele><time>2026-04-12T09:13:08Z</time></trkpt><trkpt lat="42.1168301607094" lon="12.796295453835722"><ele>526.5714285714286</ele><time>2026-04-12T09:13:09Z</time></trkpt><trkpt lat="42.116845866158826" lon="12.796399206395071"><ele>528.0</ele><time>2026-04-12T09:13:10Z</time></trkpt><trkpt lat="42.116872062329186" lon="12.796512870114089"><ele>528.1999999999999</ele><time>2026-04-12T09:13:11Z</time></trkpt><trkpt lat="42.11690794083977" lon="12.796633139815004"><ele>528.4</ele><time>2026-04-12T09:13:12Z</time></trkpt><trkpt lat="42.11694939722538" lon="12.796763689020935"><ele>528.5999999999999</ele><time>2026-04-12T09:13:13Z</time></trkpt><trkpt lat="42.117003743432875" lon="12.796892929866285"><ele>528.8</ele><time>2026-04-12T09:13:14Z</time></trkpt><trkpt lat="42.11706687953025" lon="12.797010074996312"><ele>529.0</ele><time>2026-04-12T09:13:15Z</time></trkpt><trkpt lat="42.1171375196551" lon="12.797136284980773"><ele>529.0</ele><time>2026-04-12T09:13:16Z</time></trkpt><trkpt lat="42.11721542050091" lon="12.797266420523979"><ele>529.0</ele><time>2026-04-12T09:13:17Z</time></trkpt><trkpt lat="42.11729780796401" lon="12.797399975805618"><ele>529.0</ele><time>2026-04-12T09:13:18Z</time></trkpt><trkpt lat="42.11738857787355" lon="12.79753035485533"><ele>529.0</ele><time>2026-04-12T09:13:19Z</time></trkpt><trkpt lat="42.117487022950556" lon="12.797638458269779"><ele>530.0</ele><time>2026-04-12T09:13:20Z</time></trkpt><trkpt lat="42.11758263419051" lon="12.797734014416797"><ele>531.0</ele><time>2026-04-12T09:13:21Z</time></trkpt><trkpt lat="42.11767875909027" lon="12.797827136819855"><ele>532.0</ele><time>2026-04-12T09:13:22Z</time></trkpt><trkpt lat="42.11777887332662" lon="12.797917699199626"><ele>533.0</ele><time>2026-04-12T09:13:23Z</time></trkpt><trkpt lat="42.11788617814986" lon="12.798002916264183"><ele>533.0</ele><time>2026-04-12T09:13:24Z</time></trkpt><trkpt lat="42.11800082045166" lon="12.79808410240749"><ele>533.0</ele><time>2026-04-12T09:13:25Z</time></trkpt><trkpt lat="42.11810680012538" lon="12.7981446305918"><ele>533.0</ele><time>2026-04-12T09:13:26Z</time></trkpt><trkpt lat="42.11822290282018" lon="12.798185003836611"><ele>533.0</ele><time>2026-04-12T09:13:27Z</time></trkpt><trkpt lat="42.11833957461303" lon="12.798253718858245"><ele>535.0</ele><time>2026-04-12T09:13:28Z</time></trkpt><trkpt lat="42.118461682247926" lon="12.798321097201667"><ele>537.0</ele><time>2026-04-12T09:13:29Z</time></trkpt><trkpt lat="42.11855004480564" lon="12.798441669753474"><ele>539.0</ele><time>2026-04-12T09:13:30Z</time></trkpt><trkpt lat="42.11861569389671" lon="12.798598338109642"><ele>541.0</ele><time>2026-04-12T09:13:31Z</time></trkpt><trkpt lat="42.11864517839822" lon="12.798766150433147"><ele>543.0</ele><time>2026-04-12T09:13:31.999Z</time></trkpt><trkpt lat="42.1186228215942" lon="12.798938222213337"><ele>545.0</ele><time>2026-04-12T09:13:32.999Z</time></trkpt><trkpt lat="42.11852511378502" lon="12.7990598707165"><ele>547.0</ele><time>2026-04-12T09:13:33.999Z</time></trkpt><trkpt lat="42.118428965456914" lon="12.799177059506489"><ele>549.0</ele><time>2026-04-12T09:13:34.999Z</time></trkpt><trkpt lat="42.11834191809214" lon="12.799309897853812"><ele>549.0</ele><time>2026-04-12T09:13:35.999Z</time></trkpt><trkpt lat="42.11824685314272" lon="12.799409232284232"><ele>549.0</ele><time>2026-04-12T09:13:36.999Z</time></trkpt><trkpt lat="42.11817185730923" lon="12.799504589737328"><ele>549.0</ele><time>2026-04-12T09:13:37.999Z</time></trkpt><trkpt lat="42.118094608922135" lon="12.799616523423"><ele>549.0</ele><time>2026-04-12T09:13:38.999Z</time></trkpt><trkpt lat="42.11802189448716" lon="12.799728419817177"><ele>549.0</ele><time>2026-04-12T09:13:39.999Z</time></trkpt><trkpt lat="42.11796146367324" lon="12.799816540512536"><ele>549.0</ele><time>2026-04-12T09:13:40.999Z</time></trkpt><trkpt lat="42.1179040386982" lon="12.79991631209242"><ele>549.0</ele><time>2026-04-12T09:13:41.999Z</time></trkpt><trkpt lat="42.11785446319206" lon="12.800005725014119"><ele>549.0</ele><time>2026-04-12T09:13:42.999Z</time></trkpt><trkpt lat="42.117812076058236" lon="12.800083493244511"><ele>549.0</ele><time>2026-04-12T09:13:43.999Z</time></trkpt><trkpt lat="42.11777045180933" lon="12.800160550003424"><ele>549.0</ele><time>2026-04-12T09:13:44.999Z</time></trkpt><trkpt lat="42.11772816935316" lon="12.80023308467249"><ele>549.0</ele><time>2026-04-12T09:13:45.999Z</time></trkpt><trkpt lat="42.11768905479709" lon="12.800301430113096"><ele>549.0</ele><time>2026-04-12T09:13:46.999Z</time></trkpt><trkpt lat="42.11763099537655" lon="12.800419266644044"><ele>549.0</ele><time>2026-04-12T09:13:48.999Z</time></trkpt><trkpt lat="42.117571714697974" lon="12.800525502750288"><ele>549.0</ele><time>2026-04-12T09:13:50.999Z</time></trkpt><trkpt lat="42.11750979269864" lon="12.80062941370984"><ele>549.0</ele><time>2026-04-12T09:13:52.999Z</time></trkpt><trkpt lat="42.117449118359986" lon="12.800732054261623"><ele>549.0</ele><time>2026-04-12T09:13:54.999Z</time></trkpt><trkpt lat="42.11738733531359" lon="12.800879758627735"><ele>549.0</ele><time>2026-04-12T09:13:56.999Z</time></trkpt><trkpt lat="42.11734281395032" lon="12.800976071837113"><ele>549.0</ele><time>2026-04-12T09:13:57.999Z</time></trkpt><trkpt lat="42.117299882256745" lon="12.801077076701514"><ele>549.0</ele><time>2026-04-12T09:13:58.999Z</time></trkpt><trkpt lat="42.11725756138495" lon="12.8011894480748"><ele>549.0</ele><time>2026-04-12T09:13:59.999Z</time></trkpt><trkpt lat="42.11721985348675" lon="12.801315655497985"><ele>549.0</ele><time>2026-04-12T09:14:00.999Z</time></trkpt><trkpt lat="42.11718701224837" lon="12.801450347716806"><ele>552.25</ele><time>2026-04-12T09:14:01.999Z</time></trkpt><trkpt lat="42.117162492638016" lon="12.801593305963976"><ele>555.5</ele><time>2026-04-12T09:14:02.999Z</time></trkpt><trkpt lat="42.117154126903124" lon="12.801747188682137"><ele>558.75</ele><time>2026-04-12T09:14:03.999Z</time></trkpt><trkpt lat="42.11715732353936" lon="12.801908863057077"><ele>562.0</ele><time>2026-04-12T09:14:04.999Z</time></trkpt><trkpt lat="42.11716327801254" lon="12.802072870640362"><ele>565.0</ele><time>2026-04-12T09:14:05.999Z</time></trkpt><trkpt lat="42.1171444422459" lon="12.802220647473723"><ele>568.0</ele><time>2026-04-12T09:14:06.999Z</time></trkpt><trkpt lat="42.11709110873328" lon="12.802331157244716"><ele>571.0</ele><time>2026-04-12T09:14:07.999Z</time></trkpt><trkpt lat="42.11701521909342" lon="12.802409333703162"><ele>574.0</ele><time>2026-04-12T09:14:08.999Z</time></trkpt><trkpt lat="42.11692059782087" lon="12.802451170484716"><ele>577.0</ele><time>2026-04-12T09:14:09.999Z</time></trkpt><trkpt lat="42.116826235468444" lon="12.80247383350857"><ele>577.0</ele><time>2026-04-12T09:14:10.999Z</time></trkpt><trkpt lat="42.11674172229492" lon="12.802470504906497"><ele>577.0</ele><time>2026-04-12T09:14:11.999Z</time></trkpt><trkpt lat="42.11664845469366" lon="12.802470692732086"><ele>577.0</ele><time>2026-04-12T09:14:12.999Z</time></trkpt><trkpt lat="42.11655000267669" lon="12.80247513001228"><ele>577.0</ele><time>2026-04-12T09:14:13.999Z</time></trkpt><trkpt lat="42.116443254765514" lon="12.80248456877161"><ele>577.0</ele><time>2026-04-12T09:14:14.999Z</time></trkpt><trkpt lat="42.116326545029715" lon="12.802496199460515"><ele>577.75</ele><time>2026-04-12T09:14:15.999Z</time></trkpt><trkpt lat="42.11621098065635" lon="12.802517168952726"><ele>578.5</ele><time>2026-04-12T09:14:16.999Z</time></trkpt><trkpt lat="42.1160999660045" lon="12.802552301680674"><ele>579.25</ele><time>2026-04-12T09:14:17.999Z</time></trkpt><trkpt lat="42.11599066725324" lon="12.80259090373285"><ele>580.0</ele><time>2026-04-12T09:14:18.999Z</time></trkpt><trkpt lat="42.115880173662354" lon="12.802625833662784"><ele>580.0</ele><time>2026-04-12T09:14:19.999Z</time></trkpt><trkpt lat="42.115761819873846" lon="12.802615543851486"><ele>580.0</ele><time>2026-04-12T09:14:20.999Z</time></trkpt><trkpt lat="42.11565546414852" lon="12.802590032603003"><ele>580.0</ele><time>2026-04-12T09:14:21.999Z</time></trkpt><trkpt lat="42.115561555029984" lon="12.802590883272622"><ele>580.0</ele><time>2026-04-12T09:14:22.999Z</time></trkpt><trkpt lat="42.115478068706196" lon="12.802599148705315"><ele>580.0</ele><time>2026-04-12T09:14:23.999Z</time></trkpt><trkpt lat="42.11538813369855" lon="12.802630130155519"><ele>580.2</ele><time>2026-04-12T09:14:24.999Z</time></trkpt><trkpt lat="42.1153002414683" lon="12.8026365536016"><ele>580.4</ele><time>2026-04-12T09:14:25.999Z</time></trkpt><trkpt lat="42.11521500180645" lon="12.802682801555578"><ele>580.6</ele><time>2026-04-12T09:14:26.999Z</time></trkpt><trkpt lat="42.11512954480817" lon="12.80272110013308"><ele>580.8</ele><time>2026-04-12T09:14:27.999Z</time></trkpt><trkpt lat="42.115049434754205" lon="12.8027951571402"><ele>581.0</ele><time>2026-04-12T09:14:28.999Z</time></trkpt><trkpt lat="42.11497891265098" lon="12.802884845874058"><ele>581.6</ele><time>2026-04-12T09:14:29.999Z</time></trkpt><trkpt lat="42.11491087833831" lon="12.802982029627948"><ele>582.2</ele><time>2026-04-12T09:14:30.999Z</time></trkpt><trkpt lat="42.1148381295328" lon="12.803081366530536"><ele>582.8</ele><time>2026-04-12T09:14:31.999Z</time></trkpt><trkpt lat="42.11476290524857" lon="12.803186174163306"><ele>583.4</ele><time>2026-04-12T09:14:32.999Z</time></trkpt><trkpt lat="42.11469112019012" lon="12.803297020919642"><ele>584.0</ele><time>2026-04-12T09:14:33.999Z</time></trkpt><trkpt lat="42.11461985583451" lon="12.803423127944484"><ele>587.5</ele><time>2026-04-12T09:14:34.999Z</time></trkpt><trkpt lat="42.114554084502" lon="12.803563360540748"><ele>591.0</ele><time>2026-04-12T09:14:35.998Z</time></trkpt><trkpt lat="42.114487803819486" lon="12.803702687424844"><ele>594.5</ele><time>2026-04-12T09:14:36.998Z</time></trkpt><trkpt lat="42.11441094018828" lon="12.803841855328912"><ele>598.0</ele><time>2026-04-12T09:14:37.998Z</time></trkpt><trkpt lat="42.11434170852294" lon="12.803983082174138"><ele>598.0</ele><time>2026-04-12T09:14:38.998Z</time></trkpt><trkpt lat="42.114281540622954" lon="12.804117116801585"><ele>598.0</ele><time>2026-04-12T09:14:39.998Z</time></trkpt><trkpt lat="42.11422459428785" lon="12.804239730008375"><ele>598.0</ele><time>2026-04-12T09:14:40.998Z</time></trkpt><trkpt lat="42.11417200940734" lon="12.804350376624686"><ele>598.0</ele><time>2026-04-12T09:14:41.998Z</time></trkpt><trkpt lat="42.11412449471545" lon="12.804457988269244"><ele>598.0</ele><time>2026-04-12T09:14:42.998Z</time></trkpt><trkpt lat="42.114076732479106" lon="12.804575024999666"><ele>598.1666666666667</ele><time>2026-04-12T09:14:43.998Z</time></trkpt><trkpt lat="42.11403373161379" lon="12.804688990316382"><ele>598.3333333333334</ele><time>2026-04-12T09:14:44.998Z</time></trkpt><trkpt lat="42.1139965306396" lon="12.804790484329219"><ele>598.5</ele><time>2026-04-12T09:14:45.998Z</time></trkpt><trkpt lat="42.11397670114032" lon="12.804894436078893"><ele>598.6666666666666</ele><time>2026-04-12T09:14:46.998Z</time></trkpt><trkpt lat="42.113968170553036" lon="12.805013214872844"><ele>598.8333333333333</ele><time>2026-04-12T09:14:47.998Z</time></trkpt><trkpt lat="42.11396741404352" lon="12.80514322392448"><ele>599.0</ele><time>2026-04-12T09:14:48.998Z</time></trkpt><trkpt lat="42.113978622546604" lon="12.80527916498411"><ele>599.0</ele><time>2026-04-12T09:14:49.998Z</time></trkpt><trkpt lat="42.11399757284794" lon="12.805415853587688"><ele>599.0</ele><time>2026-04-12T09:14:50.998Z</time></trkpt><trkpt lat="42.114028219255324" lon="12.805557188158883"><ele>599.0</ele><time>2026-04-12T09:14:51.998Z</time></trkpt><trkpt lat="42.11406540816391" lon="12.805703299268668"><ele>599.0</ele><time>2026-04-12T09:14:52.998Z</time></trkpt><trkpt lat="42.114113903823366" lon="12.80584422339296"><ele>599.0</ele><time>2026-04-12T09:14:53.998Z</time></trkpt><trkpt lat="42.11417429467056" lon="12.805987562055678"><ele>601.75</ele><time>2026-04-12T09:14:55Z</time></trkpt><trkpt lat="42.11424121460411" lon="12.806131645577624"><ele>604.5</ele><time>2026-04-12T09:14:56Z</time></trkpt><trkpt lat="42.11430856092266" lon="12.806273363968623"><ele>607.25</ele><time>2026-04-12T09:14:57Z</time></trkpt><trkpt lat="42.11436437495144" lon="12.806412840838084"><ele>610.0</ele><time>2026-04-12T09:14:58Z</time></trkpt><trkpt lat="42.114406283228945" lon="12.806548469316443"><ele>610.0</ele><time>2026-04-12T09:14:59Z</time></trkpt><trkpt lat="42.11444300387434" lon="12.806679336729271"><ele>610.0</ele><time>2026-04-12T09:15:00Z</time></trkpt><trkpt lat="42.11447429295277" lon="12.806794619338046"><ele>610.0</ele><time>2026-04-12T09:15:01Z</time></trkpt><trkpt lat="42.114497746641966" lon="12.806897981283425"><ele>610.0</ele><time>2026-04-12T09:15:02Z</time></trkpt><trkpt lat="42.11451368147055" lon="12.807003568736295"><ele>610.0</ele><time>2026-04-12T09:15:03Z</time></trkpt><trkpt lat="42.114531412375534" lon="12.807088751305772"><ele>610.0</ele><time>2026-04-12T09:15:04Z</time></trkpt><trkpt lat="42.11459563523302" lon="12.807207339177452"><ele>610.0</ele><time>2026-04-12T09:15:06Z</time></trkpt><trkpt lat="42.11470315158945" lon="12.807224877882103"><ele>610.0</ele><time>2026-04-12T09:15:08Z</time></trkpt><trkpt lat="42.11475335122351" lon="12.807167275895887"><ele>610.0</ele><time>2026-04-12T09:15:09Z</time></trkpt><trkpt lat="42.114776474726376" lon="12.807079504946211"><ele>610.0</ele><time>2026-04-12T09:15:10Z</time></trkpt><trkpt lat="42.11477058769143" lon="12.806969815027099"><ele>610.0</ele><time>2026-04-12T09:15:11Z</time></trkpt><trkpt lat="42.11477748770963" lon="12.806864739543162"><ele>610.0</ele><time>2026-04-12T09:15:12Z</time></trkpt><trkpt lat="42.11477638347249" lon="12.806753410239846"><ele>610.0</ele><time>2026-04-12T09:15:13Z</time></trkpt><trkpt lat="42.11477515896328" lon="12.806629955270067"><ele>610.0</ele><time>2026-04-12T09:15:14Z</time></trkpt><trkpt lat="42.114760917809114" lon="12.806493674866767"><ele>610.0</ele><time>2026-04-12T09:15:15Z</time></trkpt><trkpt lat="42.11475905287819" lon="12.806352619850518"><ele>610.0</ele><time>2026-04-12T09:15:16Z</time></trkpt><trkpt lat="42.11475574193274" lon="12.806206673903995"><ele>610.0</ele><time>2026-04-12T09:15:17Z</time></trkpt><trkpt lat="42.114769595112925" lon="12.80606900725412"><ele>610.0</ele><time>2026-04-12T09:15:18Z</time></trkpt><trkpt lat="42.114751062157424" lon="12.805956087271836"><ele>610.0</ele><time>2026-04-12T09:15:19Z</time></trkpt><trkpt lat="42.114751833345046" lon="12.805857922440786"><ele>610.0</ele><time>2026-04-12T09:15:20Z</time></trkpt><trkpt lat="42.114762643118944" lon="12.805765927288006"><ele>610.0</ele><time>2026-04-12T09:15:21Z</time></trkpt><trkpt lat="42.11479824052708" lon="12.805691922222831"><ele>610.0</ele><time>2026-04-12T09:15:22Z</time></trkpt><trkpt lat="42.11485669512156" lon="12.805657164824497"><ele>610.0</ele><time>2026-04-12T09:15:23Z</time></trkpt><trkpt lat="42.11491445193312" lon="12.805695783214905"><ele>610.0</ele><time>2026-04-12T09:15:24Z</time></trkpt><trkpt lat="42.11495972535919" lon="12.805762308840054"><ele>612.1666666666667</ele><time>2026-04-12T09:15:25Z</time></trkpt><trkpt lat="42.11498972190725" lon="12.805846849379055"><ele>614.3333333333334</ele><time>2026-04-12T09:15:26Z</time></trkpt><trkpt lat="42.115017961804575" lon="12.805936250941135"><ele>616.5</ele><time>2026-04-12T09:15:27Z</time></trkpt><trkpt lat="42.1150502041674" lon="12.806021633471893"><ele>618.6666666666666</ele><time>2026-04-12T09:15:28Z</time></trkpt><trkpt lat="42.11508776297926" lon="12.806114135804123"><ele>620.8333333333333</ele><time>2026-04-12T09:15:29Z</time></trkpt><trkpt lat="42.1151277169032" lon="12.806206840897195"><ele>623.0</ele><time>2026-04-12T09:15:30Z</time></trkpt><trkpt lat="42.115177432773635" lon="12.806325248103406"><ele>623.0</ele><time>2026-04-12T09:15:31Z</time></trkpt><trkpt lat="42.11523885995221" lon="12.806440282712456"><ele>623.0</ele><time>2026-04-12T09:15:32Z</time></trkpt><trkpt lat="42.11530618118343" lon="12.80654179847195"><ele>623.0</ele><time>2026-04-12T09:15:33Z</time></trkpt><trkpt lat="42.11538617656787" lon="12.806631062822118"><ele>623.0</ele><time>2026-04-12T09:15:34Z</time></trkpt><trkpt lat="42.11547407445758" lon="12.806711900721444"><ele>623.0</ele><time>2026-04-12T09:15:35Z</time></trkpt><trkpt lat="42.115568250822875" lon="12.806778797305139"><ele>623.3333333333333</ele><time>2026-04-12T09:15:36Z</time></trkpt><trkpt lat="42.11565275389328" lon="12.806840798352853"><ele>623.6666666666666</ele><time>2026-04-12T09:15:37Z</time></trkpt><trkpt lat="42.11572205721456" lon="12.806903188673848"><ele>624.0</ele><time>2026-04-12T09:15:38Z</time></trkpt><trkpt lat="42.11577960521012" lon="12.80696299466063"><ele>624.3333333333334</ele><time>2026-04-12T09:15:39Z</time></trkpt><trkpt lat="42.115832283484764" lon="12.807032945674322"><ele>624.6666666666667</ele><time>2026-04-12T09:15:40Z</time></trkpt><trkpt lat="42.11588049522338" lon="12.807116934541833"><ele>625.0</ele><time>2026-04-12T09:15:41Z</time></trkpt><trkpt lat="42.115922908091875" lon="12.807204629574388"><ele>626.0000000000001</ele><time>2026-04-12T09:15:41.999Z</time></trkpt><trkpt lat="42.115944591371886" lon="12.807304832548148"><ele>627.0</ele><time>2026-04-12T09:15:42.999Z</time></trkpt><trkpt lat="42.11596183804363" lon="12.8073921280963"><ele>628.0</ele><time>2026-04-12T09:15:43.999Z</time></trkpt><trkpt lat="42.11597910789805" lon="12.80748451677062"><ele>629.0</ele><time>2026-04-12T09:15:44.999Z</time></trkpt><trkpt lat="42.115993376950954" lon="12.807569283821232"><ele>630.0</ele><time>2026-04-12T09:15:45.999Z</time></trkpt><trkpt lat="42.116006551176056" lon="12.80766494843364"><ele>631.0000000000001</ele><time>2026-04-12T09:15:46.999Z</time></trkpt><trkpt lat="42.11602650905142" lon="12.807765078264216"><ele>632.0</ele><time>2026-04-12T09:15:47.999Z</time></trkpt><trkpt lat="42.1160230763839" lon="12.807883573340385"><ele>632.8000000000001</ele><time>2026-04-12T09:15:48.999Z</time></trkpt><trkpt lat="42.11601159083697" lon="12.808013174114894"><ele>633.6</ele><time>2026-04-12T09:15:49.999Z</time></trkpt><trkpt lat="42.11600241672689" lon="12.80815236862523"><ele>634.4000000000001</ele><time>2026-04-12T09:15:50.999Z</time></trkpt><trkpt lat="42.115993815997534" lon="12.808290945301986"><ele>635.2</ele><time>2026-04-12T09:15:51.999Z</time></trkpt><trkpt lat="42.115982497389496" lon="12.808426821093185"><ele>636.0</ele><time>2026-04-12T09:15:52.999Z</time></trkpt><trkpt lat="42.115968932220696" lon="12.808564910866089"><ele>638.25</ele><time>2026-04-12T09:15:53.999Z</time></trkpt><trkpt lat="42.11595549901012" lon="12.808710066495305"><ele>640.5</ele><time>2026-04-12T09:15:54.999Z</time></trkpt><trkpt lat="42.11594149723461" lon="12.808863955629958"><ele>642.75</ele><time>2026-04-12T09:15:55.999Z</time></trkpt><trkpt lat="42.1159291221234" lon="12.809015726438671"><ele>645.0</ele><time>2026-04-12T09:15:56.999Z</time></trkpt><trkpt lat="42.115915903040346" lon="12.809178271894872"><ele>646.5</ele><time>2026-04-12T09:15:57.999Z</time></trkpt><trkpt lat="42.1158976215099" lon="12.809348875519452"><ele>648.0</ele><time>2026-04-12T09:15:58.999Z</time></trkpt><trkpt lat="42.11587752794202" lon="12.80950566308192"><ele>649.5</ele><time>2026-04-12T09:15:59.999Z</time></trkpt><trkpt lat="42.11587503876061" lon="12.809653178191834"><ele>651.0</ele><time>2026-04-12T09:16:00.999Z</time></trkpt><trkpt lat="42.11586658026625" lon="12.80979077154981"><ele>651.0</ele><time>2026-04-12T09:16:01.999Z</time></trkpt><trkpt lat="42.11584147800711" lon="12.809916827606393"><ele>651.0</ele><time>2026-04-12T09:16:02.999Z</time></trkpt><trkpt lat="42.11579362821265" lon="12.81003797345545"><ele>651.0</ele><time>2026-04-12T09:16:03.999Z</time></trkpt><trkpt lat="42.11573133561467" lon="12.810147979094367"><ele>651.0</ele><time>2026-04-12T09:16:04.999Z</time></trkpt><trkpt lat="42.11566645793561" lon="12.810261590432917"><ele>651.0</ele><time>2026-04-12T09:16:05.999Z</time></trkpt><trkpt lat="42.11559861476187" lon="12.81037059611584"><ele>651.5999999999999</ele><time>2026-04-12T09:16:06.999Z</time></trkpt><trkpt lat="42.11555020380223" lon="12.810486982541907"><ele>652.2</ele><time>2026-04-12T09:16:07.999Z</time></trkpt><trkpt lat="42.11549163576328" lon="12.810610039821041"><ele>652.8</ele><time>2026-04-12T09:16:08.999Z</time></trkpt><trkpt lat="42.115435795159065" lon="12.810728899680567"><ele>653.4000000000001</ele><time>2026-04-12T09:16:09.999Z</time></trkpt><trkpt lat="42.115374839212365" lon="12.810854396019165"><ele>654.0</ele><time>2026-04-12T09:16:10.999Z</time></trkpt><trkpt lat="42.11531371229303" lon="12.810977641666279"><ele>656.75</ele><time>2026-04-12T09:16:11.999Z</time></trkpt><trkpt lat="42.115251585945146" lon="12.811111267625478"><ele>659.5</ele><time>2026-04-12T09:16:12.999Z</time></trkpt><trkpt lat="42.11518774349593" lon="12.811248713774136"><ele>662.25</ele><time>2026-04-12T09:16:13.999Z</time></trkpt><trkpt lat="42.11514475117762" lon="12.811397713769093"><ele>665.0</ele><time>2026-04-12T09:16:14.999Z</time></trkpt><trkpt lat="42.115130700559305" lon="12.81156650166836"><ele>665.0</ele><time>2026-04-12T09:16:15.999Z</time></trkpt><trkpt lat="42.115144570693644" lon="12.811730030061046"><ele>665.0</ele><time>2026-04-12T09:16:16.999Z</time></trkpt><trkpt lat="42.11515842170714" lon="12.811898898511965"><ele>665.0</ele><time>2026-04-12T09:16:17.999Z</time></trkpt><trkpt lat="42.115138471662824" lon="12.812052931478586"><ele>665.0</ele><time>2026-04-12T09:16:18.999Z</time></trkpt><trkpt lat="42.11507907285518" lon="12.8121639495651"><ele>667.25</ele><time>2026-04-12T09:16:19.999Z</time></trkpt><trkpt lat="42.11499400315352" lon="12.812271716271159"><ele>669.5</ele><time>2026-04-12T09:16:20.999Z</time></trkpt><trkpt lat="42.114881896239424" lon="12.812335024812832"><ele>671.75</ele><time>2026-04-12T09:16:21.999Z</time></trkpt><trkpt lat="42.11475205306752" lon="12.812340608128448"><ele>674.0</ele><time>2026-04-12T09:16:22.999Z</time></trkpt><trkpt lat="42.114626840187334" lon="12.812323193038411"><ele>674.0</ele><time>2026-04-12T09:16:23.999Z</time></trkpt><trkpt lat="42.1145151317556" lon="12.812233517958083"><ele>674.0</ele><time>2026-04-12T09:16:24.999Z</time></trkpt><trkpt lat="42.11440347202687" lon="12.812110558384925"><ele>674.0</ele><time>2026-04-12T09:16:25.999Z</time></trkpt><trkpt lat="42.11429354685791" lon="12.812077041517032"><ele>674.0</ele><time>2026-04-12T09:16:26.999Z</time></trkpt><trkpt lat="42.11417140341159" lon="12.812171507458629"><ele>673.25</ele><time>2026-04-12T09:16:27.999Z</time></trkpt><trkpt lat="42.11406298263634" lon="12.812269556807465"><ele>672.5</ele><time>2026-04-12T09:16:28.999Z</time></trkpt><trkpt lat="42.11395987184551" lon="12.812390560739265"><ele>671.75</ele><time>2026-04-12T09:16:29.999Z</time></trkpt><trkpt lat="42.113873872950265" lon="12.81251615854731"><ele>671.0</ele><time>2026-04-12T09:16:30.999Z</time></trkpt><trkpt lat="42.113805935735954" lon="12.812661496941434"><ele>671.0</ele><time>2026-04-12T09:16:31.999Z</time></trkpt><trkpt lat="42.11376181652512" lon="12.81282472271726"><ele>671.0</ele><time>2026-04-12T09:16:32.999Z</time></trkpt><trkpt lat="42.11373192099791" lon="12.812997661015523"><ele>671.0</ele><time>2026-04-12T09:16:33.999Z</time></trkpt><trkpt lat="42.11369779230247" lon="12.813171741095353"><ele>671.0</ele><time>2026-04-12T09:16:34.999Z</time></trkpt><trkpt lat="42.113655537012136" lon="12.813350244789719"><ele>673.25</ele><time>2026-04-12T09:16:35.999Z</time></trkpt><trkpt lat="42.11361536798742" lon="12.813527992284241"><ele>675.5</ele><time>2026-04-12T09:16:36.999Z</time></trkpt><trkpt lat="42.11358408977061" lon="12.813695806606077"><ele>677.75</ele><time>2026-04-12T09:16:37.999Z</time></trkpt><trkpt lat="42.11356358040341" lon="12.813878668153357"><ele>680.0</ele><time>2026-04-12T09:16:38.999Z</time></trkpt><trkpt lat="42.11356057758373" lon="12.814064086814739"><ele>680.0</ele><time>2026-04-12T09:16:39.999Z</time></trkpt><trkpt lat="42.113571375349075" lon="12.81425794572442"><ele>680.0</ele><time>2026-04-12T09:16:40.999Z</time></trkpt><trkpt lat="42.11359187030583" lon="12.814442570254016"><ele>680.0</ele><time>2026-04-12T09:16:41.999Z</time></trkpt><trkpt lat="42.113602528515806" lon="12.814629322507772"><ele>680.0</ele><time>2026-04-12T09:16:42.999Z</time></trkpt><trkpt lat="42.1135959578483" lon="12.814820242951102"><ele>682.0</ele><time>2026-04-12T09:16:43.999Z</time></trkpt><trkpt lat="42.11357934310641" lon="12.81500845477193"><ele>684.0</ele><time>2026-04-12T09:16:44.999Z</time></trkpt><trkpt lat="42.11356876750543" lon="12.815201618730113"><ele>686.0</ele><time>2026-04-12T09:16:45.999Z</time></trkpt><trkpt lat="42.113537776578646" lon="12.815386488064025"><ele>688.0</ele><time>2026-04-12T09:16:46.999Z</time></trkpt><trkpt lat="42.113488686025335" lon="12.815552990511154"><ele>689.75</ele><time>2026-04-12T09:16:47.998Z</time></trkpt><trkpt lat="42.11343991656686" lon="12.815725221630672"><ele>691.5</ele><time>2026-04-12T09:16:48.998Z</time></trkpt><trkpt lat="42.11338086695868" lon="12.815901323942343"><ele>693.25</ele><time>2026-04-12T09:16:49.998Z</time></trkpt><trkpt lat="42.11331240094741" lon="12.816070092746907"><ele>695.0</ele><time>2026-04-12T09:16:50.998Z</time></trkpt><trkpt lat="42.113298377605716" lon="12.816270801919215"><ele>697.25</ele><time>2026-04-12T09:16:51.998Z</time></trkpt><trkpt lat="42.11329856501714" lon="12.816464258688088"><ele>699.5</ele><time>2026-04-12T09:16:52.998Z</time></trkpt><trkpt lat="42.11326610690092" lon="12.816654434471074"><ele>701.75</ele><time>2026-04-12T09:16:53.998Z</time></trkpt><trkpt lat="42.113231704280906" lon="12.81684448446442"><ele>704.0</ele><time>2026-04-12T09:16:54.998Z</time></trkpt><trkpt lat="42.11321533173044" lon="12.817034144171515"><ele>713.75</ele><time>2026-04-12T09:16:55.998Z</time></trkpt><trkpt lat="42.11319708382467" lon="12.817226820016865"><ele>723.5</ele><time>2026-04-12T09:16:56.998Z</time></trkpt><trkpt lat="42.113175730931204" lon="12.817419931301378"><ele>733.25</ele><time>2026-04-12T09:16:57.998Z</time></trkpt><trkpt lat="42.113162711452894" lon="12.81761400767649"><ele>743.0</ele><time>2026-04-12T09:16:58.998Z</time></trkpt><trkpt lat="42.113157011871586" lon="12.817798463265353"><ele>744.5</ele><time>2026-04-12T09:16:59.998Z</time></trkpt><trkpt lat="42.11317729342894" lon="12.817982020447376"><ele>746.0</ele><time>2026-04-12T09:17:01Z</time></trkpt><trkpt lat="42.11322055801734" lon="12.818164562169251"><ele>747.5</ele><time>2026-04-12T09:17:02Z</time></trkpt><trkpt lat="42.113212848716124" lon="12.818333471564324"><ele>749.0</ele><time>2026-04-12T09:17:03Z</time></trkpt><trkpt lat="42.11316641537334" lon="12.818502099097913"><ele>751.5</ele><time>2026-04-12T09:17:04Z</time></trkpt><trkpt lat="42.11312015564379" lon="12.818667486755219"><ele>754.0</ele><time>2026-04-12T09:17:05Z</time></trkpt><trkpt lat="42.11307740319138" lon="12.818836351601975"><ele>756.5</ele><time>2026-04-12T09:17:06Z</time></trkpt><trkpt lat="42.113058543963355" lon="12.819013292459355"><ele>759.0</ele><time>2026-04-12T09:17:07Z</time></trkpt><trkpt lat="42.11305849935407" lon="12.819198567495441"><ele>759.5</ele><time>2026-04-12T09:17:08Z</time></trkpt><trkpt lat="42.11309114089399" lon="12.819382354207184"><ele>760.0</ele><time>2026-04-12T09:17:09Z</time></trkpt><trkpt lat="42.11316399893826" lon="12.819541945874075"><ele>760.5</ele><time>2026-04-12T09:17:10Z</time></trkpt><trkpt lat="42.11325084359398" lon="12.819690841416595"><ele>761.0</ele><time>2026-04-12T09:17:11Z</time></trkpt><trkpt lat="42.11331072639946" lon="12.819854981821942"><ele>753.5</ele><time>2026-04-12T09:17:12Z</time></trkpt><trkpt lat="42.11338290281214" lon="12.820019828697617"><ele>746.0</ele><time>2026-04-12T09:17:13Z</time></trkpt><trkpt lat="42.1134226016574" lon="12.820172324958381"><ele>738.5</ele><time>2026-04-12T09:17:14Z</time></trkpt><trkpt lat="42.11345849625011" lon="12.820306822368934"><ele>731.0</ele><time>2026-04-12T09:17:15Z</time></trkpt><trkpt lat="42.11348290640045" lon="12.820422413849926"><ele>730.3333333333333</ele><time>2026-04-12T09:17:16Z</time></trkpt><trkpt lat="42.11350907970179" lon="12.820531132357113"><ele>729.6666666666666</ele><time>2026-04-12T09:17:17Z</time></trkpt><trkpt lat="42.1134967974253" lon="12.82063700350576"><ele>729.0</ele><time>2026-04-12T09:17:18Z</time></trkpt><trkpt lat="42.11348604889751" lon="12.820732080126119"><ele>728.3333333333334</ele><time>2026-04-12T09:17:19Z</time></trkpt><trkpt lat="42.11345375244157" lon="12.82081318540477"><ele>727.6666666666667</ele><time>2026-04-12T09:17:20Z</time></trkpt><trkpt lat="42.11337743307349" lon="12.820887641369445"><ele>727.0</ele><time>2026-04-12T09:17:22Z</time></trkpt><trkpt lat="42.11335227303232" lon="12.820999829925807"><ele>726.2</ele><time>2026-04-12T09:18:06.999Z</time></trkpt><trkpt lat="42.11326105191266" lon="12.821122639807278"><ele>725.4000000000001</ele><time>2026-04-12T09:18:08.999Z</time></trkpt><trkpt lat="42.113222918562805" lon="12.821214216723192"><ele>724.5999999999999</ele><time>2026-04-12T09:18:09.999Z</time></trkpt><trkpt lat="42.11316050099205" lon="12.821303739490844"><ele>723.8</ele><time>2026-04-12T09:18:10.999Z</time></trkpt><trkpt lat="42.113077804968974" lon="12.82136886016831"><ele>723.0</ele><time>2026-04-12T09:18:11.999Z</time></trkpt><trkpt lat="42.113012296415526" lon="12.821465058275118"><ele>726.25</ele><time>2026-04-12T09:18:12.999Z</time></trkpt><trkpt lat="42.1129358480805" lon="12.821573842179518"><ele>729.5</ele><time>2026-04-12T09:18:13.999Z</time></trkpt><trkpt lat="42.11285268293137" lon="12.821672618540264"><ele>732.75</ele><time>2026-04-12T09:18:14.999Z</time></trkpt><trkpt lat="42.11276050444717" lon="12.821775856630573"><ele>736.0</ele><time>2026-04-12T09:18:15.999Z</time></trkpt><trkpt lat="42.11266996654067" lon="12.821879106535778"><ele>736.0</ele><time>2026-04-12T09:18:16.999Z</time></trkpt><trkpt lat="42.11257068058549" lon="12.821979369045552"><ele>736.0</ele><time>2026-04-12T09:18:17.999Z</time></trkpt><trkpt lat="42.11246062010013" lon="12.822069921320626"><ele>736.0</ele><time>2026-04-12T09:18:18.999Z</time></trkpt><trkpt lat="42.1123431947619" lon="12.822120361490468"><ele>736.0</ele><time>2026-04-12T09:18:19.999Z</time></trkpt><trkpt lat="42.11222625549659" lon="12.822128169848291"><ele>736.75</ele><time>2026-04-12T09:18:20.999Z</time></trkpt><trkpt lat="42.112101388290725" lon="12.822152205865601"><ele>737.5</ele><time>2026-04-12T09:18:21.999Z</time></trkpt><trkpt lat="42.111979706274376" lon="12.822180122291027"><ele>738.25</ele><time>2026-04-12T09:18:22.999Z</time></trkpt><trkpt lat="42.11186311144909" lon="12.822189344612132"><ele>739.0</ele><time>2026-04-12T09:18:23.999Z</time></trkpt><trkpt lat="42.11174082874129" lon="12.822204429150434"><ele>739.0</ele><time>2026-04-12T09:18:24.999Z</time></trkpt><trkpt lat="42.111617360698546" lon="12.822218950895246"><ele>739.0</ele><time>2026-04-12T09:18:25.999Z</time></trkpt><trkpt lat="42.11148895667775" lon="12.822247148922274"><ele>739.0</ele><time>2026-04-12T09:18:26.999Z</time></trkpt><trkpt lat="42.111359455812135" lon="12.822263795138864"><ele>739.0</ele><time>2026-04-12T09:18:27.999Z</time></trkpt><trkpt lat="42.11122871568566" lon="12.822278413391745"><ele>739.0</ele><time>2026-04-12T09:18:28.999Z</time></trkpt><trkpt lat="42.11111033870911" lon="12.822293885555972"><ele>739.0</ele><time>2026-04-12T09:18:29.999Z</time></trkpt><trkpt lat="42.11099865811717" lon="12.822311306265162"><ele>739.0</ele><time>2026-04-12T09:18:30.999Z</time></trkpt><trkpt lat="42.11088973733242" lon="12.822323898406216"><ele>739.0</ele><time>2026-04-12T09:18:31.999Z</time></trkpt><trkpt lat="42.11077942133296" lon="12.822343978177445"><ele>742.2</ele><time>2026-04-12T09:18:32.999Z</time></trkpt><trkpt lat="42.110671844464136" lon="12.822372772942925"><ele>745.4000000000001</ele><time>2026-04-12T09:18:33.999Z</time></trkpt><trkpt lat="42.110567484664486" lon="12.82240155066411"><ele>748.6</ele><time>2026-04-12T09:18:34.999Z</time></trkpt><trkpt lat="42.1104682220627" lon="12.822451057459379"><ele>751.8</ele><time>2026-04-12T09:18:35.999Z</time></trkpt><trkpt lat="42.11038169838488" lon="12.822488146720955"><ele>755.0</ele><time>2026-04-12T09:18:36.999Z</time></trkpt><trkpt lat="42.110291498315206" lon="12.822565368506375"><ele>755.0</ele><time>2026-04-12T09:18:37.999Z</time></trkpt><trkpt lat="42.11020067276413" lon="12.822633645197078"><ele>755.0</ele><time>2026-04-12T09:18:38.999Z</time></trkpt><trkpt lat="42.11011749561128" lon="12.822720450348298"><ele>755.0</ele><time>2026-04-12T09:18:39.999Z</time></trkpt><trkpt lat="42.11005157702285" lon="12.822803977863467"><ele>755.0</ele><time>2026-04-12T09:18:40.999Z</time></trkpt><trkpt lat="42.10998960484772" lon="12.82291696221413"><ele>755.0</ele><time>2026-04-12T09:18:41.999Z</time></trkpt><trkpt lat="42.10993029164123" lon="12.823030520695083"><ele>755.0</ele><time>2026-04-12T09:18:42.999Z</time></trkpt><trkpt lat="42.1098712006962" lon="12.823151737554573"><ele>755.0</ele><time>2026-04-12T09:18:43.999Z</time></trkpt><trkpt lat="42.109805790284796" lon="12.823279866331779"><ele>755.0</ele><time>2026-04-12T09:18:44.999Z</time></trkpt><trkpt lat="42.10974835174126" lon="12.823434413414418"><ele>755.0</ele><time>2026-04-12T09:18:45.999Z</time></trkpt><trkpt lat="42.10969665072199" lon="12.823594761670567"><ele>755.0</ele><time>2026-04-12T09:18:46.999Z</time></trkpt><trkpt lat="42.10963847552726" lon="12.823756034873508"><ele>755.0</ele><time>2026-04-12T09:18:47.998Z</time></trkpt><trkpt lat="42.10958012260322" lon="12.82392689164573"><ele>755.0</ele><time>2026-04-12T09:18:48.998Z</time></trkpt><trkpt lat="42.10953050898941" lon="12.824100767823657"><ele>755.0</ele><time>2026-04-12T09:18:49.998Z</time></trkpt><trkpt lat="42.10947269664094" lon="12.824266051708008"><ele>755.25</ele><time>2026-04-12T09:18:50.998Z</time></trkpt><trkpt lat="42.109417048614574" lon="12.824429671392984"><ele>755.5</ele><time>2026-04-12T09:18:51.998Z</time></trkpt><trkpt lat="42.10936558660542" lon="12.824599077525882"><ele>755.75</ele><time>2026-04-12T09:18:52.998Z</time></trkpt><trkpt lat="42.10929798953982" lon="12.824782909226933"><ele>756.0</ele><time>2026-04-12T09:18:53.998Z</time></trkpt><trkpt lat="42.109242069323194" lon="12.82495872487163"><ele>756.0</ele><time>2026-04-12T09:18:54.998Z</time></trkpt><trkpt lat="42.10918760070005" lon="12.825142710287885"><ele>756.0</ele><time>2026-04-12T09:18:55.998Z</time></trkpt><trkpt lat="42.10913085962273" lon="12.825322686200876"><ele>756.0</ele><time>2026-04-12T09:18:56.998Z</time></trkpt><trkpt lat="42.10907957158045" lon="12.825500113367712"><ele>756.0</ele><time>2026-04-12T09:18:57.998Z</time></trkpt><trkpt lat="42.109019716174444" lon="12.82567534487914"><ele>761.0</ele><time>2026-04-12T09:18:58.998Z</time></trkpt><trkpt lat="42.108965828161246" lon="12.825851520949184"><ele>766.0</ele><time>2026-04-12T09:18:59.998Z</time></trkpt><trkpt lat="42.10891163578869" lon="12.82603840714978"><ele>771.0</ele><time>2026-04-12T09:19:00.998Z</time></trkpt><trkpt lat="42.10885560461393" lon="12.826218037661977"><ele>776.0</ele><time>2026-04-12T09:19:01.998Z</time></trkpt><trkpt lat="42.10880315164777" lon="12.826393194499598"><ele>776.0</ele><time>2026-04-12T09:19:02.998Z</time></trkpt><trkpt lat="42.10874891701381" lon="12.826574062448227"><ele>776.0</ele><time>2026-04-12T09:19:03.998Z</time></trkpt><trkpt lat="42.10868747484529" lon="12.826742903080316"><ele>776.0</ele><time>2026-04-12T09:19:04.998Z</time></trkpt><trkpt lat="42.10861611757902" lon="12.82687947839431"><ele>776.0</ele><time>2026-04-12T09:19:05.998Z</time></trkpt><trkpt lat="42.10851771871127" lon="12.826981778845518"><ele>776.25</ele><time>2026-04-12T09:19:07Z</time></trkpt><trkpt lat="42.108413117490485" lon="12.827035610505247"><ele>776.5</ele><time>2026-04-12T09:19:08Z</time></trkpt><trkpt lat="42.10826799200809" lon="12.827062249905685"><ele>776.75</ele><time>2026-04-12T09:19:09Z</time></trkpt><trkpt lat="42.10814627242326" lon="12.827079201097376"><ele>777.0</ele><time>2026-04-12T09:19:10Z</time></trkpt><trkpt lat="42.10803307488447" lon="12.82711814856476"><ele>777.0</ele><time>2026-04-12T09:19:11Z</time></trkpt><trkpt lat="42.107915970655355" lon="12.82715615868354"><ele>777.0</ele><time>2026-04-12T09:19:12Z</time></trkpt><trkpt lat="42.10780644841657" lon="12.827207456972388"><ele>777.0</ele><time>2026-04-12T09:19:13Z</time></trkpt><trkpt lat="42.10770973746707" lon="12.827259317325286"><ele>777.0</ele><time>2026-04-12T09:19:14Z</time></trkpt><trkpt lat="42.107620658850244" lon="12.82731810006699"><ele>777.0</ele><time>2026-04-12T09:19:15Z</time></trkpt><trkpt lat="42.10753736706875" lon="12.827379379400789"><ele>777.0</ele><time>2026-04-12T09:19:16Z</time></trkpt><trkpt lat="42.107466607405975" lon="12.827425881236527"><ele>777.0</ele><time>2026-04-12T09:19:17Z</time></trkpt><trkpt lat="42.10740188149327" lon="12.827473350099845"><ele>777.0</ele><time>2026-04-12T09:19:18Z</time></trkpt><trkpt lat="42.10730514162034" lon="12.827554075576876"><ele>777.0</ele><time>2026-04-12T09:19:20Z</time></trkpt><trkpt lat="42.10724159770548" lon="12.827613578052722"><ele>777.0</ele><time>2026-04-12T09:19:22Z</time></trkpt><trkpt lat="42.10717682786602" lon="12.827640978684977"><ele>777.0</ele><time>2026-04-12T09:19:25Z</time></trkpt><trkpt lat="42.10710291511522" lon="12.827696130383393"><ele>776.2</ele><time>2026-04-12T09:19:54.999Z</time></trkpt><trkpt lat="42.107024852849875" lon="12.827740482968274"><ele>775.4000000000001</ele><time>2026-04-12T09:19:56.999Z</time></trkpt><trkpt lat="42.10694753591339" lon="12.827755451278888"><ele>774.5999999999999</ele><time>2026-04-12T09:19:57.999Z</time></trkpt><trkpt lat="42.1068546500705" lon="12.827775834552256"><ele>773.8</ele><time>2026-04-12T09:19:58.999Z</time></trkpt><trkpt lat="42.10674972355652" lon="12.827756960465061"><ele>773.0</ele><time>2026-04-12T09:19:59.999Z</time></trkpt><trkpt lat="42.10663555088641" lon="12.827706034307072"><ele>772.0</ele><time>2026-04-12T09:20:00.999Z</time></trkpt><trkpt lat="42.10651837213733" lon="12.827626410782951"><ele>771.0</ele><time>2026-04-12T09:20:01.999Z</time></trkpt><trkpt lat="42.10639876342432" lon="12.827538978458017"><ele>770.0</ele><time>2026-04-12T09:20:02.999Z</time></trkpt><trkpt lat="42.106283518508846" lon="12.827454626252663"><ele>769.0</ele><time>2026-04-12T09:20:03.999Z</time></trkpt><trkpt lat="42.106206970677654" lon="12.827373638927874"><ele>768.9999999999999</ele><time>2026-04-12T09:20:04.999Z</time></trkpt><trkpt lat="42.10613625834834" lon="12.827331234618335"><ele>769.0</ele><time>2026-04-12T09:20:05.999Z</time></trkpt><trkpt lat="42.10606174611092" lon="12.827305180757138"><ele>769.0</ele><time>2026-04-12T09:20:07.999Z</time></trkpt><trkpt lat="42.10612369711241" lon="12.827372167903992"><ele>769.0</ele><time>2026-04-12T09:20:10.999Z</time></trkpt><trkpt lat="42.106203749911245" lon="12.827430606788289"><ele>768.9999999999999</ele><time>2026-04-12T09:20:13.999Z</time></trkpt><trkpt lat="42.10626228379161" lon="12.827483239957477"><ele>769.0</ele><time>2026-04-12T09:20:14.999Z</time></trkpt><trkpt lat="42.10635264448408" lon="12.827542730053251"><ele>769.0</ele><time>2026-04-12T09:20:16.999Z</time></trkpt><trkpt lat="42.106329049099905" lon="12.82743082386786"><ele>769.0</ele><time>2026-04-12T09:20:21.999Z</time></trkpt><trkpt lat="42.10620259844423" lon="12.827396717733931"><ele>769.0</ele><time>2026-04-12T09:20:23.999Z</time></trkpt><trkpt lat="42.106117208746106" lon="12.827329435191812"><ele>769.0</ele><time>2026-04-12T09:20:25.999Z</time></trkpt><trkpt lat="42.10604704252611" lon="12.827300192519326"><ele>769.0</ele><time>2026-04-12T09:20:27.999Z</time></trkpt><trkpt lat="42.10596312183855" lon="12.827198925569153"><ele>769.0</ele><time>2026-04-12T09:20:29.999Z</time></trkpt><trkpt lat="42.105864193406" lon="12.827143484425473"><ele>769.0</ele><time>2026-04-12T09:20:31.999Z</time></trkpt><trkpt lat="42.10578550159533" lon="12.82707181008207"><ele>769.0</ele><time>2026-04-12T09:20:33.999Z</time></trkpt><trkpt lat="42.10571569811111" lon="12.827008982246046"><ele>769.0</ele><time>2026-04-12T09:20:35.999Z</time></trkpt><trkpt lat="42.10580367187369" lon="12.8270644285479"><ele>769.0</ele><time>2026-04-12T09:20:41.999Z</time></trkpt><trkpt lat="42.10586352824049" lon="12.826952371492002"><ele>769.0</ele><time>2026-04-12T09:20:43.999Z</time></trkpt><trkpt lat="42.10582123692765" lon="12.826883961031028"><ele>769.0</ele><time>2026-04-12T09:20:47.999Z</time></trkpt><trkpt lat="42.10574865934591" lon="12.826910243279677"><ele>769.0</ele><time>2026-04-12T09:20:49.999Z</time></trkpt><trkpt lat="42.105637350983876" lon="12.82686562358889"><ele>769.0</ele><time>2026-04-12T09:20:52.998Z</time></trkpt><trkpt lat="42.105544110111744" lon="12.826798361126047"><ele>769.0</ele><time>2026-04-12T09:20:54.998Z</time></trkpt><trkpt lat="42.10546754935125" lon="12.826713451352218"><ele>767.9999999999999</ele><time>2026-04-12T09:20:57.998Z</time></trkpt><trkpt lat="42.1054070068754" lon="12.826667406713955"><ele>767.0</ele><time>2026-04-12T09:20:59.998Z</time></trkpt><trkpt lat="42.10533340152687" lon="12.82663036068012"><ele>766.0</ele><time>2026-04-12T09:21:01.998Z</time></trkpt><trkpt lat="42.105243846163376" lon="12.826655643656114"><ele>765.0</ele><time>2026-04-12T09:21:03.998Z</time></trkpt><trkpt lat="42.10517956543154" lon="12.826707278683244"><ele>764.0</ele><time>2026-04-12T09:21:05.998Z</time></trkpt><trkpt lat="42.10510986653375" lon="12.826681673267592"><ele>763.0</ele><time>2026-04-12T09:21:07.998Z</time></trkpt><trkpt lat="42.10502840984054" lon="12.826635810895022"><ele>763.0</ele><time>2026-04-12T09:21:09.998Z</time></trkpt><trkpt lat="42.104935588410676" lon="12.826592856362376"><ele>763.0</ele><time>2026-04-12T09:21:13Z</time></trkpt><trkpt lat="42.1048628381039" lon="12.826565670823097"><ele>763.0</ele><time>2026-04-12T09:21:15Z</time></trkpt><trkpt lat="42.10479980821378" lon="12.826558643359808"><ele>763.0</ele><time>2026-04-12T09:21:17Z</time></trkpt><trkpt lat="42.10472679589253" lon="12.826533007712102"><ele>763.0</ele><time>2026-04-12T09:21:19Z</time></trkpt><trkpt lat="42.10465900865073" lon="12.826497988194927"><ele>763.0</ele><time>2026-04-12T09:21:21Z</time></trkpt><trkpt lat="42.104597662284874" lon="12.826435294973148"><ele>762.5</ele><time>2026-04-12T09:21:23Z</time></trkpt><trkpt lat="42.10453420291573" lon="12.826383285007578"><ele>762.0</ele><time>2026-04-12T09:21:25Z</time></trkpt><trkpt lat="42.10444192803206" lon="12.826393617115814"><ele>761.5</ele><time>2026-04-12T09:21:27Z</time></trkpt><trkpt lat="42.1043799528871" lon="12.826408755662746"><ele>761.0</ele><time>2026-04-12T09:21:29Z</time></trkpt><trkpt lat="42.10429544102579" lon="12.82639314698007"><ele>760.5</ele><time>2026-04-12T09:21:33Z</time></trkpt><trkpt lat="42.10420493677392" lon="12.82636757036358"><ele>760.0</ele><time>2026-04-12T09:21:36Z</time></trkpt><trkpt lat="42.10409140705706" lon="12.826334259812441"><ele>761.1666666666667</ele><time>2026-04-12T09:21:38Z</time></trkpt><trkpt lat="42.10399475015871" lon="12.826291810056643"><ele>762.3333333333334</ele><time>2026-04-12T09:21:40Z</time></trkpt><trkpt lat="42.10391145412724" lon="12.826276542926358"><ele>763.5</ele><time>2026-04-12T09:21:42Z</time></trkpt><trkpt lat="42.103979270241645" lon="12.826289164303885"><ele>764.6666666666666</ele><time>2026-04-12T09:22:24.999Z</time></trkpt><trkpt lat="42.10405588143678" lon="12.826363717712178"><ele>765.8333333333333</ele><time>2026-04-12T09:22:27.999Z</time></trkpt><trkpt lat="42.104033995275294" lon="12.826451675873825"><ele>767.0</ele><time>2026-04-12T09:22:29.999Z</time></trkpt><trkpt lat="42.1039530635783" lon="12.826469434671049"><ele>767.0</ele><time>2026-04-12T09:22:33.999Z</time></trkpt><trkpt lat="42.10384326479593" lon="12.826561941913834"><ele>767.0</ele><time>2026-04-12T09:22:36.999Z</time></trkpt><trkpt lat="42.10377306754201" lon="12.826624239805561"><ele>767.0</ele><time>2026-04-12T09:22:39.999Z</time></trkpt><trkpt lat="42.10367889415193" lon="12.82667102268708"><ele>767.0</ele><time>2026-04-12T09:22:42.999Z</time></trkpt><trkpt lat="42.10359923589971" lon="12.82668819968038"><ele>767.0</ele><time>2026-04-12T09:22:45.999Z</time></trkpt><trkpt lat="42.10351605785611" lon="12.826700275516988"><ele>767.0</ele><time>2026-04-12T09:22:48.999Z</time></trkpt><trkpt lat="42.10344125453383" lon="12.826662204288803"><ele>767.0</ele><time>2026-04-12T09:22:52.999Z</time></trkpt><trkpt lat="42.10336486297297" lon="12.82665797749744"><ele>767.0</ele><time>2026-04-12T09:23:08.998Z</time></trkpt><trkpt lat="42.10328644872238" lon="12.826625803562106"><ele>767.0</ele><time>2026-04-12T09:23:12.998Z</time></trkpt><trkpt lat="42.103219414093445" lon="12.826596070625786"><ele>767.0</ele><time>2026-04-12T09:23:15.998Z</time></trkpt><trkpt lat="42.10315222463709" lon="12.826572111287447"><ele>767.0</ele><time>2026-04-12T09:23:17.998Z</time></trkpt><trkpt lat="42.10306612459067" lon="12.826540366953939"><ele>766.8</ele><time>2026-04-12T09:23:20Z</time></trkpt><trkpt lat="42.1029475456719" lon="12.826492171619508"><ele>766.6</ele><time>2026-04-12T09:23:22Z</time></trkpt><trkpt lat="42.10286983431796" lon="12.826463898286107"><ele>766.4</ele><time>2026-04-12T09:23:23Z</time></trkpt><trkpt lat="42.10276968880455" lon="12.826452293438942"><ele>766.1999999999999</ele><time>2026-04-12T09:23:24Z</time></trkpt><trkpt lat="42.10266190992695" lon="12.826449500577816"><ele>766.0</ele><time>2026-04-12T09:23:25Z</time></trkpt><trkpt lat="42.10255560162954" lon="12.826459575026632"><ele>766.0</ele><time>2026-04-12T09:23:26Z</time></trkpt><trkpt lat="42.10244919293174" lon="12.8264681606278"><ele>766.0</ele><time>2026-04-12T09:23:27Z</time></trkpt><trkpt lat="42.102329046531956" lon="12.826484941523596"><ele>766.0</ele><time>2026-04-12T09:23:28Z</time></trkpt><trkpt lat="42.10221489091007" lon="12.826501378350004"><ele>766.0</ele><time>2026-04-12T09:23:29Z</time></trkpt><trkpt lat="42.10212480157429" lon="12.826492903884082"><ele>766.0</ele><time>2026-04-12T09:23:30Z</time></trkpt><trkpt lat="42.10202790692038" lon="12.826484857482239"><ele>766.4</ele><time>2026-04-12T09:23:31Z</time></trkpt><trkpt lat="42.10194106321111" lon="12.82647396916202"><ele>766.8</ele><time>2026-04-12T09:23:32Z</time></trkpt><trkpt lat="42.101849491284256" lon="12.826456722802925"><ele>767.1999999999999</ele><time>2026-04-12T09:23:33Z</time></trkpt><trkpt lat="42.10174985884263" lon="12.826500794367238"><ele>767.5999999999999</ele><time>2026-04-12T09:23:34Z</time></trkpt><trkpt lat="42.101655492685786" lon="12.826543507888047"><ele>768.0</ele><time>2026-04-12T09:23:35Z</time></trkpt><trkpt lat="42.10154475116298" lon="12.826589564036784"><ele>771.25</ele><time>2026-04-12T09:23:36Z</time></trkpt><trkpt lat="42.10144018714113" lon="12.82662984311405"><ele>774.5</ele><time>2026-04-12T09:23:37Z</time></trkpt><trkpt lat="42.101329387726416" lon="12.82665652089184"><ele>777.75</ele><time>2026-04-12T09:23:38Z</time></trkpt><trkpt lat="42.10121498609968" lon="12.826695322679733"><ele>781.0</ele><time>2026-04-12T09:23:39Z</time></trkpt><trkpt lat="42.10110761893354" lon="12.826734866538493"><ele>780.9999999999999</ele><time>2026-04-12T09:23:40Z</time></trkpt><trkpt lat="42.10103183479201" lon="12.826771767115138"><ele>781.0</ele><time>2026-04-12T09:23:41Z</time></trkpt><trkpt lat="42.1009585811482" lon="12.826822024913483"><ele>781.0</ele><time>2026-04-12T09:23:43Z</time></trkpt><trkpt lat="42.10090537781651" lon="12.826889284466649"><ele>781.0</ele><time>2026-04-12T09:24:25.999Z</time></trkpt><trkpt lat="42.10080358164121" lon="12.82695687248906"><ele>780.9999999999999</ele><time>2026-04-12T09:24:27.999Z</time></trkpt><trkpt lat="42.10071713966589" lon="12.827025026164636"><ele>781.0</ele><time>2026-04-12T09:24:28.999Z</time></trkpt><trkpt lat="42.10063768490153" lon="12.827045433681398"><ele>779.5999999999999</ele><time>2026-04-12T09:24:29.999Z</time></trkpt><trkpt lat="42.100553257190185" lon="12.827069424000499"><ele>778.2</ele><time>2026-04-12T09:24:30.999Z</time></trkpt><trkpt lat="42.10047517241262" lon="12.827111873002217"><ele>776.8</ele><time>2026-04-12T09:24:31.999Z</time></trkpt><trkpt lat="42.10040609624575" lon="12.827149021343276"><ele>775.4000000000001</ele><time>2026-04-12T09:24:32.999Z</time></trkpt><trkpt lat="42.10028117520088" lon="12.827163177916496"><ele>774.0</ele><time>2026-04-12T09:24:34.999Z</time></trkpt><trkpt lat="42.10016793663732" lon="12.82719085382109"><ele>774.0</ele><time>2026-04-12T09:24:36.999Z</time></trkpt><trkpt lat="42.10007315322825" lon="12.827216289373538"><ele>774.0</ele><time>2026-04-12T09:24:38.999Z</time></trkpt><trkpt lat="42.100000494092846" lon="12.827264309645596"><ele>774.0</ele><time>2026-04-12T09:24:40.999Z</time></trkpt><trkpt lat="42.099957255284096" lon="12.827193336294341"><ele>774.0</ele><time>2026-04-12T09:24:44.999Z</time></trkpt><trkpt lat="42.099978246104875" lon="12.827046048271892"><ele>774.0</ele><time>2026-04-12T09:24:47.999Z</time></trkpt><trkpt lat="42.09997989876531" lon="12.826937518005833"><ele>774.0</ele><time>2026-04-12T09:24:49.999Z</time></trkpt><trkpt lat="42.09996343885351" lon="12.826805635033114"><ele>774.1428571428571</ele><time>2026-04-12T09:25:04.998Z</time></trkpt><trkpt lat="42.09991303714685" lon="12.826752073157076"><ele>774.2857142857143</ele><time>2026-04-12T09:25:05.998Z</time></trkpt><trkpt lat="42.0998567522473" lon="12.826704027059296"><ele>774.4285714285713</ele><time>2026-04-12T09:25:06.998Z</time></trkpt><trkpt lat="42.09979916820964" lon="12.826665991156263"><ele>774.5714285714286</ele><time>2026-04-12T09:25:07.998Z</time></trkpt><trkpt lat="42.09971032794562" lon="12.826582504722953"><ele>774.7142857142857</ele><time>2026-04-12T09:25:09.998Z</time></trkpt><trkpt lat="42.09965656295439" lon="12.826504462134166"><ele>774.8571428571428</ele><time>2026-04-12T09:25:12.998Z</time></trkpt><trkpt lat="42.09960183485392" lon="12.826455673430093"><ele>775.0</ele><time>2026-04-12T09:25:14.998Z</time></trkpt><trkpt lat="42.099533749242376" lon="12.826386001704554"><ele>774.9999999999999</ele><time>2026-04-12T09:25:16.998Z</time></trkpt><trkpt lat="42.09947814568039" lon="12.826329519910551"><ele>775.0</ele><time>2026-04-12T09:25:18.998Z</time></trkpt><trkpt lat="42.099413987513536" lon="12.826254762668862"><ele>775.0</ele><time>2026-04-12T09:25:20.998Z</time></trkpt><trkpt lat="42.09935731962287" lon="12.826195328058262"><ele>775.0</ele><time>2026-04-12T09:25:22.998Z</time></trkpt><trkpt lat="42.09927986937876" lon="12.826142429730806"><ele>774.9999999999999</ele><time>2026-04-12T09:25:25Z</time></trkpt><trkpt lat="42.09921680027486" lon="12.826087628463027"><ele>775.0</ele><time>2026-04-12T09:25:27Z</time></trkpt><trkpt lat="42.099155782841486" lon="12.826039442914567"><ele>774.9999999999999</ele><time>2026-04-12T09:25:29Z</time></trkpt><trkpt lat="42.09910140767424" lon="12.825987508465964"><ele>775.0</ele><time>2026-04-12T09:25:31Z</time></trkpt><trkpt lat="42.09900914075925" lon="12.8259224644012"><ele>775.0</ele><time>2026-04-12T09:25:33Z</time></trkpt><trkpt lat="42.0989109651244" lon="12.825817420900682"><ele>775.0</ele><time>2026-04-12T09:25:35Z</time></trkpt><trkpt lat="42.09884329296334" lon="12.825750662421882"><ele>774.9999999999999</ele><time>2026-04-12T09:25:36Z</time></trkpt><trkpt lat="42.09879150445599" lon="12.825695977765044"><ele>775.0</ele><time>2026-04-12T09:25:37Z</time></trkpt><trkpt lat="42.09871465588971" lon="12.825597835068328"><ele>775.9999999999999</ele><time>2026-04-12T09:25:39Z</time></trkpt><trkpt lat="42.098636255024566" lon="12.825513649577745"><ele>777.0</ele><time>2026-04-12T09:25:41Z</time></trkpt><trkpt lat="42.09857463241709" lon="12.825440198295427"><ele>778.0</ele><time>2026-04-12T09:25:43Z</time></trkpt><trkpt lat="42.098509370083946" lon="12.825357434515801"><ele>779.0</ele><time>2026-04-12T09:25:45Z</time></trkpt><trkpt lat="42.09845169263945" lon="12.825279204068686"><ele>779.9999999999999</ele><time>2026-04-12T09:25:47Z</time></trkpt><trkpt lat="42.098383070940976" lon="12.825206973175153"><ele>781.0</ele><time>2026-04-12T09:25:49Z</time></trkpt><trkpt lat="42.098319490905915" lon="12.825119619611591"><ele>782.4999999999999</ele><time>2026-04-12T09:25:51Z</time></trkpt><trkpt lat="42.09825728036518" lon="12.825047524540597"><ele>784.0</ele><time>2026-04-12T09:25:53Z</time></trkpt><trkpt lat="42.09819551410557" lon="12.824972893923228"><ele>785.5</ele><time>2026-04-12T09:25:55Z</time></trkpt><trkpt lat="42.098139535933825" lon="12.824886006008118"><ele>787.0</ele><time>2026-04-12T09:25:57Z</time></trkpt><trkpt lat="42.098064932708645" lon="12.824801541404486"><ele>788.4999999999999</ele><time>2026-04-12T09:25:59Z</time></trkpt><trkpt lat="42.09801937440878" lon="12.824736997385223"><ele>790.0</ele><time>2026-04-12T09:26:01Z</time></trkpt><trkpt lat="42.09796054578387" lon="12.824657442056283"><ele>790.4999999999999</ele><time>2026-04-12T09:26:05Z</time></trkpt><trkpt lat="42.09793768633833" lon="12.824533972566732"><ele>791.0</ele><time>2026-04-12T09:26:14.999Z</time></trkpt><trkpt lat="42.09788936148496" lon="12.82460038381244"><ele>791.5</ele><time>2026-04-12T09:26:19.999Z</time></trkpt><trkpt lat="42.097974052429834" lon="12.824645414527419"><ele>792.0</ele><time>2026-04-12T09:26:21.999Z</time></trkpt><trkpt lat="42.09805189990375" lon="12.824647229806144"><ele>792.4999999999999</ele><time>2026-04-12T09:26:23.999Z</time></trkpt><trkpt lat="42.0981072749849" lon="12.824693177408582"><ele>793.0</ele><time>2026-04-12T09:26:26.999Z</time></trkpt><trkpt lat="42.098153452655794" lon="12.824759449562531"><ele>792.9999999999999</ele><time>2026-04-12T09:26:31.999Z</time></trkpt><trkpt lat="42.09810054230902" lon="12.8246862503864"><ele>793.0</ele><time>2026-04-12T09:26:49.999Z</time></trkpt><trkpt lat="42.09803797987859" lon="12.82463885734327"><ele>793.0</ele><time>2026-04-12T09:26:53.999Z</time></trkpt><trkpt lat="42.0979586555392" lon="12.82462083888106"><ele>793.0</ele><time>2026-04-12T09:26:56.999Z</time></trkpt><trkpt lat="42.09789554323897" lon="12.82454448383299"><ele>792.9999999999999</ele><time>2026-04-12T09:26:59.999Z</time></trkpt><trkpt lat="42.097897213522934" lon="12.824632204252548"><ele>793.0</ele><time>2026-04-12T09:27:04.999Z</time></trkpt><trkpt lat="42.09800867549676" lon="12.824656110619403"><ele>792.9999999999999</ele><time>2026-04-12T09:27:06.999Z</time></trkpt><trkpt lat="42.098093345308406" lon="12.824652998863021"><ele>793.0</ele><time>2026-04-12T09:27:08.999Z</time></trkpt><trkpt lat="42.098164411423646" lon="12.824661415968563"><ele>793.0</ele><time>2026-04-12T09:27:11.999Z</time></trkpt><trkpt lat="42.09808356702299" lon="12.824637001169618"><ele>793.0</ele><time>2026-04-12T09:27:15.998Z</time></trkpt><trkpt lat="42.0980156882113" lon="12.824644379869902"><ele>792.9999999999999</ele><time>2026-04-12T09:27:18.998Z</time></trkpt><trkpt lat="42.09793126794287" lon="12.824609696752438"><ele>793.0</ele><time>2026-04-12T09:27:21.998Z</time></trkpt><trkpt lat="42.09789582581731" lon="12.824525700019398"><ele>793.0000000000001</ele><time>2026-04-12T09:27:24.998Z</time></trkpt><trkpt lat="42.09795249803722" lon="12.82460443097639"><ele>793.0</ele><time>2026-04-12T09:27:44Z</time></trkpt><trkpt lat="42.09794522822898" lon="12.824696179671975"><ele>793.0</ele><time>2026-04-12T09:29:53.999Z</time></trkpt><trkpt lat="42.09799785037601" lon="12.824763109166598"><ele>793.0</ele><time>2026-04-12T09:29:55.999Z</time></trkpt><trkpt lat="42.09806266813908" lon="12.824817102603243"><ele>793.0</ele><time>2026-04-12T09:29:58.999Z</time></trkpt><trkpt lat="42.09812865020962" lon="12.824795801431348"><ele>793.0000000000001</ele><time>2026-04-12T09:30:01.999Z</time></trkpt><trkpt lat="42.0981511671561" lon="12.824708038525399"><ele>793.0</ele><time>2026-04-12T09:30:04.999Z</time></trkpt><trkpt lat="42.09807524531794" lon="12.824663605421769"><ele>792.9999999999999</ele><time>2026-04-12T09:30:06.999Z</time></trkpt><trkpt lat="42.097984474868426" lon="12.824635575794513"><ele>793.0</ele><time>2026-04-12T09:30:10.999Z</time></trkpt><trkpt lat="42.09797720190458" lon="12.824741707955784"><ele>793.0</ele><time>2026-04-12T09:30:16.999Z</time></trkpt><trkpt lat="42.098037153947445" lon="12.824791447858749"><ele>793.0</ele><time>2026-04-12T09:30:19.999Z</time></trkpt><trkpt lat="42.09810506493863" lon="12.8248108467336"><ele>792.9999999999999</ele><time>2026-04-12T09:30:22.999Z</time></trkpt><trkpt lat="42.09814964511372" lon="12.824725835290648"><ele>793.0</ele><time>2026-04-12T09:30:25.999Z</time></trkpt><trkpt lat="42.0980746038344" lon="12.824650845700235"><ele>793.0000000000001</ele><time>2026-04-12T09:30:27.999Z</time></trkpt><trkpt lat="42.09799857112359" lon="12.82462738789057"><ele>793.0</ele><time>2026-04-12T09:30:31.999Z</time></trkpt><trkpt lat="42.09794194206767" lon="12.824684307117897"><ele>793.0</ele><time>2026-04-12T09:30:51.999Z</time></trkpt><trkpt lat="42.09800075598292" lon="12.824745333149131"><ele>793.0</ele><time>2026-04-12T09:30:53.999Z</time></trkpt><trkpt lat="42.098057478071446" lon="12.82480949252916"><ele>793.0</ele><time>2026-04-12T09:30:55.999Z</time></trkpt><trkpt lat="42.09800941600882" lon="12.824739150906836"><ele>793.0000000000001</ele><time>2026-04-12T09:32:44.999Z</time></trkpt><trkpt lat="42.097960099306476" lon="12.824653767240571"><ele>793.0</ele><time>2026-04-12T09:32:51.999Z</time></trkpt><trkpt lat="42.09794948981959" lon="12.824561278292084"><ele>792.9999999999999</ele><time>2026-04-12T09:32:53.999Z</time></trkpt><trkpt lat="42.097889878796664" lon="12.824465393026669"><ele>793.0</ele><time>2026-04-12T09:34:06.999Z</time></trkpt><trkpt lat="42.09788196368483" lon="12.824369751879011"><ele>793.0</ele><time>2026-04-12T09:34:12.999Z</time></trkpt><trkpt lat="42.09790546963336" lon="12.824277814813023"><ele>793.0</ele><time>2026-04-12T09:34:17.999Z</time></trkpt><trkpt lat="42.09791431740517" lon="12.824185902399924"><ele>792.9999999999999</ele><time>2026-04-12T09:34:22.999Z</time></trkpt><trkpt lat="42.097922407317206" lon="12.82409173665214"><ele>793.0</ele><time>2026-04-12T09:34:26.999Z</time></trkpt><trkpt lat="42.09791221400098" lon="12.82397793390512"><ele>791.4999999999999</ele><time>2026-04-12T09:34:29.999Z</time></trkpt><trkpt lat="42.09791532871159" lon="12.823866226966503"><ele>790.0</ele><time>2026-04-12T09:34:32.999Z</time></trkpt><trkpt lat="42.097933764669264" lon="12.823778222180477"><ele>788.5</ele><time>2026-04-12T09:34:35.999Z</time></trkpt><trkpt lat="42.09793546115344" lon="12.823674616635214"><ele>787.0</ele><time>2026-04-12T09:34:38.999Z</time></trkpt><trkpt lat="42.09792996039902" lon="12.823568850102282"><ele>785.4999999999999</ele><time>2026-04-12T09:34:42.999Z</time></trkpt><trkpt lat="42.09796803516316" lon="12.823470978819273"><ele>784.0</ele><time>2026-04-12T09:34:46.999Z</time></trkpt><trkpt lat="42.09800327337762" lon="12.823393710667"><ele>784.3333333333333</ele><time>2026-04-12T09:34:49.999Z</time></trkpt><trkpt lat="42.098048538920665" lon="12.823301832694906"><ele>784.6666666666666</ele><time>2026-04-12T09:34:53.999Z</time></trkpt><trkpt lat="42.098100286915226" lon="12.823251586672574"><ele>785.0</ele><time>2026-04-12T09:34:55.999Z</time></trkpt><trkpt lat="42.09817637116905" lon="12.82321561225628"><ele>785.3333333333333</ele><time>2026-04-12T09:34:58.999Z</time></trkpt><trkpt lat="42.09821812669797" lon="12.823144266536904"><ele>785.6666666666666</ele><time>2026-04-12T09:35:01.999Z</time></trkpt><trkpt lat="42.09828688650852" lon="12.82309462104087"><ele>786.0</ele><time>2026-04-12T09:35:04.999Z</time></trkpt><trkpt lat="42.09833857638919" lon="12.822993875587574"><ele>786.0</ele><time>2026-04-12T09:35:08.999Z</time></trkpt><trkpt lat="42.098362716831815" lon="12.82288679362913"><ele>786.0</ele><time>2026-04-12T09:35:11.999Z</time></trkpt><trkpt lat="42.09834874836311" lon="12.822791025436274"><ele>786.0</ele><time>2026-04-12T09:35:14.999Z</time></trkpt><trkpt lat="42.098335445246484" lon="12.822693528088235"><ele>786.0</ele><time>2026-04-12T09:35:17.999Z</time></trkpt><trkpt lat="42.09835063663075" lon="12.822584351741297"><ele>786.0</ele><time>2026-04-12T09:35:20.999Z</time></trkpt><trkpt lat="42.09831548986929" lon="12.822487776305822"><ele>786.0</ele><time>2026-04-12T09:35:23.999Z</time></trkpt><trkpt lat="42.098308690911075" lon="12.822395287165918"><ele>784.3333333333334</ele><time>2026-04-12T09:35:26.999Z</time></trkpt><trkpt lat="42.098274956795095" lon="12.822320634639425"><ele>782.6666666666667</ele><time>2026-04-12T09:35:30.999Z</time></trkpt><trkpt lat="42.09826253939568" lon="12.82220536649785"><ele>781.0</ele><time>2026-04-12T09:35:33.999Z</time></trkpt><trkpt lat="42.098235234204125" lon="12.822126196863309"><ele>779.3333333333334</ele><time>2026-04-12T09:35:35.999Z</time></trkpt><trkpt lat="42.09819685414869" lon="12.822035134828797"><ele>777.6666666666667</ele><time>2026-04-12T09:35:37.999Z</time></trkpt><trkpt lat="42.09815811317401" lon="12.821949181713713"><ele>776.0</ele><time>2026-04-12T09:35:40.999Z</time></trkpt><trkpt lat="42.098103395080365" lon="12.821849934235"><ele>772.0</ele><time>2026-04-12T09:35:44.999Z</time></trkpt><trkpt lat="42.0980527435498" lon="12.821774208159148"><ele>768.0</ele><time>2026-04-12T09:35:47.999Z</time></trkpt><trkpt lat="42.098013582698584" lon="12.821706593355053"><ele>764.0</ele><time>2026-04-12T09:35:49.999Z</time></trkpt><trkpt lat="42.097966093066894" lon="12.82162711370494"><ele>760.0</ele><time>2026-04-12T09:35:52.999Z</time></trkpt><trkpt lat="42.09791866521302" lon="12.82156107905387"><ele>756.0</ele><time>2026-04-12T09:35:56Z</time></trkpt><trkpt lat="42.097865311162096" lon="12.821495943194684"><ele>752.0</ele><time>2026-04-12T09:35:59Z</time></trkpt><trkpt lat="42.0978149549319" lon="12.821438029596099"><ele>748.0</ele><time>2026-04-12T09:36:02Z</time></trkpt><trkpt lat="42.09776291601997" lon="12.821377402843668"><ele>748.0</ele><time>2026-04-12T09:36:05Z</time></trkpt><trkpt lat="42.09771007062548" lon="12.82130994477512"><ele>748.0</ele><time>2026-04-12T09:36:09Z</time></trkpt><trkpt lat="42.097641111035685" lon="12.821246148618352"><ele>748.0</ele><time>2026-04-12T09:36:14Z</time></trkpt><trkpt lat="42.09759483727866" lon="12.821178074325054"><ele>748.0</ele><time>2026-04-12T09:36:18Z</time></trkpt><trkpt lat="42.09754305421795" lon="12.821107154612134"><ele>748.0</ele><time>2026-04-12T09:36:23Z</time></trkpt><trkpt lat="42.09749996774858" lon="12.821043477851447"><ele>748.0</ele><time>2026-04-12T09:36:29Z</time></trkpt><trkpt lat="42.09744207816576" lon="12.820974100136842"><ele>748.0</ele><time>2026-04-12T09:36:34Z</time></trkpt><trkpt lat="42.09739022899118" lon="12.820909025849144"><ele>746.7142857142857</ele><time>2026-04-12T09:36:37Z</time></trkpt><trkpt lat="42.09731314588776" lon="12.820854614765441"><ele>745.4285714285714</ele><time>2026-04-12T09:36:40Z</time></trkpt><trkpt lat="42.09725733712013" lon="12.820800854161359"><ele>744.1428571428571</ele><time>2026-04-12T09:36:44Z</time></trkpt><trkpt lat="42.09719719064552" lon="12.820751521226251"><ele>742.8571428571429</ele><time>2026-04-12T09:36:47Z</time></trkpt><trkpt lat="42.09712509251449" lon="12.82073977949213"><ele>741.5714285714287</ele><time>2026-04-12T09:36:49Z</time></trkpt><trkpt lat="42.09705685330596" lon="12.820686340437074"><ele>740.2857142857143</ele><time>2026-04-12T09:36:53Z</time></trkpt><trkpt lat="42.09699914917285" lon="12.820634254799263"><ele>739.0</ele><time>2026-04-12T09:36:56Z</time></trkpt><trkpt lat="42.09695709239284" lon="12.820566144644701"><ele>739.0</ele><time>2026-04-12T09:36:59Z</time></trkpt><trkpt lat="42.096902499853684" lon="12.820516107173445"><ele>739.0</ele><time>2026-04-12T09:37:02Z</time></trkpt><trkpt lat="42.09685044182422" lon="12.820452571409104"><ele>739.0</ele><time>2026-04-12T09:37:06Z</time></trkpt><trkpt lat="42.09679391904182" lon="12.82038653056287"><ele>739.0</ele><time>2026-04-12T09:37:11Z</time></trkpt><trkpt lat="42.09675377377773" lon="12.820308730370662"><ele>739.0</ele><time>2026-04-12T09:37:16Z</time></trkpt><trkpt lat="42.096701781834" lon="12.82024515061884"><ele>739.0</ele><time>2026-04-12T09:37:21Z</time></trkpt><trkpt lat="42.096648591803465" lon="12.820178472185475"><ele>739.0</ele><time>2026-04-12T09:37:25Z</time></trkpt><trkpt lat="42.09660436413208" lon="12.820112275458477"><ele>737.7142857142858</ele><time>2026-04-12T09:37:29Z</time></trkpt><trkpt lat="42.096564954413076" lon="12.820037032226132"><ele>736.4285714285714</ele><time>2026-04-12T09:37:33Z</time></trkpt><trkpt lat="42.09650719981182" lon="12.819967218161047"><ele>735.1428571428571</ele><time>2026-04-12T09:37:36.999Z</time></trkpt><trkpt lat="42.096452014057185" lon="12.819886095224302"><ele>733.8571428571429</ele><time>2026-04-12T09:37:39.999Z</time></trkpt><trkpt lat="42.096407649164505" lon="12.819808011957306"><ele>732.5714285714286</ele><time>2026-04-12T09:37:42.999Z</time></trkpt><trkpt lat="42.096357805985136" lon="12.819736669708888"><ele>731.2857142857143</ele><time>2026-04-12T09:37:45.999Z</time></trkpt><trkpt lat="42.09632853612639" lon="12.819650585699167"><ele>730.0</ele><time>2026-04-12T09:37:49.999Z</time></trkpt><trkpt lat="42.09632132537105" lon="12.81954841080458"><ele>730.0000000000001</ele><time>2026-04-12T09:37:53.999Z</time></trkpt><trkpt lat="42.096322072603236" lon="12.819446263887402"><ele>730.0</ele><time>2026-04-12T09:37:57.999Z</time></trkpt><trkpt lat="42.09635905018666" lon="12.819376063934554"><ele>730.0</ele><time>2026-04-12T09:39:49.999Z</time></trkpt><trkpt lat="42.09640964790215" lon="12.819324163749263"><ele>730.0</ele><time>2026-04-12T09:40:48Z</time></trkpt><trkpt lat="42.096467143813946" lon="12.8192752740756"><ele>730.0</ele><time>2026-04-12T09:40:57Z</time></trkpt><trkpt lat="42.096514519117285" lon="12.81920466691807"><ele>730.0000000000001</ele><time>2026-04-12T09:41:01Z</time></trkpt><trkpt lat="42.096568396786296" lon="12.819160292834617"><ele>730.0</ele><time>2026-04-12T09:41:05Z</time></trkpt><trkpt lat="42.09661204522892" lon="12.81908121038982"><ele>732.8571428571429</ele><time>2026-04-12T09:41:09Z</time></trkpt><trkpt lat="42.096674326065425" lon="12.81902732419138"><ele>735.7142857142858</ele><time>2026-04-12T09:41:15Z</time></trkpt><trkpt lat="42.096708066042666" lon="12.818954807694196"><ele>738.5714285714287</ele><time>2026-04-12T09:41:18Z</time></trkpt><trkpt lat="42.09675361821207" lon="12.818864773153733"><ele>741.4285714285714</ele><time>2026-04-12T09:41:24Z</time></trkpt><trkpt lat="42.09680304636841" lon="12.818801328751471"><ele>744.2857142857142</ele><time>2026-04-12T09:41:34Z</time></trkpt><trkpt lat="42.09685200833562" lon="12.818744261551057"><ele>747.1428571428572</ele><time>2026-04-12T09:41:38.999Z</time></trkpt><trkpt lat="42.096902436824124" lon="12.818670798488293"><ele>750.0</ele><time>2026-04-12T09:41:41.999Z</time></trkpt><trkpt lat="42.09695983374981" lon="12.818598287220345"><ele>750.0</ele><time>2026-04-12T09:41:46.999Z</time></trkpt><trkpt lat="42.09700919369832" lon="12.818535166466308"><ele>750.0</ele><time>2026-04-12T09:41:50.999Z</time></trkpt><trkpt lat="42.09705584091872" lon="12.818453365881236"><ele>750.0</ele><time>2026-04-12T09:41:54.999Z</time></trkpt><trkpt lat="42.09710881331294" lon="12.818393107418238"><ele>750.0</ele><time>2026-04-12T09:41:58.999Z</time></trkpt><trkpt lat="42.09714436213293" lon="12.818298783504657"><ele>750.0</ele><time>2026-04-12T09:42:03.999Z</time></trkpt><trkpt lat="42.09720197208548" lon="12.818226061137944"><ele>750.0</ele><time>2026-04-12T09:42:07.999Z</time></trkpt><trkpt lat="42.09725143040778" lon="12.818149927340263"><ele>750.0</ele><time>2026-04-12T09:42:11.999Z</time></trkpt><trkpt lat="42.09729620258018" lon="12.818070830773262"><ele>747.0</ele><time>2026-04-12T09:42:16Z</time></trkpt><trkpt lat="42.097320616955095" lon="12.817983495060448"><ele>744.0</ele><time>2026-04-12T09:42:20Z</time></trkpt><trkpt lat="42.097342690885" lon="12.817881282325617"><ele>741.0</ele><time>2026-04-12T09:42:24Z</time></trkpt><trkpt lat="42.09733566410094" lon="12.81777409860824"><ele>738.0</ele><time>2026-04-12T09:42:28Z</time></trkpt><trkpt lat="42.09734365353998" lon="12.817678452449682"><ele>735.0</ele><time>2026-04-12T09:42:32Z</time></trkpt><trkpt lat="42.09734487341029" lon="12.81758731382083"><ele>732.0</ele><time>2026-04-12T09:42:35Z</time></trkpt><trkpt lat="42.09733624913018" lon="12.817495171650972"><ele>729.0</ele><time>2026-04-12T09:42:38Z</time></trkpt><trkpt lat="42.09732483704941" lon="12.817396958883322"><ele>726.1666666666666</ele><time>2026-04-12T09:42:41Z</time></trkpt><trkpt lat="42.09731384343481" lon="12.81730414903719"><ele>723.3333333333334</ele><time>2026-04-12T09:42:44Z</time></trkpt><trkpt lat="42.09728181608418" lon="12.817226334817018"><ele>720.5</ele><time>2026-04-12T09:42:46Z</time></trkpt><trkpt lat="42.09723520245188" lon="12.817133453469815"><ele>717.6666666666667</ele><time>2026-04-12T09:42:49Z</time></trkpt><trkpt lat="42.09719020105328" lon="12.817027892992249"><ele>714.8333333333334</ele><time>2026-04-12T09:42:52Z</time></trkpt><trkpt lat="42.09714021553632" lon="12.816943681102979"><ele>712.0</ele><time>2026-04-12T09:42:55Z</time></trkpt><trkpt lat="42.09708531872574" lon="12.816861688853134"><ele>712.4285714285713</ele><time>2026-04-12T09:42:58Z</time></trkpt><trkpt lat="42.09705359613423" lon="12.816775758102258"><ele>712.8571428571429</ele><time>2026-04-12T09:43:01Z</time></trkpt><trkpt lat="42.09701170515024" lon="12.816681652085938"><ele>713.2857142857142</ele><time>2026-04-12T09:43:05Z</time></trkpt><trkpt lat="42.09697014282233" lon="12.816606046693353"><ele>713.7142857142857</ele><time>2026-04-12T09:43:09Z</time></trkpt><trkpt lat="42.096913733793656" lon="12.816527643739278"><ele>714.1428571428571</ele><time>2026-04-12T09:43:13Z</time></trkpt><trkpt lat="42.096877687747124" lon="12.81645564053627"><ele>714.5714285714286</ele><time>2026-04-12T09:43:17Z</time></trkpt><trkpt lat="42.09684622470469" lon="12.81638120691485"><ele>715.0</ele><time>2026-04-12T09:43:21Z</time></trkpt><trkpt lat="42.09680413244956" lon="12.816301708847025"><ele>715.0</ele><time>2026-04-12T09:43:25Z</time></trkpt><trkpt lat="42.09677034432565" lon="12.816227214959946"><ele>715.0</ele><time>2026-04-12T09:43:27.999Z</time></trkpt><trkpt lat="42.09673329001243" lon="12.816135754329354"><ele>715.0</ele><time>2026-04-12T09:43:31.999Z</time></trkpt><trkpt lat="42.096699005350025" lon="12.8160617386586"><ele>715.0</ele><time>2026-04-12T09:43:34.999Z</time></trkpt><trkpt lat="42.096656265623956" lon="12.815978565736557"><ele>715.0</ele><time>2026-04-12T09:43:38.999Z</time></trkpt><trkpt lat="42.0966108160204" lon="12.815891947236874"><ele>715.0</ele><time>2026-04-12T09:43:42.999Z</time></trkpt><trkpt lat="42.09656852903209" lon="12.815797389806681"><ele>715.0</ele><time>2026-04-12T09:43:46.999Z</time></trkpt><trkpt lat="42.09653261890846" lon="12.815725988947303"><ele>713.0</ele><time>2026-04-12T09:43:49.999Z</time></trkpt><trkpt lat="42.09649212314039" lon="12.81565092608856"><ele>711.0</ele><time>2026-04-12T09:43:52.999Z</time></trkpt><trkpt lat="42.09645532946848" lon="12.815579866867454"><ele>709.0</ele><time>2026-04-12T09:43:55.999Z</time></trkpt><trkpt lat="42.09639475464242" lon="12.815507852761916"><ele>707.0</ele><time>2026-04-12T09:43:58.999Z</time></trkpt><trkpt lat="42.0963422767416" lon="12.81544177254215"><ele>705.0</ele><time>2026-04-12T09:44:01.999Z</time></trkpt><trkpt lat="42.096276381741" lon="12.81538084881356"><ele>703.0</ele><time>2026-04-12T09:44:04.999Z</time></trkpt><trkpt lat="42.096218871506665" lon="12.815327822663837"><ele>701.0</ele><time>2026-04-12T09:44:07.999Z</time></trkpt><trkpt lat="42.09615675654374" lon="12.81527437217714"><ele>701.0</ele><time>2026-04-12T09:44:10.999Z</time></trkpt><trkpt lat="42.09610167147801" lon="12.81520436872451"><ele>701.0</ele><time>2026-04-12T09:44:56Z</time></trkpt><trkpt lat="42.096025386679656" lon="12.8151781341194"><ele>701.0</ele><time>2026-04-12T09:45:09Z</time></trkpt><trkpt lat="42.095954160229375" lon="12.815121645127991"><ele>701.0</ele><time>2026-04-12T09:45:13Z</time></trkpt><trkpt lat="42.09588459522487" lon="12.815084469124173"><ele>701.0</ele><time>2026-04-12T09:45:18Z</time></trkpt><trkpt lat="42.095806452460714" lon="12.815041057793755"><ele>701.0</ele><time>2026-04-12T09:45:23Z</time></trkpt><trkpt lat="42.09573724014805" lon="12.814983924751665"><ele>700.1428571428572</ele><time>2026-04-12T09:45:27Z</time></trkpt><trkpt lat="42.09565805132251" lon="12.81493136278505"><ele>699.2857142857142</ele><time>2026-04-12T09:45:31Z</time></trkpt><trkpt lat="42.095599533170486" lon="12.814899269945755"><ele>698.4285714285714</ele><time>2026-04-12T09:45:34Z</time></trkpt><trkpt lat="42.0955315588831" lon="12.814856031547725"><ele>697.5714285714287</ele><time>2026-04-12T09:45:38Z</time></trkpt><trkpt lat="42.09546780883617" lon="12.814833231978483"><ele>696.7142857142858</ele><time>2026-04-12T09:45:40.999Z</time></trkpt><trkpt lat="42.09540142698556" lon="12.81479226601858"><ele>695.8571428571429</ele><time>2026-04-12T09:45:44.999Z</time></trkpt><trkpt lat="42.09533345320432" lon="12.814749386948154"><ele>695.0</ele><time>2026-04-12T09:45:48.999Z</time></trkpt><trkpt lat="42.09526821736335" lon="12.814718757998984"><ele>695.0000000000001</ele><time>2026-04-12T09:45:52.999Z</time></trkpt><trkpt lat="42.09521211999098" lon="12.814677934737166"><ele>695.0</ele><time>2026-04-12T09:45:56.999Z</time></trkpt><trkpt lat="42.09514817379322" lon="12.814641505574635"><ele>695.0</ele><time>2026-04-12T09:46:00.999Z</time></trkpt><trkpt lat="42.09508292999112" lon="12.814605730821192"><ele>695.0</ele><time>2026-04-12T09:46:05.999Z</time></trkpt><trkpt lat="42.09501295404217" lon="12.81456019549294"><ele>695.0</ele><time>2026-04-12T09:46:09.999Z</time></trkpt><trkpt lat="42.09494210995193" lon="12.814512580641956"><ele>695.0000000000001</ele><time>2026-04-12T09:46:14.999Z</time></trkpt><trkpt lat="42.09487165282707" lon="12.814463962348192"><ele>695.0</ele><time>2026-04-12T09:46:18.999Z</time></trkpt><trkpt lat="42.09480775542813" lon="12.81441591111153"><ele>694.7142857142858</ele><time>2026-04-12T09:46:23.999Z</time></trkpt><trkpt lat="42.09474448593738" lon="12.814361701327378"><ele>694.4285714285714</ele><time>2026-04-12T09:46:28Z</time></trkpt><trkpt lat="42.09467532376147" lon="12.814296576081157"><ele>694.1428571428571</ele><time>2026-04-12T09:46:32Z</time></trkpt><trkpt lat="42.09462328553693" lon="12.814248519207956"><ele>693.8571428571429</ele><time>2026-04-12T09:46:35Z</time></trkpt><trkpt lat="42.09456854815491" lon="12.814195294619111"><ele>693.5714285714286</ele><time>2026-04-12T09:46:39Z</time></trkpt><trkpt lat="42.09451017731021" lon="12.814138753660488"><ele>693.2857142857143</ele><time>2026-04-12T09:46:43Z</time></trkpt><trkpt lat="42.09444759385868" lon="12.814078982372987"><ele>693.0</ele><time>2026-04-12T09:46:47Z</time></trkpt><trkpt lat="42.09439192686963" lon="12.81403387217546"><ele>693.0</ele><time>2026-04-12T09:46:49Z</time></trkpt><trkpt lat="42.09433750090224" lon="12.81396580969398"><ele>693.0</ele><time>2026-04-12T09:46:52Z</time></trkpt><trkpt lat="42.09427770328218" lon="12.81390496377799"><ele>693.0</ele><time>2026-04-12T09:46:56Z</time></trkpt><trkpt lat="42.09422802033909" lon="12.813828912574031"><ele>693.0</ele><time>2026-04-12T09:47:01Z</time></trkpt><trkpt lat="42.094192012045916" lon="12.813752395828969"><ele>693.0</ele><time>2026-04-12T09:47:24Z</time></trkpt><trkpt lat="42.094159443638645" lon="12.813666026886253"><ele>693.0</ele><time>2026-04-12T09:47:31Z</time></trkpt><trkpt lat="42.094144180551254" lon="12.813576003840062"><ele>693.0</ele><time>2026-04-12T09:47:37Z</time></trkpt><trkpt lat="42.094145761878295" lon="12.813477756776468"><ele>693.7142857142857</ele><time>2026-04-12T09:47:43Z</time></trkpt><trkpt lat="42.09415923678107" lon="12.813373087531984"><ele>694.4285714285714</ele><time>2026-04-12T09:47:47.999Z</time></trkpt><trkpt lat="42.09420091878771" lon="12.813308303945165"><ele>695.1428571428571</ele><time>2026-04-12T09:47:52.999Z</time></trkpt><trkpt lat="42.09424020876991" lon="12.813233069950524"><ele>695.8571428571429</ele><time>2026-04-12T09:47:56.999Z</time></trkpt><trkpt lat="42.0942698972812" lon="12.813137310227937"><ele>696.5714285714286</ele><time>2026-04-12T09:48:00.999Z</time></trkpt><trkpt lat="42.09431503045191" lon="12.813062058638943"><ele>697.2857142857142</ele><time>2026-04-12T09:48:04.999Z</time></trkpt><trkpt lat="42.09434732489184" lon="12.812972814277625"><ele>698.0</ele><time>2026-04-12T09:48:08.999Z</time></trkpt><trkpt lat="42.09438205330799" lon="12.81288781816639"><ele>698.0</ele><time>2026-04-12T09:48:13.999Z</time></trkpt><trkpt lat="42.09442411114603" lon="12.812792769833775"><ele>698.0</ele><time>2026-04-12T09:48:18.999Z</time></trkpt><trkpt lat="42.09445016108215" lon="12.812691362278864"><ele>698.0</ele><time>2026-04-12T09:48:23.999Z</time></trkpt><trkpt lat="42.09448451250033" lon="12.81258684099259"><ele>698.0</ele><time>2026-04-12T09:48:27.999Z</time></trkpt><trkpt lat="42.09450711096291" lon="12.81248951469131"><ele>698.0</ele><time>2026-04-12T09:48:32.001Z</time></trkpt><trkpt lat="42.09453749879577" lon="12.812385297580796"><ele>698.0</ele><time>2026-04-12T09:48:35.001Z</time></trkpt><trkpt lat="42.09456139089637" lon="12.81228910678457"><ele>696.5</ele><time>2026-04-12T09:48:39.001Z</time></trkpt><trkpt lat="42.0945838889549" lon="12.812189463436454"><ele>695.0</ele><time>2026-04-12T09:48:43.001Z</time></trkpt><trkpt lat="42.09460943940249" lon="12.812078390192488"><ele>693.5</ele><time>2026-04-12T09:48:47Z</time></trkpt><trkpt lat="42.09462671143405" lon="12.8119877431563"><ele>692.0</ele><time>2026-04-12T09:48:51Z</time></trkpt><trkpt lat="42.0946497583768" lon="12.8118800801402"><ele>690.5</ele><time>2026-04-12T09:48:55Z</time></trkpt><trkpt lat="42.094657573604294" lon="12.811785785673713"><ele>689.0</ele><time>2026-04-12T09:48:58Z</time></trkpt><trkpt lat="42.09467325992275" lon="12.811699155607732"><ele>687.3333333333333</ele><time>2026-04-12T09:49:00Z</time></trkpt><trkpt lat="42.094691141797156" lon="12.811589545035732"><ele>685.6666666666666</ele><time>2026-04-12T09:49:06Z</time></trkpt><trkpt lat="42.09470283580909" lon="12.811485931310461"><ele>684.0</ele><time>2026-04-12T09:49:10Z</time></trkpt><trkpt lat="42.094725845287236" lon="12.811389658037802"><ele>682.3333333333334</ele><time>2026-04-12T09:49:15Z</time></trkpt><trkpt lat="42.094746636991005" lon="12.811288444397528"><ele>680.6666666666667</ele><time>2026-04-12T09:49:19Z</time></trkpt><trkpt lat="42.09477070514578" lon="12.811187951983841"><ele>679.0</ele><time>2026-04-12T09:49:23Z</time></trkpt><trkpt lat="42.09479139783514" lon="12.811092304954713"><ele>677.0</ele><time>2026-04-12T09:49:27Z</time></trkpt><trkpt lat="42.09480389820622" lon="12.810989448660914"><ele>675.0</ele><time>2026-04-12T09:49:31Z</time></trkpt><trkpt lat="42.09481032415741" lon="12.810904686012883"><ele>673.0</ele><time>2026-04-12T09:49:34Z</time></trkpt><trkpt lat="42.09482797833116" lon="12.810817324063137"><ele>671.0</ele><time>2026-04-12T09:49:38Z</time></trkpt><trkpt lat="42.094835626222114" lon="12.810715898039943"><ele>669.0</ele><time>2026-04-12T09:49:43Z</time></trkpt><trkpt lat="42.094864206164885" lon="12.810612515194546"><ele>667.0</ele><time>2026-04-12T09:49:48.999Z</time></trkpt><trkpt lat="42.09489415947087" lon="12.810531199563082"><ele>665.0</ele><time>2026-04-12T09:49:52.999Z</time></trkpt><trkpt lat="42.094901637240135" lon="12.81044320875996"><ele>665.5</ele><time>2026-04-12T09:49:56.999Z</time></trkpt><trkpt lat="42.09492855731416" lon="12.810338554055603"><ele>666.0</ele><time>2026-04-12T09:50:00.999Z</time></trkpt><trkpt lat="42.0949389788579" lon="12.810251434246569"><ele>666.5</ele><time>2026-04-12T09:50:03.999Z</time></trkpt><trkpt lat="42.09495912466028" lon="12.810147680373163"><ele>667.0</ele><time>2026-04-12T09:50:06.999Z</time></trkpt><trkpt lat="42.095025815108876" lon="12.809031642985351"><ele>665.8571428571429</ele><time>2026-04-12T09:50:49Z</time></trkpt><trkpt lat="42.09503293972657" lon="12.808943465363987"><ele>664.7142857142858</ele><time>2026-04-12T09:50:54Z</time></trkpt><trkpt lat="42.09507970842001" lon="12.808884523765778"><ele>663.5714285714287</ele><time>2026-04-12T09:51:00Z</time></trkpt><trkpt lat="42.095147292562785" lon="12.808859111998258"><ele>662.4285714285714</ele><time>2026-04-12T09:51:04Z</time></trkpt><trkpt lat="42.09522372132608" lon="12.808884021550377"><ele>661.2857142857142</ele><time>2026-04-12T09:51:10Z</time></trkpt><trkpt lat="42.09528999944339" lon="12.808930735413966"><ele>660.1428571428572</ele><time>2026-04-12T09:51:15Z</time></trkpt><trkpt lat="42.095333227860536" lon="12.809005001979296"><ele>659.0</ele><time>2026-04-12T09:51:19Z</time></trkpt><trkpt lat="42.09540371278977" lon="12.809045820936799"><ele>659.0</ele><time>2026-04-12T09:51:23Z</time></trkpt><trkpt lat="42.095484582384756" lon="12.809063631591346"><ele>659.0</ele><time>2026-04-12T09:51:27Z</time></trkpt><trkpt lat="42.09554729828823" lon="12.809084791188534"><ele>659.0</ele><time>2026-04-12T09:51:30Z</time></trkpt><trkpt lat="42.095634461493816" lon="12.809083828084601"><ele>659.0</ele><time>2026-04-12T09:51:33Z</time></trkpt><trkpt lat="42.095706768342325" lon="12.809083402742216"><ele>659.0</ele><time>2026-04-12T09:51:36Z</time></trkpt><trkpt lat="42.09576886637658" lon="12.809052640424417"><ele>659.0</ele><time>2026-04-12T09:51:39Z</time></trkpt><trkpt lat="42.09583819057303" lon="12.808986517146007"><ele>659.5</ele><time>2026-04-12T09:51:44.999Z</time></trkpt><trkpt lat="42.095883382388706" lon="12.808910632293479"><ele>660.0</ele><time>2026-04-12T09:51:50.999Z</time></trkpt><trkpt lat="42.095929423334375" lon="12.808790301642471"><ele>660.5</ele><time>2026-04-12T09:51:55.999Z</time></trkpt><trkpt lat="42.095952735766666" lon="12.808678720160247"><ele>661.0</ele><time>2026-04-12T09:51:57.999Z</time></trkpt><trkpt lat="42.09597741259594" lon="12.808544621828371"><ele>661.5</ele><time>2026-04-12T09:51:59.999Z</time></trkpt><trkpt lat="42.0960011884224" lon="12.808430528509058"><ele>662.0</ele><time>2026-04-12T09:52:01.999Z</time></trkpt><trkpt lat="42.09602640388516" lon="12.808338493949647"><ele>660.2857142857143</ele><time>2026-04-12T09:52:03.999Z</time></trkpt><trkpt lat="42.09605857715334" lon="12.808245360783902"><ele>658.5714285714286</ele><time>2026-04-12T09:52:06.999Z</time></trkpt><trkpt lat="42.09608250518549" lon="12.808166704272876"><ele>656.8571428571429</ele><time>2026-04-12T09:52:10.999Z</time></trkpt><trkpt lat="42.09611827747748" lon="12.808088319665373"><ele>655.1428571428571</ele><time>2026-04-12T09:52:13.999Z</time></trkpt><trkpt lat="42.09614339268747" lon="12.808005849752819"><ele>653.4285714285714</ele><time>2026-04-12T09:52:16.999Z</time></trkpt><trkpt lat="42.09617468178659" lon="12.807924801559043"><ele>651.7142857142857</ele><time>2026-04-12T09:52:19.999Z</time></trkpt><trkpt lat="42.09622446041169" lon="12.807855006098434"><ele>650.0</ele><time>2026-04-12T09:52:23.999Z</time></trkpt><trkpt lat="42.09626794267143" lon="12.807788356927016"><ele>650.0</ele><time>2026-04-12T09:52:28.999Z</time></trkpt><trkpt lat="42.09630085184016" lon="12.80770457253045"><ele>650.0</ele><time>2026-04-12T09:52:32.999Z</time></trkpt><trkpt lat="42.09631569669837" lon="12.807610980767164"><ele>650.0</ele><time>2026-04-12T09:52:35.999Z</time></trkpt><trkpt lat="42.09630637982116" lon="12.807505794708964"><ele>650.0</ele><time>2026-04-12T09:52:39.999Z</time></trkpt><trkpt lat="42.09627983163437" lon="12.807421331874718"><ele>650.0</ele><time>2026-04-12T09:52:42.999Z</time></trkpt><trkpt lat="42.096240923923965" lon="12.807350416575678"><ele>650.0</ele><time>2026-04-12T09:52:45.999Z</time></trkpt><trkpt lat="42.096199350053126" lon="12.807274401148845"><ele>650.0</ele><time>2026-04-12T09:52:49.999Z</time></trkpt><trkpt lat="42.09614763134449" lon="12.807213231081503"><ele>648.5</ele><time>2026-04-12T09:52:52.999Z</time></trkpt><trkpt lat="42.09609438006464" lon="12.807133930346229"><ele>647.0</ele><time>2026-04-12T09:52:55.999Z</time></trkpt><trkpt lat="42.09601926983204" lon="12.807075177997923"><ele>645.5</ele><time>2026-04-12T09:52:58.999Z</time></trkpt><trkpt lat="42.09594990486165" lon="12.807034341673491"><ele>644.0</ele><time>2026-04-12T09:53:02Z</time></trkpt><trkpt lat="42.09588435704018" lon="12.8069988754593"><ele>642.5</ele><time>2026-04-12T09:53:05Z</time></trkpt><trkpt lat="42.09582011620497" lon="12.80695239642521"><ele>641.0</ele><time>2026-04-12T09:53:09Z</time></trkpt><trkpt lat="42.09575886044899" lon="12.806915101416037"><ele>640.4285714285714</ele><time>2026-04-12T09:53:12Z</time></trkpt><trkpt lat="42.09569920470305" lon="12.806869165987663"><ele>639.8571428571429</ele><time>2026-04-12T09:53:16Z</time></trkpt><trkpt lat="42.09563754716937" lon="12.806821361646803"><ele>639.2857142857142</ele><time>2026-04-12T09:53:20Z</time></trkpt><trkpt lat="42.095577402306624" lon="12.806761552993025"><ele>638.7142857142858</ele><time>2026-04-12T09:53:24Z</time></trkpt><trkpt lat="42.09551237532608" lon="12.80671978969723"><ele>638.1428571428571</ele><time>2026-04-12T09:53:28Z</time></trkpt><trkpt lat="42.095464404959024" lon="12.806663417953319"><ele>637.5714285714286</ele><time>2026-04-12T09:53:32Z</time></trkpt><trkpt lat="42.095401784869786" lon="12.806604841901974"><ele>637.0</ele><time>2026-04-12T09:53:38Z</time></trkpt><trkpt lat="42.09535639104079" lon="12.806541622445613"><ele>635.5714285714286</ele><time>2026-04-12T09:53:42Z</time></trkpt><trkpt lat="42.09529966526758" lon="12.80650005448377"><ele>634.1428571428571</ele><time>2026-04-12T09:53:45.999Z</time></trkpt><trkpt lat="42.095230165456044" lon="12.806453029222988"><ele>632.7142857142858</ele><time>2026-04-12T09:53:51.999Z</time></trkpt><trkpt lat="42.09515525490319" lon="12.806414147466722"><ele>631.2857142857142</ele><time>2026-04-12T09:53:55.999Z</time></trkpt><trkpt lat="42.095093383570784" lon="12.806356654081338"><ele>629.8571428571429</ele><time>2026-04-12T09:53:59.999Z</time></trkpt><trkpt lat="42.09504246768065" lon="12.806288073863927"><ele>628.4285714285714</ele><time>2026-04-12T09:54:04.999Z</time></trkpt><trkpt lat="42.09497405195483" lon="12.806234328180654"><ele>627.0</ele><time>2026-04-12T09:54:09.999Z</time></trkpt><trkpt lat="42.09491265376306" lon="12.806200435996297"><ele>626.8571428571429</ele><time>2026-04-12T09:54:12.999Z</time></trkpt><trkpt lat="42.09484323917898" lon="12.806161909322999"><ele>626.7142857142857</ele><time>2026-04-12T09:54:16.999Z</time></trkpt><trkpt lat="42.094782111240434" lon="12.806139066369347"><ele>626.5714285714286</ele><time>2026-04-12T09:54:21.999Z</time></trkpt><trkpt lat="42.094719003560385" lon="12.80612592691781"><ele>626.4285714285714</ele><time>2026-04-12T09:54:26.999Z</time></trkpt><trkpt lat="42.09465862725853" lon="12.806092368410678"><ele>626.2857142857143</ele><time>2026-04-12T09:54:30.999Z</time></trkpt><trkpt lat="42.094596534312075" lon="12.806020100509308"><ele>626.1428571428571</ele><time>2026-04-12T09:54:35.999Z</time></trkpt><trkpt lat="42.09454486032663" lon="12.805945028399409"><ele>626.0</ele><time>2026-04-12T09:54:39.999Z</time></trkpt><trkpt lat="42.0945087731235" lon="12.805865173664188"><ele>626.0</ele><time>2026-04-12T09:54:43.999Z</time></trkpt><trkpt lat="42.0944600787402" lon="12.805797174960466"><ele>626.0</ele><time>2026-04-12T09:54:49.999Z</time></trkpt><trkpt lat="42.09439888288935" lon="12.805764182541873"><ele>626.0</ele><time>2026-04-12T09:55:00.999Z</time></trkpt><trkpt lat="42.09432594186744" lon="12.805742747811713"><ele>626.0</ele><time>2026-04-12T09:55:03.999Z</time></trkpt><trkpt lat="42.094245356169544" lon="12.805820862264085"><ele>626.0</ele><time>2026-04-12T09:55:07Z</time></trkpt><trkpt lat="42.09419291701156" lon="12.805874970644863"><ele>626.0</ele><time>2026-04-12T09:55:09Z</time></trkpt><trkpt lat="42.09413422410988" lon="12.805910737969985"><ele>626.0</ele><time>2026-04-12T09:55:11Z</time></trkpt><trkpt lat="42.09405661174382" lon="12.805966197123135"><ele>622.5</ele><time>2026-04-12T09:55:14Z</time></trkpt><trkpt lat="42.09398683181399" lon="12.806018135809365"><ele>619.0</ele><time>2026-04-12T09:55:18Z</time></trkpt><trkpt lat="42.09392951149678" lon="12.80606188348889"><ele>615.5</ele><time>2026-04-12T09:55:22Z</time></trkpt><trkpt lat="42.093843514498744" lon="12.806147625238758"><ele>612.0</ele><time>2026-04-12T09:55:46Z</time></trkpt><trkpt lat="42.09377397282557" lon="12.80616479406891"><ele>608.5</ele><time>2026-04-12T09:55:51Z</time></trkpt><trkpt lat="42.09370715369495" lon="12.806170677678258"><ele>605.0</ele><time>2026-04-12T09:55:55Z</time></trkpt><trkpt lat="42.09363233391386" lon="12.80621105843798"><ele>605.0</ele><time>2026-04-12T09:56:00Z</time></trkpt><trkpt lat="42.09356448359664" lon="12.806232533899923"><ele>605.0</ele><time>2026-04-12T09:56:05Z</time></trkpt><trkpt lat="42.09349317086259" lon="12.806271614669745"><ele>605.0</ele><time>2026-04-12T09:56:10Z</time></trkpt><trkpt lat="42.0934284693166" lon="12.806322298752788"><ele>605.0</ele><time>2026-04-12T09:56:15.999Z</time></trkpt><trkpt lat="42.09336502598815" lon="12.80633969218281"><ele>605.0</ele><time>2026-04-12T09:56:19.999Z</time></trkpt><trkpt lat="42.09329376618739" lon="12.806355798688541"><ele>605.0</ele><time>2026-04-12T09:56:24.999Z</time></trkpt><trkpt lat="42.093229229899656" lon="12.806364600644327"><ele>605.0</ele><time>2026-04-12T09:56:28.999Z</time></trkpt><trkpt lat="42.093159501471966" lon="12.806373848713866"><ele>603.5714285714286</ele><time>2026-04-12T09:56:33.999Z</time></trkpt><trkpt lat="42.093086764708644" lon="12.806381130444594"><ele>602.1428571428571</ele><time>2026-04-12T09:56:38.999Z</time></trkpt><trkpt lat="42.093024964413125" lon="12.806401052117867"><ele>600.7142857142858</ele><time>2026-04-12T09:56:43.999Z</time></trkpt><trkpt lat="42.09296188642568" lon="12.806395889875922"><ele>599.2857142857142</ele><time>2026-04-12T09:56:47.999Z</time></trkpt><trkpt lat="42.09289583120926" lon="12.806399660574193"><ele>597.8571428571429</ele><time>2026-04-12T09:56:50.999Z</time></trkpt><trkpt lat="42.092832116282125" lon="12.806407868602513"><ele>596.4285714285714</ele><time>2026-04-12T09:56:54.999Z</time></trkpt><trkpt lat="42.092758803139446" lon="12.80639584723506"><ele>595.0</ele><time>2026-04-12T09:56:58.999Z</time></trkpt><trkpt lat="42.09269019778794" lon="12.806381505105417"><ele>595.0</ele><time>2026-04-12T09:57:01.999Z</time></trkpt><trkpt lat="42.092617268037365" lon="12.806352011265913"><ele>595.0</ele><time>2026-04-12T09:57:05.999Z</time></trkpt><trkpt lat="42.09255511612768" lon="12.806337607528684"><ele>595.0</ele><time>2026-04-12T09:57:08.999Z</time></trkpt><trkpt lat="42.09249639052183" lon="12.806295478097903"><ele>595.0</ele><time>2026-04-12T09:57:13Z</time></trkpt><trkpt lat="42.0924325507989" lon="12.806250456930663"><ele>595.0</ele><time>2026-04-12T09:57:17Z</time></trkpt><trkpt lat="42.09237817999822" lon="12.806194172746801"><ele>595.0</ele><time>2026-04-12T09:57:20Z</time></trkpt><trkpt lat="42.09231474189933" lon="12.806153036659898"><ele>595.0</ele><time>2026-04-12T09:57:25Z</time></trkpt><trkpt lat="42.092252606760745" lon="12.80610364688137"><ele>594.8571428571429</ele><time>2026-04-12T09:57:30Z</time></trkpt><trkpt lat="42.0921920126043" lon="12.806079066444044"><ele>594.7142857142858</ele><time>2026-04-12T09:57:34Z</time></trkpt><trkpt lat="42.09212152591063" lon="12.806042817657216"><ele>594.5714285714286</ele><time>2026-04-12T09:57:38Z</time></trkpt><trkpt lat="42.09206003281545" lon="12.806015206017612"><ele>594.4285714285714</ele><time>2026-04-12T09:57:42Z</time></trkpt><trkpt lat="42.091985729464184" lon="12.805991685502743"><ele>594.2857142857143</ele><time>2026-04-12T09:57:47Z</time></trkpt><trkpt lat="42.09191752294081" lon="12.805957715379478"><ele>594.1428571428571</ele><time>2026-04-12T09:57:51Z</time></trkpt><trkpt lat="42.09184199990103" lon="12.805934867107853"><ele>594.0</ele><time>2026-04-12T09:57:55Z</time></trkpt><trkpt lat="42.09177434036301" lon="12.8059024744889"><ele>594.0</ele><time>2026-04-12T09:57:59Z</time></trkpt><trkpt lat="42.09169981739842" lon="12.805890309044454"><ele>594.0</ele><time>2026-04-12T09:58:03Z</time></trkpt><trkpt lat="42.09162930966621" lon="12.805876216805554"><ele>594.0</ele><time>2026-04-12T09:58:07Z</time></trkpt><trkpt lat="42.09155234494757" lon="12.805834895839233"><ele>594.0</ele><time>2026-04-12T09:58:12Z</time></trkpt><trkpt lat="42.09148867334167" lon="12.805810024009954"><ele>594.0</ele><time>2026-04-12T09:58:15.999Z</time></trkpt><trkpt lat="42.09140798862646" lon="12.80577680386354"><ele>594.0</ele><time>2026-04-12T09:58:19.999Z</time></trkpt><trkpt lat="42.091347543829755" lon="12.805746614083354"><ele>594.0</ele><time>2026-04-12T09:58:22.999Z</time></trkpt><trkpt lat="42.091272978926696" lon="12.805713979682459"><ele>592.0</ele><time>2026-04-12T09:58:26.999Z</time></trkpt><trkpt lat="42.09120497486512" lon="12.805686934787175"><ele>590.0</ele><time>2026-04-12T09:58:30.999Z</time></trkpt><trkpt lat="42.09113475879151" lon="12.805647848527139"><ele>588.0</ele><time>2026-04-12T09:58:36.999Z</time></trkpt><trkpt lat="42.09106716572339" lon="12.80560057818962"><ele>586.0</ele><time>2026-04-12T09:58:41.999Z</time></trkpt><trkpt lat="42.09100940603203" lon="12.80556587837374"><ele>584.0</ele><time>2026-04-12T09:58:46.999Z</time></trkpt><trkpt lat="42.09094631950288" lon="12.805534473272294"><ele>582.0</ele><time>2026-04-12T09:58:50.999Z</time></trkpt><trkpt lat="42.09088305690281" lon="12.8055192748913"><ele>580.0</ele><time>2026-04-12T09:58:56.999Z</time></trkpt><trkpt lat="42.09081816292045" lon="12.805490304335862"><ele>579.2857142857143</ele><time>2026-04-12T09:59:00.999Z</time></trkpt><trkpt lat="42.09075532979566" lon="12.805463873190941"><ele>578.5714285714287</ele><time>2026-04-12T09:59:07.999Z</time></trkpt><trkpt lat="42.09069408878107" lon="12.805432051572902"><ele>577.8571428571429</ele><time>2026-04-12T09:59:11.999Z</time></trkpt><trkpt lat="42.090632393692445" lon="12.805400155172428"><ele>577.1428571428571</ele><time>2026-04-12T09:59:16.999Z</time></trkpt><trkpt lat="42.09057114220439" lon="12.805378740027804"><ele>576.4285714285713</ele><time>2026-04-12T09:59:21Z</time></trkpt><trkpt lat="42.09050843363866" lon="12.80535673989048"><ele>575.7142857142857</ele><time>2026-04-12T09:59:31Z</time></trkpt><trkpt lat="42.09043057580337" lon="12.805321511252929"><ele>575.0</ele><time>2026-04-12T09:59:35Z</time></trkpt><trkpt lat="42.09035943245446" lon="12.805298111035688"><ele>575.0</ele><time>2026-04-12T09:59:40Z</time></trkpt><trkpt lat="42.090294675229" lon="12.80527407972095"><ele>575.0</ele><time>2026-04-12T09:59:44Z</time></trkpt><trkpt lat="42.090222705427394" lon="12.805258757614814"><ele>575.0</ele><time>2026-04-12T09:59:49Z</time></trkpt><trkpt lat="42.090155066375395" lon="12.805247714012225"><ele>575.0</ele><time>2026-04-12T09:59:55Z</time></trkpt><trkpt lat="42.090088539944325" lon="12.805228970873111"><ele>575.0</ele><time>2026-04-12T10:00:05Z</time></trkpt><trkpt lat="42.09002109480519" lon="12.80522758290397"><ele>575.0</ele><time>2026-04-12T10:00:11Z</time></trkpt><trkpt lat="42.08995770610815" lon="12.805222165676437"><ele>575.0</ele><time>2026-04-12T10:00:15Z</time></trkpt><trkpt lat="42.089884913358034" lon="12.805213725823048"><ele>574.2857142857142</ele><time>2026-04-12T10:00:21.999Z</time></trkpt><trkpt lat="42.08981498303038" lon="12.805202301578229"><ele>573.5714285714286</ele><time>2026-04-12T10:00:25.999Z</time></trkpt><trkpt lat="42.08974477828812" lon="12.80518864000249"><ele>572.8571428571429</ele><time>2026-04-12T10:00:29.999Z</time></trkpt><trkpt lat="42.08966604822925" lon="12.805170161523007"><ele>572.1428571428571</ele><time>2026-04-12T10:00:34.999Z</time></trkpt><trkpt lat="42.0896014818272" lon="12.805164459217524"><ele>571.4285714285714</ele><time>2026-04-12T10:00:38.999Z</time></trkpt><trkpt lat="42.08953195087703" lon="12.805145917405461"><ele>570.7142857142857</ele><time>2026-04-12T10:00:44.999Z</time></trkpt><trkpt lat="42.08946774129098" lon="12.805131741034288"><ele>570.0</ele><time>2026-04-12T10:00:48.999Z</time></trkpt><trkpt lat="42.08940316481388" lon="12.805111652792851"><ele>569.5714285714286</ele><time>2026-04-12T10:00:52.999Z</time></trkpt><trkpt lat="42.08933546306025" lon="12.805109995647655"><ele>569.1428571428571</ele><time>2026-04-12T10:00:56.999Z</time></trkpt><trkpt lat="42.08926316429308" lon="12.805129103580631"><ele>568.7142857142858</ele><time>2026-04-12T10:01:00.999Z</time></trkpt><trkpt lat="42.089186927634735" lon="12.80512104515022"><ele>568.2857142857142</ele><time>2026-04-12T10:01:04.999Z</time></trkpt><trkpt lat="42.08910947444345" lon="12.805132601468262"><ele>567.8571428571429</ele><time>2026-04-12T10:01:08.999Z</time></trkpt><trkpt lat="42.08903939374977" lon="12.805150076245663"><ele>567.4285714285714</ele><time>2026-04-12T10:01:12.999Z</time></trkpt><trkpt lat="42.088977036821106" lon="12.80517471667992"><ele>567.0</ele><time>2026-04-12T10:01:16.999Z</time></trkpt><trkpt lat="42.088900327944714" lon="12.805183008195444"><ele>564.5714285714286</ele><time>2026-04-12T10:01:20.999Z</time></trkpt><trkpt lat="42.08883485772872" lon="12.805183115221045"><ele>562.1428571428571</ele><time>2026-04-12T10:01:26Z</time></trkpt><trkpt lat="42.08875614390234" lon="12.805182183015122"><ele>559.7142857142858</ele><time>2026-04-12T10:01:30Z</time></trkpt><trkpt lat="42.08869334733839" lon="12.805168557678256"><ele>557.2857142857142</ele><time>2026-04-12T10:01:34Z</time></trkpt><trkpt lat="42.088628948083254" lon="12.805179075756193"><ele>554.8571428571429</ele><time>2026-04-12T10:01:38Z</time></trkpt><trkpt lat="42.08856076482076" lon="12.805183462476089"><ele>552.4285714285714</ele><time>2026-04-12T10:01:42Z</time></trkpt><trkpt lat="42.088490368421425" lon="12.80518060422678"><ele>550.0</ele><time>2026-04-12T10:01:46Z</time></trkpt><trkpt lat="42.088427913695654" lon="12.805193594977455"><ele>550.0</ele><time>2026-04-12T10:01:50Z</time></trkpt><trkpt lat="42.088360969419156" lon="12.805193200452058"><ele>550.0</ele><time>2026-04-12T10:01:56Z</time></trkpt><trkpt lat="42.088294366697355" lon="12.8051996300012"><ele>550.0</ele><time>2026-04-12T10:02:00Z</time></trkpt><trkpt lat="42.088231057958346" lon="12.80521127161222"><ele>550.0</ele><time>2026-04-12T10:02:04Z</time></trkpt><trkpt lat="42.08815347269297" lon="12.805210890421115"><ele>550.0</ele><time>2026-04-12T10:02:09Z</time></trkpt><trkpt lat="42.088088073719575" lon="12.805217073929763"><ele>550.0</ele><time>2026-04-12T10:02:13Z</time></trkpt><trkpt lat="42.08801998072385" lon="12.805250718633035"><ele>550.0</ele><time>2026-04-12T10:02:17Z</time></trkpt><trkpt lat="42.087947191129885" lon="12.805262675941867"><ele>547.8571428571429</ele><time>2026-04-12T10:02:21Z</time></trkpt><trkpt lat="42.087884757262934" lon="12.805273824039839"><ele>545.7142857142857</ele><time>2026-04-12T10:02:24.999Z</time></trkpt><trkpt lat="42.08780989066387" lon="12.805286925098576"><ele>543.5714285714286</ele><time>2026-04-12T10:02:30.999Z</time></trkpt><trkpt lat="42.08773914347864" lon="12.805287338888778"><ele>541.4285714285714</ele><time>2026-04-12T10:02:35.999Z</time></trkpt><trkpt lat="42.08766651379573" lon="12.805280669794762"><ele>539.2857142857143</ele><time>2026-04-12T10:02:40.999Z</time></trkpt><trkpt lat="42.08760360738282" lon="12.805293139009187"><ele>537.1428571428571</ele><time>2026-04-12T10:02:44.999Z</time></trkpt><trkpt lat="42.087526355686016" lon="12.805303704080142"><ele>535.0</ele><time>2026-04-12T10:03:16.999Z</time></trkpt><trkpt lat="42.087445616925734" lon="12.805308220786184"><ele>535.1428571428571</ele><time>2026-04-12T10:03:20.999Z</time></trkpt><trkpt lat="42.08738007716619" lon="12.805287652266564"><ele>535.2857142857143</ele><time>2026-04-12T10:03:24.999Z</time></trkpt><trkpt lat="42.08732503257552" lon="12.805243021525047"><ele>535.4285714285714</ele><time>2026-04-12T10:03:35Z</time></trkpt><trkpt lat="42.087250541402604" lon="12.805238770253935"><ele>535.5714285714286</ele><time>2026-04-12T10:03:40Z</time></trkpt><trkpt lat="42.08718272507348" lon="12.80522029094082"><ele>535.7142857142857</ele><time>2026-04-12T10:03:45Z</time></trkpt><trkpt lat="42.08710584105857" lon="12.805196901548243"><ele>535.8571428571429</ele><time>2026-04-12T10:03:50Z</time></trkpt><trkpt lat="42.08703814626862" lon="12.805164883818424"><ele>536.0</ele><time>2026-04-12T10:03:57Z</time></trkpt><trkpt lat="42.08697424281015" lon="12.805137448614095"><ele>536.0</ele><time>2026-04-12T10:04:02Z</time></trkpt><trkpt lat="42.08690866814479" lon="12.805106166108786"><ele>536.0</ele><time>2026-04-12T10:04:08Z</time></trkpt><trkpt lat="42.086839358651986" lon="12.805108786930804"><ele>536.0</ele><time>2026-04-12T10:04:12Z</time></trkpt><trkpt lat="42.08677375633427" lon="12.805085983286983"><ele>536.0</ele><time>2026-04-12T10:04:16Z</time></trkpt><trkpt lat="42.08670454197775" lon="12.805103690036974"><ele>536.0</ele><time>2026-04-12T10:04:20Z</time></trkpt><trkpt lat="42.08664217497548" lon="12.805059058501941"><ele>536.0</ele><time>2026-04-12T10:04:22.999Z</time></trkpt><trkpt lat="42.086577604275604" lon="12.80505432156074"><ele>536.0</ele><time>2026-04-12T10:04:27.999Z</time></trkpt><trkpt lat="42.08650792103186" lon="12.805054338226073"><ele>533.4285714285714</ele><time>2026-04-12T10:04:31.999Z</time></trkpt><trkpt lat="42.086438544923936" lon="12.805049018707889"><ele>530.8571428571429</ele><time>2026-04-12T10:04:35.999Z</time></trkpt><trkpt lat="42.086379358187116" lon="12.805007791670636"><ele>528.2857142857142</ele><time>2026-04-12T10:04:45.999Z</time></trkpt><trkpt lat="42.08630696430229" lon="12.804982149349463"><ele>525.7142857142858</ele><time>2026-04-12T10:04:49.999Z</time></trkpt><trkpt lat="42.08622449537744" lon="12.804966653868794"><ele>523.1428571428571</ele><time>2026-04-12T10:04:53.999Z</time></trkpt><trkpt lat="42.0861572063847" lon="12.80495294632451"><ele>520.5714285714286</ele><time>2026-04-12T10:04:57.999Z</time></trkpt><trkpt lat="42.08608712481052" lon="12.804935111662706"><ele>518.0</ele><time>2026-04-12T10:05:02.999Z</time></trkpt><trkpt lat="42.086014675868334" lon="12.80491315775193"><ele>518.0</ele><time>2026-04-12T10:05:07.999Z</time></trkpt><trkpt lat="42.085950013068114" lon="12.804908638078341"><ele>518.0</ele><time>2026-04-12T10:05:12.999Z</time></trkpt><trkpt lat="42.08588428662313" lon="12.804877398489651"><ele>518.0</ele><time>2026-04-12T10:05:18.999Z</time></trkpt><trkpt lat="42.08581877902682" lon="12.804873977596731"><ele>518.0</ele><time>2026-04-12T10:05:22.999Z</time></trkpt><trkpt lat="42.085749411754" lon="12.804877549841233"><ele>518.0</ele><time>2026-04-12T10:05:27.999Z</time></trkpt><trkpt lat="42.08568510220903" lon="12.804865577181141"><ele>518.0</ele><time>2026-04-12T10:05:31.998Z</time></trkpt><trkpt lat="42.08561328703437" lon="12.804846711232454"><ele>518.0</ele><time>2026-04-12T10:05:36Z</time></trkpt><trkpt lat="42.08554970658139" lon="12.804845056459376"><ele>517.5714285714286</ele><time>2026-04-12T10:05:40Z</time></trkpt><trkpt lat="42.08548362328904" lon="12.804837767948605"><ele>517.1428571428571</ele><time>2026-04-12T10:05:44Z</time></trkpt><trkpt lat="42.085417474088615" lon="12.804832396110465"><ele>516.7142857142858</ele><time>2026-04-12T10:05:49Z</time></trkpt><trkpt lat="42.085352338771024" lon="12.804834769884405"><ele>516.2857142857142</ele><time>2026-04-12T10:05:54Z</time></trkpt><trkpt lat="42.08528449163773" lon="12.804829056108112"><ele>515.8571428571429</ele><time>2026-04-12T10:05:58Z</time></trkpt><trkpt lat="42.08521463679172" lon="12.804824737024651"><ele>515.4285714285714</ele><time>2026-04-12T10:06:03Z</time></trkpt><trkpt lat="42.0851407116099" lon="12.804830652570285"><ele>515.0</ele><time>2026-04-12T10:06:07Z</time></trkpt><trkpt lat="42.08506028811616" lon="12.804837055494586"><ele>515.0</ele><time>2026-04-12T10:06:12Z</time></trkpt><trkpt lat="42.08499204127478" lon="12.804849393179966"><ele>515.0</ele><time>2026-04-12T10:06:17Z</time></trkpt><trkpt lat="42.084924899456176" lon="12.804860374881011"><ele>515.0</ele><time>2026-04-12T10:06:21Z</time></trkpt><trkpt lat="42.084848260834626" lon="12.804876684568496"><ele>515.0</ele><time>2026-04-12T10:06:27Z</time></trkpt><trkpt lat="42.08478447682226" lon="12.804888983921986"><ele>515.0</ele><time>2026-04-12T10:06:30.999Z</time></trkpt><trkpt lat="42.0847182425295" lon="12.804897789974252"><ele>515.0</ele><time>2026-04-12T10:06:34.999Z</time></trkpt><trkpt lat="42.084643073075384" lon="12.804919466242445"><ele>515.0</ele><time>2026-04-12T10:06:39.999Z</time></trkpt><trkpt lat="42.08457247724445" lon="12.804928627096487"><ele>513.2857142857143</ele><time>2026-04-12T10:06:44.999Z</time></trkpt><trkpt lat="42.08450514978825" lon="12.80492954620953"><ele>511.57142857142856</ele><time>2026-04-12T10:06:50.999Z</time></trkpt><trkpt lat="42.08443946234294" lon="12.804918293309436"><ele>509.8571428571429</ele><time>2026-04-12T10:06:57.999Z</time></trkpt><trkpt lat="42.084377384527635" lon="12.80487844483373"><ele>508.14285714285717</ele><time>2026-04-12T10:07:02.999Z</time></trkpt><trkpt lat="42.084315881244976" lon="12.804835900553382"><ele>506.42857142857144</ele><time>2026-04-12T10:07:07.999Z</time></trkpt><trkpt lat="42.08424881912277" lon="12.804801707268673"><ele>504.7142857142857</ele><time>2026-04-12T10:07:11.999Z</time></trkpt><trkpt lat="42.08418386057568" lon="12.804754384970847"><ele>503.0</ele><time>2026-04-12T10:07:15.999Z</time></trkpt><trkpt lat="42.08411445213719" lon="12.804728318828218"><ele>499.42857142857144</ele><time>2026-04-12T10:07:19.999Z</time></trkpt><trkpt lat="42.08404372550686" lon="12.804711435955854"><ele>495.8571428571429</ele><time>2026-04-12T10:07:23.999Z</time></trkpt><trkpt lat="42.083975045220285" lon="12.804697719359291"><ele>492.28571428571433</ele><time>2026-04-12T10:07:27.999Z</time></trkpt><trkpt lat="42.08390795305137" lon="12.804669432211194"><ele>488.7142857142858</ele><time>2026-04-12T10:07:31.999Z</time></trkpt><trkpt lat="42.08384639720065" lon="12.804635649089347"><ele>485.14285714285717</ele><time>2026-04-12T10:07:35.999Z</time></trkpt><trkpt lat="42.0837804269827" lon="12.804585500031665"><ele>481.57142857142867</ele><time>2026-04-12T10:07:39.998Z</time></trkpt><trkpt lat="42.083735937082984" lon="12.804519296164273"><ele>478.00000000000006</ele><time>2026-04-12T10:07:44Z</time></trkpt><trkpt lat="42.083686742821186" lon="12.80444953681466"><ele>478.00000000000006</ele><time>2026-04-12T10:07:49Z</time></trkpt><trkpt lat="42.08363787571077" lon="12.80437800127313"><ele>478.0</ele><time>2026-04-12T10:07:53Z</time></trkpt><trkpt lat="42.083588807900476" lon="12.804301270587034"><ele>478.00000000000006</ele><time>2026-04-12T10:07:57Z</time></trkpt><trkpt lat="42.083551415084685" lon="12.804223087774501"><ele>478.00000000000006</ele><time>2026-04-12T10:08:01Z</time></trkpt><trkpt lat="42.083522596568635" lon="12.804130928762337"><ele>478.0</ele><time>2026-04-12T10:08:05Z</time></trkpt><trkpt lat="42.08350284042353" lon="12.804040007584911"><ele>478.00000000000006</ele><time>2026-04-12T10:08:09Z</time></trkpt><trkpt lat="42.08349070422746" lon="12.803937690822105"><ele>478.00000000000006</ele><time>2026-04-12T10:08:13Z</time></trkpt><trkpt lat="42.08348097203515" lon="12.803840820541387"><ele>479.1428571428572</ele><time>2026-04-12T10:08:17Z</time></trkpt><trkpt lat="42.08348061161683" lon="12.80371582642667"><ele>480.28571428571433</ele><time>2026-04-12T10:08:23Z</time></trkpt><trkpt lat="42.083485599912485" lon="12.803628452922574"><ele>481.42857142857144</ele><time>2026-04-12T10:08:27Z</time></trkpt><trkpt lat="42.08348250647515" lon="12.803533499640992"><ele>482.5714285714286</ele><time>2026-04-12T10:08:31Z</time></trkpt><trkpt lat="42.08348657164008" lon="12.803445861330104"><ele>483.7142857142858</ele><time>2026-04-12T10:08:33.999Z</time></trkpt><trkpt lat="42.08350334408761" lon="12.803340724325329"><ele>484.85714285714283</ele><time>2026-04-12T10:08:38.999Z</time></trkpt><trkpt lat="42.08350457970046" lon="12.803255636631198"><ele>486.0</ele><time>2026-04-12T10:08:42.999Z</time></trkpt><trkpt lat="42.08350025381907" lon="12.803168191249343"><ele>486.0</ele><time>2026-04-12T10:08:46.999Z</time></trkpt><trkpt lat="42.08349410360642" lon="12.803079561933842"><ele>486.0</ele><time>2026-04-12T10:08:50.999Z</time></trkpt><trkpt lat="42.08349583568131" lon="12.802981902038299"><ele>486.0</ele><time>2026-04-12T10:08:54.999Z</time></trkpt><trkpt lat="42.08333970847314" lon="12.80299968310739"><ele>486.0</ele><time>2026-04-12T10:10:45.999Z</time></trkpt><trkpt lat="42.08348389315411" lon="12.802921872819027"><ele>486.0</ele><time>2026-04-12T10:10:50.999Z</time></trkpt><trkpt lat="42.08351166519214" lon="12.802835722925753"><ele>486.0</ele><time>2026-04-12T10:10:56.999Z</time></trkpt><trkpt lat="42.08353294891573" lon="12.802750093720947"><ele>486.0</ele><time>2026-04-12T10:11:00.999Z</time></trkpt><trkpt lat="42.0835487018044" lon="12.80266620612052"><ele>486.0</ele><time>2026-04-12T10:11:04.999Z</time></trkpt><trkpt lat="42.08358819040808" lon="12.802588887479448"><ele>486.0</ele><time>2026-04-12T10:11:10.999Z</time></trkpt><trkpt lat="42.0835894588776" lon="12.80249904128894"><ele>486.0</ele><time>2026-04-12T10:11:13.999Z</time></trkpt><trkpt lat="42.083632966687446" lon="12.802426832780538"><ele>486.0</ele><time>2026-04-12T10:11:18.999Z</time></trkpt><trkpt lat="42.08368439806709" lon="12.80236606942193"><ele>484.1428571428571</ele><time>2026-04-12T10:11:23.999Z</time></trkpt><trkpt lat="42.083732702586246" lon="12.802290523923327"><ele>482.28571428571433</ele><time>2026-04-12T10:11:28.999Z</time></trkpt><trkpt lat="42.083780124128566" lon="12.802231174890213"><ele>480.42857142857144</ele><time>2026-04-12T10:11:31.999Z</time></trkpt><trkpt lat="42.083841758271696" lon="12.802170950689103"><ele>478.57142857142856</ele><time>2026-04-12T10:11:35.998Z</time></trkpt><trkpt lat="42.08389162752936" lon="12.802111389051838"><ele>476.71428571428567</ele><time>2026-04-12T10:11:39.998Z</time></trkpt><trkpt lat="42.08395588153793" lon="12.80207954378366"><ele>474.8571428571429</ele><time>2026-04-12T10:11:45.998Z</time></trkpt><trkpt lat="42.084026374156245" lon="12.802020990066454"><ele>473.0</ele><time>2026-04-12T10:12:04.998Z</time></trkpt><trkpt lat="42.0840745552058" lon="12.80195625986477"><ele>473.57142857142856</ele><time>2026-04-12T10:12:07.998Z</time></trkpt><trkpt lat="42.084134729932" lon="12.801888364763538"><ele>474.1428571428571</ele><time>2026-04-12T10:12:11.999Z</time></trkpt><trkpt lat="42.084189132307955" lon="12.801819759951861"><ele>474.71428571428567</ele><time>2026-04-12T10:12:15.999Z</time></trkpt><trkpt lat="42.084235361864025" lon="12.80175719593087"><ele>475.2857142857143</ele><time>2026-04-12T10:12:19.999Z</time></trkpt><trkpt lat="42.084276555549934" lon="12.801690395453294"><ele>475.8571428571428</ele><time>2026-04-12T10:12:24.999Z</time></trkpt><trkpt lat="42.084334560565004" lon="12.801627094385962"><ele>476.4285714285714</ele><time>2026-04-12T10:12:28.999Z</time></trkpt><trkpt lat="42.0843899179975" lon="12.801565994639807"><ele>477.0</ele><time>2026-04-12T10:12:32.999Z</time></trkpt><trkpt lat="42.08443327900651" lon="12.801498094544781"><ele>477.0</ele><time>2026-04-12T10:12:35.999Z</time></trkpt><trkpt lat="42.08447975088937" lon="12.801411213553944"><ele>477.0</ele><time>2026-04-12T10:12:39.999Z</time></trkpt><trkpt lat="42.08452376805728" lon="12.801335479505685"><ele>477.0</ele><time>2026-04-12T10:12:43.999Z</time></trkpt><trkpt lat="42.08457380628669" lon="12.8012311730734"><ele>477.0</ele><time>2026-04-12T10:12:47.999Z</time></trkpt><trkpt lat="42.08461902221782" lon="12.801127217937342"><ele>477.0</ele><time>2026-04-12T10:12:50.999Z</time></trkpt><trkpt lat="42.08465210704143" lon="12.801049738598323"><ele>477.0</ele><time>2026-04-12T10:12:55.999Z</time></trkpt><trkpt lat="42.08468443277659" lon="12.80096947515027"><ele>477.0</ele><time>2026-04-12T10:12:59.999Z</time></trkpt><trkpt lat="42.08472416159153" lon="12.800900474107843"><ele>476.99999999999994</ele><time>2026-04-12T10:13:03.999Z</time></trkpt><trkpt lat="42.08476424175215" lon="12.800816023104312"><ele>477.0</ele><time>2026-04-12T10:13:08.999Z</time></trkpt><trkpt lat="42.08480132018907" lon="12.80072766748269"><ele>477.0</ele><time>2026-04-12T10:13:13.999Z</time></trkpt><trkpt lat="42.084846498669336" lon="12.800650973538614"><ele>476.99999999999994</ele><time>2026-04-12T10:13:18.999Z</time></trkpt><trkpt lat="42.084889221669016" lon="12.8005747758205"><ele>477.0</ele><time>2026-04-12T10:13:22.999Z</time></trkpt><trkpt lat="42.08493635709451" lon="12.800493260186855"><ele>477.0</ele><time>2026-04-12T10:13:26.999Z</time></trkpt><trkpt lat="42.08498516721438" lon="12.800403661808446"><ele>477.0</ele><time>2026-04-12T10:13:31.999Z</time></trkpt><trkpt lat="42.08503531764418" lon="12.800345811630386"><ele>476.99999999999994</ele><time>2026-04-12T10:13:35.999Z</time></trkpt><trkpt lat="42.08509332339976" lon="12.800296772324314"><ele>477.0</ele><time>2026-04-12T10:13:40.999Z</time></trkpt><trkpt lat="42.08514133132286" lon="12.800217582210866"><ele>477.0</ele><time>2026-04-12T10:13:45.999Z</time></trkpt><trkpt lat="42.08519539297969" lon="12.800145459266407"><ele>476.99999999999994</ele><time>2026-04-12T10:13:50.998Z</time></trkpt><trkpt lat="42.085243992446465" lon="12.800077250962227"><ele>477.0</ele><time>2026-04-12T10:13:54.998Z</time></trkpt><trkpt lat="42.08529080688679" lon="12.799989631686865"><ele>477.0</ele><time>2026-04-12T10:13:58.998Z</time></trkpt><trkpt lat="42.085333164669805" lon="12.799921351291227"><ele>473.85714285714283</ele><time>2026-04-12T10:14:02.999Z</time></trkpt><trkpt lat="42.08537710191048" lon="12.799848653879314"><ele>470.71428571428567</ele><time>2026-04-12T10:14:06.999Z</time></trkpt><trkpt lat="42.08541211627981" lon="12.799772471906635"><ele>467.57142857142856</ele><time>2026-04-12T10:14:11Z</time></trkpt><trkpt lat="42.08545062252784" lon="12.799693109088016"><ele>464.42857142857144</ele><time>2026-04-12T10:14:15Z</time></trkpt><trkpt lat="42.08547570466015" lon="12.799613712332938"><ele>461.2857142857143</ele><time>2026-04-12T10:15:03.999Z</time></trkpt><trkpt lat="42.08553374056029" lon="12.799554089249147"><ele>458.1428571428571</ele><time>2026-04-12T10:15:14.999Z</time></trkpt><trkpt lat="42.08558780924716" lon="12.799492879240548"><ele>455.0</ele><time>2026-04-12T10:15:20.999Z</time></trkpt><trkpt lat="42.08564119883498" lon="12.79944555601305"><ele>455.0</ele><time>2026-04-12T10:15:24.999Z</time></trkpt><trkpt lat="42.085700480357616" lon="12.799373473939728"><ele>455.0</ele><time>2026-04-12T10:15:29.999Z</time></trkpt><trkpt lat="42.08575641268964" lon="12.799313572218821"><ele>455.0</ele><time>2026-04-12T10:15:32.999Z</time></trkpt><trkpt lat="42.08580274297829" lon="12.79924366215377"><ele>455.0</ele><time>2026-04-12T10:15:36.999Z</time></trkpt><trkpt lat="42.08584532931266" lon="12.79918108797885"><ele>455.0</ele><time>2026-04-12T10:15:39.999Z</time></trkpt><trkpt lat="42.08588358223048" lon="12.799087929569081"><ele>455.0</ele><time>2026-04-12T10:15:44.999Z</time></trkpt><trkpt lat="42.0859333825782" lon="12.799007949699702"><ele>455.0</ele><time>2026-04-12T10:15:48.999Z</time></trkpt><trkpt lat="42.08597721933162" lon="12.798921329561729"><ele>454.57142857142856</ele><time>2026-04-12T10:15:52.999Z</time></trkpt><trkpt lat="42.08602230901452" lon="12.798836275536313"><ele>454.1428571428571</ele><time>2026-04-12T10:15:56.999Z</time></trkpt><trkpt lat="42.0860375571159" lon="12.798739621828979"><ele>453.7142857142857</ele><time>2026-04-12T10:16:00.999Z</time></trkpt><trkpt lat="42.08603949548026" lon="12.798653396273988"><ele>453.2857142857143</ele><time>2026-04-12T10:16:04.999Z</time></trkpt><trkpt lat="42.086039519753726" lon="12.798561108769427"><ele>452.85714285714283</ele><time>2026-04-12T10:16:09Z</time></trkpt><trkpt lat="42.08604329308347" lon="12.798470626702095"><ele>452.42857142857144</ele><time>2026-04-12T10:16:12Z</time></trkpt><trkpt lat="42.08604918017395" lon="12.798368159943454"><ele>452.0</ele><time>2026-04-12T10:16:17Z</time></trkpt><trkpt lat="42.086042651861995" lon="12.798275818745433"><ele>449.7142857142857</ele><time>2026-04-12T10:16:22Z</time></trkpt><trkpt lat="42.086059439331706" lon="12.798181099680182"><ele>447.4285714285714</ele><time>2026-04-12T10:16:27Z</time></trkpt><trkpt lat="42.08606040514222" lon="12.79808959688809"><ele>445.1428571428571</ele><time>2026-04-12T10:16:33Z</time></trkpt><trkpt lat="42.08609310859081" lon="12.797993058266618"><ele>442.8571428571429</ele><time>2026-04-12T10:16:38Z</time></trkpt><trkpt lat="42.086123816989925" lon="12.797916997381481"><ele>440.57142857142856</ele><time>2026-04-12T10:16:44Z</time></trkpt><trkpt lat="42.08615290973835" lon="12.797831355612484"><ele>438.2857142857143</ele><time>2026-04-12T10:16:49Z</time></trkpt><trkpt lat="42.086191068991894" lon="12.797758769933107"><ele>436.0</ele><time>2026-04-12T10:16:53Z</time></trkpt><trkpt lat="42.08624375769406" lon="12.797690667422332"><ele>435.7142857142857</ele><time>2026-04-12T10:16:58Z</time></trkpt><trkpt lat="42.086280406830426" lon="12.797604346500913"><ele>435.42857142857144</ele><time>2026-04-12T10:17:03Z</time></trkpt><trkpt lat="42.08633232276752" lon="12.797526187811602"><ele>435.1428571428571</ele><time>2026-04-12T10:17:07Z</time></trkpt><trkpt lat="42.08638294947037" lon="12.797452499669292"><ele>434.8571428571429</ele><time>2026-04-12T10:17:12Z</time></trkpt><trkpt lat="42.08642633134274" lon="12.797386764904465"><ele>434.57142857142856</ele><time>2026-04-12T10:17:16Z</time></trkpt><trkpt lat="42.08648305621922" lon="12.797336043297864"><ele>434.2857142857143</ele><time>2026-04-12T10:17:20Z</time></trkpt><trkpt lat="42.086548045511485" lon="12.797295196708241"><ele>434.0</ele><time>2026-04-12T10:17:25Z</time></trkpt><trkpt lat="42.086639714695195" lon="12.79726300868026"><ele>434.0</ele><time>2026-04-12T10:17:34Z</time></trkpt><trkpt lat="42.086713146982795" lon="12.797256597582267"><ele>434.0</ele><time>2026-04-12T10:17:40Z</time></trkpt><trkpt lat="42.08686670781545" lon="12.797255078661353"><ele>434.0</ele><time>2026-04-12T10:17:54Z</time></trkpt><trkpt lat="42.087045245532885" lon="12.797262831993423"><ele>434.0</ele><time>2026-04-12T10:18:04.999Z</time></trkpt><trkpt lat="42.08712493385919" lon="12.797293390334337"><ele>433.99999999999994</ele><time>2026-04-12T10:18:08.999Z</time></trkpt><trkpt lat="42.08723614442728" lon="12.797275480993727"><ele>434.0</ele><time>2026-04-12T10:18:16Z</time></trkpt><trkpt lat="42.08731070318723" lon="12.797247575125063"><ele>434.0</ele><time>2026-04-12T10:18:21Z</time></trkpt><trkpt lat="42.0873870165111" lon="12.797228195032005"><ele>434.0</ele><time>2026-04-12T10:18:26Z</time></trkpt><trkpt lat="42.08745479715223" lon="12.797200878251997"><ele>433.99999999999994</ele><time>2026-04-12T10:18:32Z</time></trkpt><trkpt lat="42.087520171569615" lon="12.797181257958368"><ele>434.0</ele><time>2026-04-12T10:18:37Z</time></trkpt><trkpt lat="42.087587565980876" lon="12.797166948498996"><ele>433.49999999999994</ele><time>2026-04-12T10:18:55Z</time></trkpt><trkpt lat="42.087705622669844" lon="12.79715720941369"><ele>433.0</ele><time>2026-04-12T10:19:10Z</time></trkpt><trkpt lat="42.0877785651966" lon="12.797142740431523"><ele>432.5</ele><time>2026-04-12T10:19:16Z</time></trkpt><trkpt lat="42.087856237793034" lon="12.797136693706138"><ele>432.0</ele><time>2026-04-12T10:19:22Z</time></trkpt><trkpt lat="42.0879152570386" lon="12.79710068080868"><ele>431.49999999999994</ele><time>2026-04-12T10:19:28Z</time></trkpt><trkpt lat="42.08800058828088" lon="12.797069384805292"><ele>431.0</ele><time>2026-04-12T10:19:32Z</time></trkpt><trkpt lat="42.08805471863049" lon="12.797005200668666"><ele>431.0</ele><time>2026-04-12T10:19:35Z</time></trkpt><trkpt lat="42.088069584596205" lon="12.796919978397678"><ele>431.0</ele><time>2026-04-12T10:19:39Z</time></trkpt><trkpt lat="42.088077871324195" lon="12.796827070839292"><ele>431.0</ele><time>2026-04-12T10:19:45Z</time></trkpt><trkpt lat="42.08804133082658" lon="12.796754112700645"><ele>431.0</ele><time>2026-04-12T10:20:04.999Z</time></trkpt><trkpt lat="42.0879763934574" lon="12.796704674520072"><ele>431.0</ele><time>2026-04-12T10:20:07.999Z</time></trkpt><trkpt lat="42.0879120773167" lon="12.796639450021589"><ele>431.0</ele><time>2026-04-12T10:20:10.999Z</time></trkpt><trkpt lat="42.087831725301925" lon="12.796577320826104"><ele>431.0</ele><time>2026-04-12T10:20:13.999Z</time></trkpt><trkpt lat="42.08777562287336" lon="12.796514835920105"><ele>428.8571428571429</ele><time>2026-04-12T10:20:16.999Z</time></trkpt><trkpt lat="42.08774739661859" lon="12.796434252187087"><ele>426.71428571428567</ele><time>2026-04-12T10:20:21Z</time></trkpt><trkpt lat="42.08767855362786" lon="12.796403785167081"><ele>424.57142857142856</ele><time>2026-04-12T10:20:26Z</time></trkpt><trkpt lat="42.08762370547688" lon="12.79635029177304"><ele>422.42857142857144</ele><time>2026-04-12T10:20:30Z</time></trkpt><trkpt lat="42.08756744201829" lon="12.796288058630259"><ele>420.28571428571433</ele><time>2026-04-12T10:20:34Z</time></trkpt><trkpt lat="42.08751324858957" lon="12.796214393271846"><ele>418.1428571428571</ele><time>2026-04-12T10:20:39Z</time></trkpt><trkpt lat="42.087467888990844" lon="12.796147184565813"><ele>416.0</ele><time>2026-04-12T10:20:43Z</time></trkpt><trkpt lat="42.087444066622304" lon="12.796056440346335"><ele>415.57142857142856</ele><time>2026-04-12T10:20:47Z</time></trkpt><trkpt lat="42.08738491708597" lon="12.796021427132917"><ele>415.14285714285717</ele><time>2026-04-12T10:20:51Z</time></trkpt><trkpt lat="42.08735563163503" lon="12.795946180426924"><ele>414.7142857142857</ele><time>2026-04-12T10:20:55Z</time></trkpt><trkpt lat="42.087308744980284" lon="12.79588548755642"><ele>414.2857142857143</ele><time>2026-04-12T10:21:00Z</time></trkpt><trkpt lat="42.08724214752942" lon="12.795836053998766"><ele>413.8571428571429</ele><time>2026-04-12T10:21:04Z</time></trkpt><trkpt lat="42.08719707899496" lon="12.795772974956432"><ele>413.42857142857144</ele><time>2026-04-12T10:21:08Z</time></trkpt><trkpt lat="42.087141725232925" lon="12.795697178027837"><ele>413.0</ele><time>2026-04-12T10:21:13Z</time></trkpt><trkpt lat="42.08708730322644" lon="12.795624505219854"><ele>410.85714285714283</ele><time>2026-04-12T10:21:18Z</time></trkpt><trkpt lat="42.08704256041405" lon="12.795555185886396"><ele>408.7142857142857</ele><time>2026-04-12T10:21:22Z</time></trkpt><trkpt lat="42.086975223537664" lon="12.795499756799773"><ele>406.57142857142856</ele><time>2026-04-12T10:21:27Z</time></trkpt><trkpt lat="42.08694052785971" lon="12.795422107614177"><ele>404.42857142857144</ele><time>2026-04-12T10:21:31Z</time></trkpt><trkpt lat="42.08690235137101" lon="12.795349719646824"><ele>402.2857142857143</ele><time>2026-04-12T10:21:35Z</time></trkpt><trkpt lat="42.08684899512843" lon="12.795284196563191"><ele>400.1428571428571</ele><time>2026-04-12T10:21:39Z</time></trkpt><trkpt lat="42.086795542855405" lon="12.795224008437232"><ele>398.0</ele><time>2026-04-12T10:22:01.999Z</time></trkpt><trkpt lat="42.086768007400764" lon="12.795125340993431"><ele>397.99999999999994</ele><time>2026-04-12T10:22:06.999Z</time></trkpt><trkpt lat="42.08673781744961" lon="12.795038717283173"><ele>398.0</ele><time>2026-04-12T10:22:10.999Z</time></trkpt><trkpt lat="42.086702505577406" lon="12.794939735730008"><ele>398.0</ele><time>2026-04-12T10:22:14.999Z</time></trkpt><trkpt lat="42.086672352233784" lon="12.794846396217658"><ele>398.0</ele><time>2026-04-12T10:22:18.999Z</time></trkpt><trkpt lat="42.086636296910235" lon="12.794762849651832"><ele>398.0</ele><time>2026-04-12T10:22:22.999Z</time></trkpt><trkpt lat="42.08659601044305" lon="12.794685586149534"><ele>397.99999999999994</ele><time>2026-04-12T10:22:27.001Z</time></trkpt><trkpt lat="42.08655407489954" lon="12.79461768353373"><ele>398.0</ele><time>2026-04-12T10:22:32Z</time></trkpt><trkpt lat="42.08651665276959" lon="12.794544292386332"><ele>395.99999999999994</ele><time>2026-04-12T10:22:37Z</time></trkpt><trkpt lat="42.08647445538718" lon="12.794457757289091"><ele>394.0</ele><time>2026-04-12T10:22:42Z</time></trkpt><trkpt lat="42.08643675537889" lon="12.794376959293944"><ele>392.0</ele><time>2026-04-12T10:22:48Z</time></trkpt><trkpt lat="42.0864002398794" lon="12.794296980166667"><ele>390.0</ele><time>2026-04-12T10:22:56Z</time></trkpt><trkpt lat="42.08638132765855" lon="12.794202014683654"><ele>388.0</ele><time>2026-04-12T10:23:01Z</time></trkpt><trkpt lat="42.08634427631465" lon="12.794132398212732"><ele>385.99999999999994</ele><time>2026-04-12T10:23:04Z</time></trkpt><trkpt lat="42.08629684752916" lon="12.794036159004113"><ele>384.0</ele><time>2026-04-12T10:23:09Z</time></trkpt><trkpt lat="42.08626757208355" lon="12.793957188596051"><ele>382.85714285714283</ele><time>2026-04-12T10:23:13Z</time></trkpt><trkpt lat="42.086226967466025" lon="12.793889541921672"><ele>381.7142857142857</ele><time>2026-04-12T10:23:26Z</time></trkpt><trkpt lat="42.08619412672388" lon="12.793790760914053"><ele>380.57142857142856</ele><time>2026-04-12T10:23:31Z</time></trkpt><trkpt lat="42.08616174854886" lon="12.793714436372424"><ele>379.42857142857144</ele><time>2026-04-12T10:23:39Z</time></trkpt><trkpt lat="42.086131071146454" lon="12.793625324419967"><ele>378.2857142857143</ele><time>2026-04-12T10:23:44Z</time></trkpt><trkpt lat="42.086129838015786" lon="12.793535775893979"><ele>377.1428571428571</ele><time>2026-04-12T10:23:48Z</time></trkpt><trkpt lat="42.086112660295605" lon="12.793434355002583"><ele>376.0</ele><time>2026-04-12T10:23:53Z</time></trkpt><trkpt lat="42.08609914833678" lon="12.793341712943016"><ele>375.42857142857144</ele><time>2026-04-12T10:23:56.999Z</time></trkpt><trkpt lat="42.08607950878486" lon="12.793260068131769"><ele>374.85714285714283</ele><time>2026-04-12T10:24:00.999Z</time></trkpt><trkpt lat="42.086066066326836" lon="12.79316005067654"><ele>374.28571428571433</ele><time>2026-04-12T10:24:05.999Z</time></trkpt><trkpt lat="42.08607213659644" lon="12.793060728980603"><ele>373.7142857142857</ele><time>2026-04-12T10:24:09.999Z</time></trkpt><trkpt lat="42.0860739157672" lon="12.792973459095643"><ele>373.14285714285717</ele><time>2026-04-12T10:24:13.999Z</time></trkpt><trkpt lat="42.08607448098115" lon="12.792871544851083"><ele>372.5714285714286</ele><time>2026-04-12T10:24:35Z</time></trkpt><trkpt lat="42.086088726967446" lon="12.792783986871905"><ele>372.0</ele><time>2026-04-12T10:24:38Z</time></trkpt><trkpt lat="42.086107891853935" lon="12.79270192031801"><ele>371.5714285714286</ele><time>2026-04-12T10:24:42Z</time></trkpt><trkpt lat="42.08611969549747" lon="12.79260693064256"><ele>371.14285714285717</ele><time>2026-04-12T10:24:46Z</time></trkpt><trkpt lat="42.086146781008566" lon="12.792505283491977"><ele>370.7142857142857</ele><time>2026-04-12T10:24:50Z</time></trkpt><trkpt lat="42.0861728883581" lon="12.792412866227245"><ele>370.28571428571433</ele><time>2026-04-12T10:24:54Z</time></trkpt><trkpt lat="42.08618534724036" lon="12.79231532990979"><ele>369.85714285714283</ele><time>2026-04-12T10:24:58Z</time></trkpt><trkpt lat="42.086206057153035" lon="12.792215092616857"><ele>369.42857142857144</ele><time>2026-04-12T10:25:02Z</time></trkpt><trkpt lat="42.08623657663496" lon="12.792126527863285"><ele>369.0</ele><time>2026-04-12T10:25:06Z</time></trkpt><trkpt lat="42.08626159251659" lon="12.792044818570531"><ele>369.0</ele><time>2026-04-12T10:25:10Z</time></trkpt><trkpt lat="42.08627472094028" lon="12.791954744321488"><ele>369.0</ele><time>2026-04-12T10:25:13Z</time></trkpt><trkpt lat="42.08629890883084" lon="12.791864497563662"><ele>369.0</ele><time>2026-04-12T10:25:18Z</time></trkpt><trkpt lat="42.086313641056904" lon="12.791779813076214"><ele>369.0</ele><time>2026-04-12T10:25:22Z</time></trkpt><trkpt lat="42.08633220251433" lon="12.791696988755362"><ele>369.0</ele><time>2026-04-12T10:25:26Z</time></trkpt><trkpt lat="42.08635925132366" lon="12.791600861008419"><ele>369.0</ele><time>2026-04-12T10:25:29Z</time></trkpt><trkpt lat="42.086377378131616" lon="12.791492240853815"><ele>369.0</ele><time>2026-04-12T10:25:33Z</time></trkpt><trkpt lat="42.08637639635347" lon="12.791405160678405"><ele>368.1428571428571</ele><time>2026-04-12T10:25:36Z</time></trkpt><trkpt lat="42.08640498707547" lon="12.791328734879654"><ele>367.2857142857143</ele><time>2026-04-12T10:25:39Z</time></trkpt><trkpt lat="42.08643995875998" lon="12.791257756652636"><ele>366.42857142857144</ele><time>2026-04-12T10:26:22.999Z</time></trkpt><trkpt lat="42.08644934263023" lon="12.791143384213518"><ele>365.57142857142856</ele><time>2026-04-12T10:26:27.999Z</time></trkpt><trkpt lat="42.086455899700375" lon="12.791055716236105"><ele>364.7142857142857</ele><time>2026-04-12T10:26:30.999Z</time></trkpt><trkpt lat="42.08646231947117" lon="12.790964445217645"><ele>363.85714285714283</ele><time>2026-04-12T10:26:33.999Z</time></trkpt><trkpt lat="42.08648768812335" lon="12.790880090932546"><ele>363.0</ele><time>2026-04-12T10:26:37Z</time></trkpt><trkpt lat="42.0865111708049" lon="12.790795719550712"><ele>362.85714285714283</ele><time>2026-04-12T10:26:40Z</time></trkpt><trkpt lat="42.08651442384496" lon="12.790709714086464"><ele>362.7142857142857</ele><time>2026-04-12T10:26:43Z</time></trkpt><trkpt lat="42.086539396699976" lon="12.790609446564263"><ele>362.57142857142856</ele><time>2026-04-12T10:26:47Z</time></trkpt><trkpt lat="42.08657549517952" lon="12.790508502750962"><ele>362.42857142857144</ele><time>2026-04-12T10:26:51Z</time></trkpt><trkpt lat="42.08660709240257" lon="12.790433293213978"><ele>362.2857142857143</ele><time>2026-04-12T10:26:54Z</time></trkpt><trkpt lat="42.08663869326118" lon="12.790358458713989"><ele>362.1428571428571</ele><time>2026-04-12T10:26:57Z</time></trkpt><trkpt lat="42.086687474362506" lon="12.790268245806354"><ele>362.0</ele><time>2026-04-12T10:27:01Z</time></trkpt><trkpt lat="42.086727974432456" lon="12.790194433818248"><ele>360.2857142857143</ele><time>2026-04-12T10:27:04Z</time></trkpt><trkpt lat="42.08678542678859" lon="12.79012814224936"><ele>358.57142857142856</ele><time>2026-04-12T10:27:07Z</time></trkpt><trkpt lat="42.08681228618914" lon="12.79003102169876"><ele>356.8571428571429</ele><time>2026-04-12T10:27:12Z</time></trkpt><trkpt lat="42.086852100734916" lon="12.789949433373907"><ele>355.1428571428571</ele><time>2026-04-12T10:27:16Z</time></trkpt><trkpt lat="42.08690202955163" lon="12.789869307946647"><ele>353.42857142857144</ele><time>2026-04-12T10:27:20Z</time></trkpt><trkpt lat="42.08694683116179" lon="12.789808406114036"><ele>351.7142857142857</ele><time>2026-04-12T10:27:23Z</time></trkpt><trkpt lat="42.08698707566099" lon="12.789729672542492"><ele>350.0</ele><time>2026-04-12T10:27:27Z</time></trkpt><trkpt lat="42.08701570698679" lon="12.789646907745544"><ele>350.0</ele><time>2026-04-12T10:27:31Z</time></trkpt><trkpt lat="42.08704563712509" lon="12.78955166506881"><ele>350.0</ele><time>2026-04-12T10:27:35Z</time></trkpt><trkpt lat="42.08707831242638" lon="12.789439603661922"><ele>350.0</ele><time>2026-04-12T10:27:39.999Z</time></trkpt><trkpt lat="42.08708268751571" lon="12.789341485536522"><ele>350.0</ele><time>2026-04-12T10:27:42.999Z</time></trkpt><trkpt lat="42.087095085986185" lon="12.789257356392723"><ele>350.0</ele><time>2026-04-12T10:27:45.999Z</time></trkpt><trkpt lat="42.0870908365189" lon="12.789147237367875"><ele>350.0</ele><time>2026-04-12T10:27:49.999Z</time></trkpt><trkpt lat="42.087094901499704" lon="12.789047181814135"><ele>348.57142857142856</ele><time>2026-04-12T10:27:53.999Z</time></trkpt><trkpt lat="42.08707173221295" lon="12.788965838235667"><ele>347.1428571428571</ele><time>2026-04-12T10:27:56.999Z</time></trkpt><trkpt lat="42.087062833075684" lon="12.788870025915397"><ele>345.7142857142857</ele><time>2026-04-12T10:28:01.999Z</time></trkpt><trkpt lat="42.08707163458876" lon="12.788768754796687"><ele>344.2857142857143</ele><time>2026-04-12T10:28:05.999Z</time></trkpt><trkpt lat="42.08708558821083" lon="12.788677926403484"><ele>342.85714285714283</ele><time>2026-04-12T10:28:10.999Z</time></trkpt><trkpt lat="42.087112482029646" lon="12.78860082107837"><ele>341.42857142857144</ele><time>2026-04-12T10:28:13.999Z</time></trkpt><trkpt lat="42.08714928990556" lon="12.788514431031778"><ele>340.0</ele><time>2026-04-12T10:28:17.999Z</time></trkpt><trkpt lat="42.087181547606065" lon="12.78843102859848"><ele>339.14285714285717</ele><time>2026-04-12T10:28:22.999Z</time></trkpt><trkpt lat="42.08722169439713" lon="12.788341713930034"><ele>338.2857142857143</ele><time>2026-04-12T10:28:26.999Z</time></trkpt><trkpt lat="42.08724532773774" lon="12.788249187467313"><ele>337.42857142857144</ele><time>2026-04-12T10:28:29.999Z</time></trkpt><trkpt lat="42.08728604218335" lon="12.788158287983745"><ele>336.57142857142856</ele><time>2026-04-12T10:28:33.999Z</time></trkpt><trkpt lat="42.08730565698013" lon="12.78807352330554"><ele>335.7142857142857</ele><time>2026-04-12T10:28:37.999Z</time></trkpt><trkpt lat="42.08733859168509" lon="12.787999062723932"><ele>334.85714285714283</ele><time>2026-04-12T10:28:42Z</time></trkpt><trkpt lat="42.08736614402734" lon="12.787906479127797"><ele>334.0</ele><time>2026-04-12T10:28:46Z</time></trkpt><trkpt lat="42.0873862793455" lon="12.787794712312296"><ele>334.0</ele><time>2026-04-12T10:28:51Z</time></trkpt><trkpt lat="42.08741174371336" lon="12.787712376569198"><ele>334.0</ele><time>2026-04-12T10:28:55Z</time></trkpt><trkpt lat="42.087437585790234" lon="12.787617104404339"><ele>334.0</ele><time>2026-04-12T10:29:00Z</time></trkpt><trkpt lat="42.08746592500235" lon="12.787514647450678"><ele>334.0</ele><time>2026-04-12T10:29:05Z</time></trkpt><trkpt lat="42.08747642740076" lon="12.78741939266816"><ele>334.0</ele><time>2026-04-12T10:29:09Z</time></trkpt><trkpt lat="42.08748771763853" lon="12.787311915481935"><ele>334.0</ele><time>2026-04-12T10:29:13Z</time></trkpt><trkpt lat="42.087488274505795" lon="12.787202255594893"><ele>333.5</ele><time>2026-04-12T10:29:18Z</time></trkpt><trkpt lat="42.08750000907702" lon="12.787101001108745"><ele>333.0</ele><time>2026-04-12T10:29:23Z</time></trkpt><trkpt lat="42.087523549644594" lon="12.786939380771038"><ele>332.5</ele><time>2026-04-12T10:29:32Z</time></trkpt><trkpt lat="42.08753440127296" lon="12.786845731705647"><ele>332.0</ele><time>2026-04-12T10:29:36Z</time></trkpt><trkpt lat="42.08756263008723" lon="12.786768570501367"><ele>331.5</ele><time>2026-04-12T10:29:39.999Z</time></trkpt><trkpt lat="42.08762312311334" lon="12.786708302843499"><ele>331.0</ele><time>2026-04-12T10:29:44.999Z</time></trkpt><trkpt lat="42.08766235769056" lon="12.786632833834563"><ele>329.42857142857144</ele><time>2026-04-12T10:29:48.999Z</time></trkpt><trkpt lat="42.087706743268704" lon="12.7865670600889"><ele>327.85714285714283</ele><time>2026-04-12T10:29:53.999Z</time></trkpt><trkpt lat="42.08773896908665" lon="12.786490627661964"><ele>326.2857142857143</ele><time>2026-04-12T10:30:27.999Z</time></trkpt><trkpt lat="42.087780406325734" lon="12.786426209731243"><ele>324.7142857142857</ele><time>2026-04-12T10:30:31.999Z</time></trkpt><trkpt lat="42.08781566191016" lon="12.786335472633677"><ele>323.14285714285717</ele><time>2026-04-12T10:30:35.999Z</time></trkpt><trkpt lat="42.08785934079571" lon="12.786262135201898"><ele>321.57142857142856</ele><time>2026-04-12T10:30:38.999Z</time></trkpt><trkpt lat="42.087902153044034" lon="12.786190556349855"><ele>320.0</ele><time>2026-04-12T10:30:42.999Z</time></trkpt><trkpt lat="42.0879373757409" lon="12.786097571871771"><ele>320.0</ele><time>2026-04-12T10:30:46.999Z</time></trkpt><trkpt lat="42.08796931873968" lon="12.786023424006364"><ele>320.0</ele><time>2026-04-12T10:30:50Z</time></trkpt><trkpt lat="42.08800782423091" lon="12.78595220981875"><ele>320.0</ele><time>2026-04-12T10:30:55Z</time></trkpt><trkpt lat="42.0880328052831" lon="12.785856914391365"><ele>320.0</ele><time>2026-04-12T10:30:59Z</time></trkpt><trkpt lat="42.088081471776015" lon="12.785765758147111"><ele>320.0</ele><time>2026-04-12T10:31:03Z</time></trkpt><trkpt lat="42.088108784591824" lon="12.785682744090561"><ele>320.0</ele><time>2026-04-12T10:31:07Z</time></trkpt><trkpt lat="42.08814558116702" lon="12.785613765142992"><ele>320.0</ele><time>2026-04-12T10:31:10Z</time></trkpt><trkpt lat="42.088182864928584" lon="12.785534968227498"><ele>319.4</ele><time>2026-04-12T10:31:14Z</time></trkpt><trkpt lat="42.088220914739416" lon="12.785460509069257"><ele>318.8</ele><time>2026-04-12T10:31:17Z</time></trkpt><trkpt lat="42.08826491044683" lon="12.78531894883709"><ele>318.2</ele><time>2026-04-12T10:31:20Z</time></trkpt><trkpt lat="42.08830266960201" lon="12.785210724161809"><ele>317.6</ele><time>2026-04-12T10:31:22Z</time></trkpt><trkpt lat="42.08835441934779" lon="12.785072951198947"><ele>317.0</ele><time>2026-04-12T10:31:24Z</time></trkpt><trkpt lat="42.08841728703703" lon="12.78494123546016"><ele>313.8</ele><time>2026-04-12T10:31:26Z</time></trkpt><trkpt lat="42.08844906319222" lon="12.784840582482987"><ele>310.6</ele><time>2026-04-12T10:31:27Z</time></trkpt><trkpt lat="42.0884899425668" lon="12.784708169870596"><ele>307.40000000000003</ele><time>2026-04-12T10:31:28Z</time></trkpt><trkpt lat="42.088521633734864" lon="12.784599822007808"><ele>304.2</ele><time>2026-04-12T10:31:29Z</time></trkpt><trkpt lat="42.08855386671723" lon="12.784477995986947"><ele>301.0</ele><time>2026-04-12T10:31:30Z</time></trkpt><trkpt lat="42.08856436636781" lon="12.784340363234158"><ele>299.3333333333333</ele><time>2026-04-12T10:31:31Z</time></trkpt><trkpt lat="42.088594143320165" lon="12.784220328264837"><ele>297.66666666666663</ele><time>2026-04-12T10:31:32Z</time></trkpt><trkpt lat="42.08859920620753" lon="12.78412755063788"><ele>296.0</ele><time>2026-04-12T10:31:33Z</time></trkpt><trkpt lat="42.088590208868894" lon="12.784033083549035"><ele>294.3333333333333</ele><time>2026-04-12T10:31:34Z</time></trkpt><trkpt lat="42.08857589825895" lon="12.783931943597564"><ele>292.6666666666667</ele><time>2026-04-12T10:31:35Z</time></trkpt><trkpt lat="42.08857434728368" lon="12.783817584868622"><ele>291.0</ele><time>2026-04-12T10:31:36Z</time></trkpt><trkpt lat="42.08855284662399" lon="12.78371670379987"><ele>291.0</ele><time>2026-04-12T10:31:37Z</time></trkpt><trkpt lat="42.08851079613176" lon="12.783620216171904"><ele>291.0</ele><time>2026-04-12T10:31:38Z</time></trkpt><trkpt lat="42.08849133663857" lon="12.783519733369461"><ele>291.0</ele><time>2026-04-12T10:31:39Z</time></trkpt><trkpt lat="42.088460397695414" lon="12.783433404589442"><ele>291.0</ele><time>2026-04-12T10:31:40Z</time></trkpt><trkpt lat="42.08843303652863" lon="12.783354833170884"><ele>291.0</ele><time>2026-04-12T10:31:41Z</time></trkpt><trkpt lat="42.0883571984089" lon="12.78322510543804"><ele>291.0</ele><time>2026-04-12T10:31:43Z</time></trkpt><trkpt lat="42.08832649020656" lon="12.783149348567422"><ele>291.1666666666667</ele><time>2026-04-12T10:31:46Z</time></trkpt><trkpt lat="42.08828758841617" lon="12.783044535649504"><ele>291.3333333333333</ele><time>2026-04-12T10:31:48.999Z</time></trkpt><trkpt lat="42.08824103982494" lon="12.782975823079335"><ele>291.5</ele><time>2026-04-12T10:31:50.999Z</time></trkpt><trkpt lat="42.08818460907262" lon="12.78289717283849"><ele>291.66666666666663</ele><time>2026-04-12T10:31:53.999Z</time></trkpt><trkpt lat="42.08814412059768" lon="12.782831332070069"><ele>291.8333333333333</ele><time>2026-04-12T10:31:55.999Z</time></trkpt><trkpt lat="42.08810161825808" lon="12.782752483690684"><ele>292.0</ele><time>2026-04-12T10:31:57.999Z</time></trkpt><trkpt lat="42.08805975869868" lon="12.78263912426661"><ele>294.2</ele><time>2026-04-12T10:31:59.999Z</time></trkpt><trkpt lat="42.08799306223235" lon="12.782481379906493"><ele>296.4</ele><time>2026-04-12T10:32:01.999Z</time></trkpt><trkpt lat="42.087959989605494" lon="12.782382262814254"><ele>298.6</ele><time>2026-04-12T10:32:02.999Z</time></trkpt><trkpt lat="42.08793544190794" lon="12.78227541777438"><ele>300.8</ele><time>2026-04-12T10:32:03.999Z</time></trkpt><trkpt lat="42.08792070015576" lon="12.782184576409033"><ele>303.0</ele><time>2026-04-12T10:32:04.999Z</time></trkpt><trkpt lat="42.087884703157386" lon="12.782036079498912"><ele>303.0</ele><time>2026-04-12T10:32:06.999Z</time></trkpt><trkpt lat="42.08786768561114" lon="12.781953723578892"><ele>303.0</ele><time>2026-04-12T10:32:08.999Z</time></trkpt><trkpt lat="42.08781871663873" lon="12.781884911175108"><ele>303.0</ele><time>2026-04-12T10:32:13.999Z</time></trkpt><trkpt lat="42.08780745536714" lon="12.78197573795303"><ele>303.0</ele><time>2026-04-12T10:32:18.999Z</time></trkpt><trkpt lat="42.08786867156554" lon="12.781911720470484"><ele>303.0</ele><time>2026-04-12T10:32:21.999Z</time></trkpt><trkpt lat="42.08782959650835" lon="12.782005677451707"><ele>303.0</ele><time>2026-04-12T10:32:27.999Z</time></trkpt><trkpt lat="42.08788847518112" lon="12.782043231781737"><ele>303.0</ele><time>2026-04-12T10:32:30.999Z</time></trkpt><trkpt lat="42.08791468133369" lon="12.782158154045984"><ele>303.0</ele><time>2026-04-12T10:32:33.999Z</time></trkpt><trkpt lat="42.08793490312844" lon="12.782261043041224"><ele>303.0</ele><time>2026-04-12T10:32:35.999Z</time></trkpt><trkpt lat="42.08797624789943" lon="12.782346374248304"><ele>303.0</ele><time>2026-04-12T10:32:37.999Z</time></trkpt><trkpt lat="42.08799817728595" lon="12.782441155018574"><ele>303.0</ele><time>2026-04-12T10:32:39.999Z</time></trkpt><trkpt lat="42.08803259685986" lon="12.782546442453286"><ele>303.0</ele><time>2026-04-12T10:32:41.999Z</time></trkpt><trkpt lat="42.08807599930664" lon="12.7826477469559"><ele>303.0</ele><time>2026-04-12T10:32:43.999Z</time></trkpt><trkpt lat="42.08811792494424" lon="12.782741746608865"><ele>303.6</ele><time>2026-04-12T10:32:45.999Z</time></trkpt><trkpt lat="42.08816616404591" lon="12.782841918256018"><ele>304.20000000000005</ele><time>2026-04-12T10:32:47.999Z</time></trkpt><trkpt lat="42.08823757872562" lon="12.782926233982572"><ele>304.8</ele><time>2026-04-12T10:32:49.999Z</time></trkpt><trkpt lat="42.08828545565818" lon="12.782988933989243"><ele>305.40000000000003</ele><time>2026-04-12T10:32:51.999Z</time></trkpt><trkpt lat="42.08833065030643" lon="12.783098004822488"><ele>306.0</ele><time>2026-04-12T10:32:55Z</time></trkpt><trkpt lat="42.08837441217313" lon="12.78323237085082"><ele>303.6666666666667</ele><time>2026-04-12T10:32:57Z</time></trkpt><trkpt lat="42.08843499014628" lon="12.783376366713247"><ele>301.3333333333333</ele><time>2026-04-12T10:32:59Z</time></trkpt><trkpt lat="42.088475922207394" lon="12.783473871485297"><ele>299.0</ele><time>2026-04-12T10:33:00Z</time></trkpt><trkpt lat="42.088498941563586" lon="12.78357222243751"><ele>296.66666666666663</ele><time>2026-04-12T10:33:01Z</time></trkpt><trkpt lat="42.08850744761703" lon="12.783677778776202"><ele>294.3333333333333</ele><time>2026-04-12T10:33:02Z</time></trkpt><trkpt lat="42.088529214430245" lon="12.783765003764236"><ele>292.0</ele><time>2026-04-12T10:33:03Z</time></trkpt><trkpt lat="42.08855508643682" lon="12.783911713400972"><ele>292.0</ele><time>2026-04-12T10:33:05Z</time></trkpt><trkpt lat="42.08856280600829" lon="12.784035621712325"><ele>292.0</ele><time>2026-04-12T10:33:07Z</time></trkpt><trkpt lat="42.08855810694694" lon="12.78388236613169"><ele>292.0</ele><time>2026-04-12T10:33:12Z</time></trkpt><trkpt lat="42.088522738855346" lon="12.783762730929919"><ele>292.0</ele><time>2026-04-12T10:33:13Z</time></trkpt><trkpt lat="42.08847638143179" lon="12.783635746540872"><ele>292.0</ele><time>2026-04-12T10:33:14Z</time></trkpt><trkpt lat="42.08847517808332" lon="12.783474646030129"><ele>292.0</ele><time>2026-04-12T10:33:15Z</time></trkpt><trkpt lat="42.08842490626389" lon="12.783330831244047"><ele>292.0</ele><time>2026-04-12T10:33:16Z</time></trkpt><trkpt lat="42.088373700810685" lon="12.783185003866672"><ele>292.0</ele><time>2026-04-12T10:33:17Z</time></trkpt><trkpt lat="42.088313164203015" lon="12.78304422326036"><ele>292.0</ele><time>2026-04-12T10:33:18Z</time></trkpt><trkpt lat="42.08824454413769" lon="12.782917178430305"><ele>294.75</ele><time>2026-04-12T10:33:19Z</time></trkpt><trkpt lat="42.088182032204195" lon="12.782795197263942"><ele>297.5</ele><time>2026-04-12T10:33:20Z</time></trkpt><trkpt lat="42.088112932981886" lon="12.782660363486503"><ele>300.25</ele><time>2026-04-12T10:33:21Z</time></trkpt><trkpt lat="42.08804556399685" lon="12.782517842794404"><ele>303.0</ele><time>2026-04-12T10:33:22Z</time></trkpt><trkpt lat="42.08799322601776" lon="12.78235269206586"><ele>303.0</ele><time>2026-04-12T10:33:23Z</time></trkpt><trkpt lat="42.087950487254076" lon="12.782198592495755"><ele>303.0</ele><time>2026-04-12T10:33:24Z</time></trkpt><trkpt lat="42.087919669400875" lon="12.78208174681252"><ele>303.0</ele><time>2026-04-12T10:33:25Z</time></trkpt><trkpt lat="42.087891575118896" lon="12.781969813228855"><ele>303.0</ele><time>2026-04-12T10:33:26Z</time></trkpt><trkpt lat="42.08786821791051" lon="12.781861979186132"><ele>303.0</ele><time>2026-04-12T10:33:28Z</time></trkpt><trkpt lat="42.08793933816025" lon="12.78179382030508"><ele>302.8</ele><time>2026-04-12T10:33:39Z</time></trkpt><trkpt lat="42.08801103153404" lon="12.781677691623045"><ele>302.6</ele><time>2026-04-12T10:33:41Z</time></trkpt><trkpt lat="42.08807184991232" lon="12.781586474735427"><ele>302.4</ele><time>2026-04-12T10:33:42Z</time></trkpt><trkpt lat="42.088164896274904" lon="12.781502121990501"><ele>302.2</ele><time>2026-04-12T10:33:43Z</time></trkpt><trkpt lat="42.08825930959917" lon="12.781412346138968"><ele>302.0</ele><time>2026-04-12T10:33:44Z</time></trkpt><trkpt lat="42.088356620625454" lon="12.781297759156589"><ele>301.4</ele><time>2026-04-12T10:33:45Z</time></trkpt><trkpt lat="42.088433407746074" lon="12.781184781960683"><ele>300.79999999999995</ele><time>2026-04-12T10:33:46Z</time></trkpt><trkpt lat="42.088506421548054" lon="12.781075439710438"><ele>300.2</ele><time>2026-04-12T10:33:47Z</time></trkpt><trkpt lat="42.0885628941102" lon="12.780983737181698"><ele>299.59999999999997</ele><time>2026-04-12T10:33:48Z</time></trkpt><trkpt lat="42.088608183251175" lon="12.78089475290963"><ele>299.0</ele><time>2026-04-12T10:33:49Z</time></trkpt><trkpt lat="42.08866050358764" lon="12.780801739581074"><ele>299.0</ele><time>2026-04-12T10:33:50Z</time></trkpt><trkpt lat="42.08870399541568" lon="12.780718936096228"><ele>299.0</ele><time>2026-04-12T10:33:51Z</time></trkpt><trkpt lat="42.088757007317234" lon="12.780638825712971"><ele>299.0</ele><time>2026-04-12T10:33:52.999Z</time></trkpt><trkpt lat="42.08879797128226" lon="12.780566113652934"><ele>299.0</ele><time>2026-04-12T10:33:57.999Z</time></trkpt><trkpt lat="42.088675624646186" lon="12.780479861479114"><ele>299.0</ele><time>2026-04-12T10:33:59.999Z</time></trkpt><trkpt lat="42.08860577949231" lon="12.780475866354925"><ele>299.0</ele><time>2026-04-12T10:34:01.999Z</time></trkpt><trkpt lat="42.08853118708797" lon="12.780597830227723"><ele>299.0</ele><time>2026-04-12T10:34:03.999Z</time></trkpt><trkpt lat="42.08849619084352" lon="12.780705222701336"><ele>299.0</ele><time>2026-04-12T10:34:04.999Z</time></trkpt><trkpt lat="42.088445790156015" lon="12.780802748487906"><ele>299.0</ele><time>2026-04-12T10:34:05.999Z</time></trkpt><trkpt lat="42.08848914579479" lon="12.780991424056"><ele>299.0</ele><time>2026-04-12T10:34:07.999Z</time></trkpt><trkpt lat="42.08837074236893" lon="12.780651942584917"><ele>299.0</ele><time>2026-04-12T10:34:11.999Z</time></trkpt><trkpt lat="42.08841706474424" lon="12.780566942596709"><ele>299.0</ele><time>2026-04-12T10:34:12.999Z</time></trkpt><trkpt lat="42.088461315476245" lon="12.780461810011172"><ele>299.0</ele><time>2026-04-12T10:34:13.999Z</time></trkpt><trkpt lat="42.088499138599886" lon="12.780371968108136"><ele>299.0</ele><time>2026-04-12T10:34:14.999Z</time></trkpt><trkpt lat="42.08855363389046" lon="12.780257778296042"><ele>299.0</ele><time>2026-04-12T10:34:16.999Z</time></trkpt><trkpt lat="42.088606889878314" lon="12.780331944132998"><ele>299.0</ele><time>2026-04-12T10:34:20.999Z</time></trkpt><trkpt lat="42.08855751019058" lon="12.780409979751449"><ele>299.0</ele><time>2026-04-12T10:34:23.999Z</time></trkpt><trkpt lat="42.088529919358315" lon="12.78049667104086"><ele>299.0</ele><time>2026-04-12T10:34:26.999Z</time></trkpt><trkpt lat="42.08854446858192" lon="12.780600407193665"><ele>299.0</ele><time>2026-04-12T10:34:29.999Z</time></trkpt><trkpt lat="42.088589588105464" lon="12.780524855657802"><ele>299.0</ele><time>2026-04-12T10:34:32.999Z</time></trkpt><trkpt lat="42.08865475246888" lon="12.780537483382009"><ele>299.0</ele><time>2026-04-12T10:35:23Z</time></trkpt><trkpt lat="42.08871817211505" lon="12.780575062692826"><ele>299.0</ele><time>2026-04-12T10:35:27Z</time></trkpt><trkpt lat="42.088725169709534" lon="12.780686912958966"><ele>299.0</ele><time>2026-04-12T10:35:32Z</time></trkpt><trkpt lat="42.088679901101315" lon="12.780760190540356"><ele>299.0</ele><time>2026-04-12T10:35:33Z</time></trkpt><trkpt lat="42.08862732651638" lon="12.78084835889982"><ele>299.0</ele><time>2026-04-12T10:35:34Z</time></trkpt><trkpt lat="42.088570245275" lon="12.780953847300056"><ele>299.0</ele><time>2026-04-12T10:35:35Z</time></trkpt><trkpt lat="42.08848065165238" lon="12.78104374299019"><ele>299.0</ele><time>2026-04-12T10:35:36Z</time></trkpt><trkpt lat="42.08840602649382" lon="12.781161534901761"><ele>299.0</ele><time>2026-04-12T10:35:37Z</time></trkpt><trkpt lat="42.08832803120464" lon="12.781295651784149"><ele>299.75</ele><time>2026-04-12T10:35:38Z</time></trkpt><trkpt lat="42.088228518948384" lon="12.781415689655942"><ele>300.5</ele><time>2026-04-12T10:35:39Z</time></trkpt><trkpt lat="42.08812087272029" lon="12.781538902914356"><ele>301.25</ele><time>2026-04-12T10:35:40Z</time></trkpt><trkpt lat="42.08801646201809" lon="12.78164683693589"><ele>302.0</ele><time>2026-04-12T10:35:41Z</time></trkpt><trkpt lat="42.08792386753473" lon="12.781733513279407"><ele>302.0</ele><time>2026-04-12T10:35:42Z</time></trkpt><trkpt lat="42.08787846725739" lon="12.781822396094752"><ele>302.0</ele><time>2026-04-12T10:35:43Z</time></trkpt><trkpt lat="42.08782715556319" lon="12.781872731418263"><ele>302.0</ele><time>2026-04-12T10:35:44Z</time></trkpt><trkpt lat="42.08789216678597" lon="12.782112213403835"><ele>302.0</ele><time>2026-04-12T10:35:46Z</time></trkpt><trkpt lat="42.087929360613366" lon="12.782250573493357"><ele>302.0</ele><time>2026-04-12T10:35:47Z</time></trkpt><trkpt lat="42.08797503518628" lon="12.782398575647454"><ele>302.25</ele><time>2026-04-12T10:35:48Z</time></trkpt><trkpt lat="42.088014407750286" lon="12.782552999515957"><ele>302.5</ele><time>2026-04-12T10:35:49Z</time></trkpt><trkpt lat="42.088076934430575" lon="12.782709907166929"><ele>302.75</ele><time>2026-04-12T10:35:50Z</time></trkpt><trkpt lat="42.08815106954477" lon="12.782860685228606"><ele>303.0</ele><time>2026-04-12T10:35:51Z</time></trkpt><trkpt lat="42.08822740838099" lon="12.782992631344143"><ele>300.25</ele><time>2026-04-12T10:35:52Z</time></trkpt><trkpt lat="42.08830116395138" lon="12.78310850230911"><ele>297.5</ele><time>2026-04-12T10:35:53Z</time></trkpt><trkpt lat="42.08836446213975" lon="12.78323678715197"><ele>294.75</ele><time>2026-04-12T10:35:54Z</time></trkpt><trkpt lat="42.088414111425806" lon="12.783407392588416"><ele>292.0</ele><time>2026-04-12T10:35:55Z</time></trkpt><trkpt lat="42.08847375555386" lon="12.78357381813009"><ele>291.8</ele><time>2026-04-12T10:35:56Z</time></trkpt><trkpt lat="42.08852566743837" lon="12.78373802825643"><ele>291.6</ele><time>2026-04-12T10:35:57Z</time></trkpt><trkpt lat="42.08854960886361" lon="12.783873694584065"><ele>291.40000000000003</ele><time>2026-04-12T10:35:58Z</time></trkpt><trkpt lat="42.08856278175388" lon="12.783995581503472"><ele>291.2</ele><time>2026-04-12T10:35:59Z</time></trkpt><trkpt lat="42.08856564672633" lon="12.78412666329359"><ele>291.0</ele><time>2026-04-12T10:36:00Z</time></trkpt><trkpt lat="42.08855913195939" lon="12.784233542118486"><ele>293.0</ele><time>2026-04-12T10:36:01Z</time></trkpt><trkpt lat="42.088546613161505" lon="12.784346920037583"><ele>295.0</ele><time>2026-04-12T10:36:02Z</time></trkpt><trkpt lat="42.08852325975822" lon="12.784459686706231"><ele>297.0</ele><time>2026-04-12T10:36:03Z</time></trkpt><trkpt lat="42.0884941097196" lon="12.784571311747413"><ele>299.0</ele><time>2026-04-12T10:36:04Z</time></trkpt><trkpt lat="42.08845696470635" lon="12.784697729858816"><ele>301.0</ele><time>2026-04-12T10:36:05Z</time></trkpt><trkpt lat="42.088418757488775" lon="12.784813918202492"><ele>301.0</ele><time>2026-04-12T10:36:06Z</time></trkpt><trkpt lat="42.08836611281911" lon="12.78491388543179"><ele>301.0</ele><time>2026-04-12T10:36:07Z</time></trkpt><trkpt lat="42.08832439783342" lon="12.785027540092594"><ele>301.0</ele><time>2026-04-12T10:36:08Z</time></trkpt><trkpt lat="42.08830010884438" lon="12.78514982619705"><ele>301.0</ele><time>2026-04-12T10:36:08.999Z</time></trkpt><trkpt lat="42.0882620976667" lon="12.785270120039005"><ele>301.0</ele><time>2026-04-12T10:36:09.999Z</time></trkpt><trkpt lat="42.08822156655862" lon="12.785399658802817"><ele>302.8</ele><time>2026-04-12T10:36:10.999Z</time></trkpt><trkpt lat="42.088174643719825" lon="12.785518135618817"><ele>304.6</ele><time>2026-04-12T10:36:11.999Z</time></trkpt><trkpt lat="42.08811587848775" lon="12.785630494236834"><ele>306.4</ele><time>2026-04-12T10:36:12.999Z</time></trkpt><trkpt lat="42.08807025051693" lon="12.785738782018324"><ele>308.2</ele><time>2026-04-12T10:36:13.999Z</time></trkpt><trkpt lat="42.088022597861816" lon="12.785849325735127"><ele>310.0</ele><time>2026-04-12T10:36:14.999Z</time></trkpt><trkpt lat="42.08797177058884" lon="12.785962743507355"><ele>312.0</ele><time>2026-04-12T10:36:15.999Z</time></trkpt><trkpt lat="42.08793106027312" lon="12.786089008993248"><ele>314.0</ele><time>2026-04-12T10:36:16.999Z</time></trkpt><trkpt lat="42.08786863515171" lon="12.786206075951121"><ele>316.0</ele><time>2026-04-12T10:36:17.999Z</time></trkpt><trkpt lat="42.08781512445138" lon="12.786304145796056"><ele>318.0</ele><time>2026-04-12T10:36:18.999Z</time></trkpt><trkpt lat="42.087749973585616" lon="12.786411397414803"><ele>320.0</ele><time>2026-04-12T10:36:19.999Z</time></trkpt><trkpt lat="42.087699469627154" lon="12.786506209339247"><ele>320.0</ele><time>2026-04-12T10:36:20.999Z</time></trkpt><trkpt lat="42.08764769317275" lon="12.786599382634064"><ele>320.0</ele><time>2026-04-12T10:36:21.999Z</time></trkpt><trkpt lat="42.087584986479705" lon="12.786696393214555"><ele>320.0</ele><time>2026-04-12T10:36:22.999Z</time></trkpt><trkpt lat="42.08752748394803" lon="12.786783727017205"><ele>320.0</ele><time>2026-04-12T10:36:23.999Z</time></trkpt><trkpt lat="42.08748342423751" lon="12.786954103542069"><ele>320.0</ele><time>2026-04-12T10:36:25.999Z</time></trkpt><trkpt lat="42.08748017618647" lon="12.787066595564944"><ele>322.2</ele><time>2026-04-12T10:36:26.999Z</time></trkpt><trkpt lat="42.087483897452806" lon="12.78717073398669"><ele>324.4</ele><time>2026-04-12T10:36:27.999Z</time></trkpt><trkpt lat="42.08749492416953" lon="12.787257490495067"><ele>326.6</ele><time>2026-04-12T10:36:28.999Z</time></trkpt><trkpt lat="42.08746902701184" lon="12.787372287883649"><ele>328.8</ele><time>2026-04-12T10:36:30.999Z</time></trkpt><trkpt lat="42.087622342495116" lon="12.787355944538083"><ele>331.0</ele><time>2026-04-12T10:36:33.999Z</time></trkpt><trkpt lat="42.087678814494616" lon="12.78727566431825"><ele>331.0</ele><time>2026-04-12T10:36:34.999Z</time></trkpt><trkpt lat="42.08773961900116" lon="12.787175741117473"><ele>331.0</ele><time>2026-04-12T10:36:35.999Z</time></trkpt><trkpt lat="42.08779594944008" lon="12.787094271090021"><ele>331.0</ele><time>2026-04-12T10:36:36.999Z</time></trkpt><trkpt lat="42.08785206841343" lon="12.787022640801894"><ele>331.0</ele><time>2026-04-12T10:36:37.999Z</time></trkpt><trkpt lat="42.08796676951046" lon="12.78692430659788"><ele>331.0</ele><time>2026-04-12T10:36:39.999Z</time></trkpt><trkpt lat="42.0880823751362" lon="12.7868613611278"><ele>331.0</ele><time>2026-04-12T10:36:40.999Z</time></trkpt><trkpt lat="42.08818901114137" lon="12.786809500632947"><ele>331.0</ele><time>2026-04-12T10:36:41.999Z</time></trkpt><trkpt lat="42.08831162787038" lon="12.786753597250529"><ele>331.0</ele><time>2026-04-12T10:36:42.999Z</time></trkpt><trkpt lat="42.088422718251145" lon="12.786685113050758"><ele>331.0</ele><time>2026-04-12T10:36:43.999Z</time></trkpt><trkpt lat="42.08855080438556" lon="12.786626674855382"><ele>331.0</ele><time>2026-04-12T10:36:44.999Z</time></trkpt><trkpt lat="42.08868305200788" lon="12.786573190443042"><ele>331.0</ele><time>2026-04-12T10:36:45.999Z</time></trkpt><trkpt lat="42.08880146373937" lon="12.786496225474618"><ele>331.0</ele><time>2026-04-12T10:36:46.999Z</time></trkpt><trkpt lat="42.088918513445876" lon="12.786418975969163"><ele>331.0</ele><time>2026-04-12T10:36:47.999Z</time></trkpt><trkpt lat="42.08904359282216" lon="12.786322971172773"><ele>329.75</ele><time>2026-04-12T10:36:48.999Z</time></trkpt><trkpt lat="42.089157695481525" lon="12.786206193188248"><ele>328.5</ele><time>2026-04-12T10:36:49.999Z</time></trkpt><trkpt lat="42.08924348676835" lon="12.786050659726223"><ele>327.25</ele><time>2026-04-12T10:36:50.999Z</time></trkpt><trkpt lat="42.089333240022164" lon="12.785917924097019"><ele>326.0</ele><time>2026-04-12T10:36:51.999Z</time></trkpt><trkpt lat="42.08945731583717" lon="12.785756342962827"><ele>326.0</ele><time>2026-04-12T10:36:52.999Z</time></trkpt><trkpt lat="42.08955295098172" lon="12.785636719763016"><ele>326.0</ele><time>2026-04-12T10:36:53.999Z</time></trkpt><trkpt lat="42.08965827805437" lon="12.785500549099941"><ele>326.0</ele><time>2026-04-12T10:36:54.999Z</time></trkpt><trkpt lat="42.08976591500821" lon="12.78535757581207"><ele>326.0</ele><time>2026-04-12T10:36:55.999Z</time></trkpt><trkpt lat="42.08985752427902" lon="12.785207314670945"><ele>325.75</ele><time>2026-04-12T10:36:56.999Z</time></trkpt><trkpt lat="42.08995679102897" lon="12.785070337951591"><ele>325.5</ele><time>2026-04-12T10:36:57.999Z</time></trkpt><trkpt lat="42.09004997039195" lon="12.78495069523794"><ele>325.25</ele><time>2026-04-12T10:36:58.999Z</time></trkpt><trkpt lat="42.09013098094729" lon="12.78484396667101"><ele>325.0</ele><time>2026-04-12T10:36:59.999Z</time></trkpt><trkpt lat="42.090212780941606" lon="12.784743167908484"><ele>325.0</ele><time>2026-04-12T10:37:00.999Z</time></trkpt><trkpt lat="42.090285243405575" lon="12.784641845941627"><ele>325.0</ele><time>2026-04-12T10:37:01.999Z</time></trkpt><trkpt lat="42.0903449170886" lon="12.784560963723743"><ele>325.0</ele><time>2026-04-12T10:37:02.999Z</time></trkpt><trkpt lat="42.090390253390666" lon="12.784489217611107"><ele>325.0</ele><time>2026-04-12T10:37:03.999Z</time></trkpt><trkpt lat="42.09045166625164" lon="12.784362174618286"><ele>325.0</ele><time>2026-04-12T10:37:06Z</time></trkpt><trkpt lat="42.09041839734643" lon="12.784273031876365"><ele>325.0</ele><time>2026-04-12T10:37:07Z</time></trkpt><trkpt lat="42.09035795512021" lon="12.78417639774581"><ele>321.0</ele><time>2026-04-12T10:37:08Z</time></trkpt><trkpt lat="42.090282732514666" lon="12.784018966583451"><ele>317.0</ele><time>2026-04-12T10:37:09Z</time></trkpt><trkpt lat="42.0902089156128" lon="12.78387013433969"><ele>313.0</ele><time>2026-04-12T10:37:10Z</time></trkpt><trkpt lat="42.09013621791158" lon="12.783711186175887"><ele>309.0</ele><time>2026-04-12T10:37:11Z</time></trkpt><trkpt lat="42.09007309831303" lon="12.783573285387332"><ele>307.5</ele><time>2026-04-12T10:37:12Z</time></trkpt><trkpt lat="42.090004229105304" lon="12.783439228019374"><ele>306.0</ele><time>2026-04-12T10:37:13Z</time></trkpt><trkpt lat="42.08994909244953" lon="12.78333114517976"><ele>304.5</ele><time>2026-04-12T10:37:14Z</time></trkpt><trkpt lat="42.08991052629564" lon="12.783239356768147"><ele>303.0</ele><time>2026-04-12T10:37:15Z</time></trkpt><trkpt lat="42.089890307820184" lon="12.78314311279627"><ele>301.5</ele><time>2026-04-12T10:37:16Z</time></trkpt><trkpt lat="42.08987364827583" lon="12.78305415036785"><ele>300.0</ele><time>2026-04-12T10:37:17Z</time></trkpt><trkpt lat="42.08987077445685" lon="12.782943567304217"><ele>300.0</ele><time>2026-04-12T10:37:18Z</time></trkpt><trkpt lat="42.08995443142674" lon="12.782861483702558"><ele>300.0</ele><time>2026-04-12T10:37:20Z</time></trkpt><trkpt lat="42.090006011816925" lon="12.78280121435292"><ele>300.0</ele><time>2026-04-12T10:37:21Z</time></trkpt><trkpt lat="42.09008906272297" lon="12.782723349573772"><ele>300.0</ele><time>2026-04-12T10:37:22Z</time></trkpt><trkpt lat="42.090203825387476" lon="12.782649544270825"><ele>300.0</ele><time>2026-04-12T10:37:23Z</time></trkpt><trkpt lat="42.090337332554206" lon="12.782551918345506"><ele>296.0</ele><time>2026-04-12T10:37:24Z</time></trkpt><trkpt lat="42.090460420211656" lon="12.782452865877401"><ele>292.0</ele><time>2026-04-12T10:37:25Z</time></trkpt><trkpt lat="42.09058463798688" lon="12.782336412139792"><ele>288.0</ele><time>2026-04-12T10:37:26Z</time></trkpt><trkpt lat="42.090709773680054" lon="12.782205375802558"><ele>286.6666666666667</ele><time>2026-04-12T10:37:27Z</time></trkpt><trkpt lat="42.0908339005496" lon="12.782061310249018"><ele>285.33333333333337</ele><time>2026-04-12T10:37:28Z</time></trkpt><trkpt lat="42.09093881834521" lon="12.781904391647053"><ele>284.0</ele><time>2026-04-12T10:37:29Z</time></trkpt><trkpt lat="42.09106128862036" lon="12.781763889239755"><ele>284.0</ele><time>2026-04-12T10:37:30Z</time></trkpt><trkpt lat="42.09116244857066" lon="12.781636338453668"><ele>284.0</ele><time>2026-04-12T10:37:31Z</time></trkpt><trkpt lat="42.09127152237317" lon="12.781517834609103"><ele>284.0</ele><time>2026-04-12T10:37:32Z</time></trkpt><trkpt lat="42.09139200878109" lon="12.781433538750461"><ele>284.0</ele><time>2026-04-12T10:37:33Z</time></trkpt><trkpt lat="42.091468422114254" lon="12.781367761664322"><ele>284.0</ele><time>2026-04-12T10:37:34Z</time></trkpt><trkpt lat="42.091571285946785" lon="12.7812451589594"><ele>284.0</ele><time>2026-04-12T10:37:35Z</time></trkpt><trkpt lat="42.091664767420866" lon="12.781149497709189"><ele>284.0</ele><time>2026-04-12T10:37:36Z</time></trkpt><trkpt lat="42.09174775434596" lon="12.78100995892123"><ele>284.0</ele><time>2026-04-12T10:37:37Z</time></trkpt><trkpt lat="42.09182146259247" lon="12.780894737868643"><ele>283.0</ele><time>2026-04-12T10:37:38Z</time></trkpt><trkpt lat="42.09191550195943" lon="12.780735393699706"><ele>282.0</ele><time>2026-04-12T10:37:39Z</time></trkpt><trkpt lat="42.092013302942746" lon="12.780549436330304"><ele>281.0</ele><time>2026-04-12T10:37:40Z</time></trkpt><trkpt lat="42.09211453191663" lon="12.780347454890025"><ele>280.0</ele><time>2026-04-12T10:37:41Z</time></trkpt><trkpt lat="42.09221467087623" lon="12.780167002901266"><ele>279.0</ele><time>2026-04-12T10:37:42Z</time></trkpt><trkpt lat="42.09231837298078" lon="12.779982593538351"><ele>278.0</ele><time>2026-04-12T10:37:43Z</time></trkpt><trkpt lat="42.092422651422524" lon="12.779793078768895"><ele>277.33333333333337</ele><time>2026-04-12T10:37:44Z</time></trkpt><trkpt lat="42.092532288049995" lon="12.779604075986365"><ele>276.6666666666667</ele><time>2026-04-12T10:37:45Z</time></trkpt><trkpt lat="42.09263629645784" lon="12.779452810687017"><ele>276.0</ele><time>2026-04-12T10:37:46Z</time></trkpt><trkpt lat="42.092726742991665" lon="12.779339221110378"><ele>275.75</ele><time>2026-04-12T10:37:47Z</time></trkpt><trkpt lat="42.09281596894548" lon="12.77925446487349"><ele>275.5</ele><time>2026-04-12T10:37:48Z</time></trkpt><trkpt lat="42.0929327342215" lon="12.779147464742653"><ele>275.25</ele><time>2026-04-12T10:37:49Z</time></trkpt><trkpt lat="42.093059109449825" lon="12.779022115763036"><ele>275.0</ele><time>2026-04-12T10:37:50Z</time></trkpt><trkpt lat="42.09318512933861" lon="12.778897458580861"><ele>273.33333333333337</ele><time>2026-04-12T10:37:51Z</time></trkpt><trkpt lat="42.093312048401984" lon="12.778748990516295"><ele>271.6666666666667</ele><time>2026-04-12T10:37:52Z</time></trkpt><trkpt lat="42.0934412705885" lon="12.77865461181651"><ele>270.0</ele><time>2026-04-12T10:37:53Z</time></trkpt><trkpt lat="42.09358750897113" lon="12.77851973413847"><ele>270.0</ele><time>2026-04-12T10:37:54Z</time></trkpt><trkpt lat="42.09372093990635" lon="12.77837595759569"><ele>270.0</ele><time>2026-04-12T10:37:55Z</time></trkpt><trkpt lat="42.093859797381974" lon="12.778208267675488"><ele>270.0</ele><time>2026-04-12T10:37:56Z</time></trkpt><trkpt lat="42.09398958391821" lon="12.778060858329804"><ele>269.0</ele><time>2026-04-12T10:37:57Z</time></trkpt><trkpt lat="42.09411193532697" lon="12.777919874114824"><ele>268.0</ele><time>2026-04-12T10:37:58Z</time></trkpt><trkpt lat="42.09419422317448" lon="12.777791218136251"><ele>267.0</ele><time>2026-04-12T10:37:59Z</time></trkpt><trkpt lat="42.094271078030815" lon="12.77765704911929"><ele>266.0</ele><time>2026-04-12T10:38:00Z</time></trkpt><trkpt lat="42.09431318295587" lon="12.777559181080255"><ele>265.8</ele><time>2026-04-12T10:38:01Z</time></trkpt><trkpt lat="42.09437401248756" lon="12.77750843285605"><ele>265.6</ele><time>2026-04-12T10:38:02Z</time></trkpt><trkpt lat="42.094484390007" lon="12.777479298279701"><ele>265.4</ele><time>2026-04-12T10:38:03Z</time></trkpt><trkpt lat="42.09458402800349" lon="12.77744968858421"><ele>265.2</ele><time>2026-04-12T10:38:04Z</time></trkpt><trkpt lat="42.09467782115602" lon="12.777398633423894"><ele>265.0</ele><time>2026-04-12T10:38:05Z</time></trkpt><trkpt lat="42.09475712180376" lon="12.777345565351629"><ele>265.0</ele><time>2026-04-12T10:38:06Z</time></trkpt><trkpt lat="42.0948260315814" lon="12.777302419232173"><ele>265.0</ele><time>2026-04-12T10:38:07Z</time></trkpt><trkpt lat="42.09486904984352" lon="12.777235673194891"><ele>265.0</ele><time>2026-04-12T10:38:10Z</time></trkpt><trkpt lat="42.09481852086642" lon="12.777113893337257"><ele>265.0</ele><time>2026-04-12T10:38:11.999Z</time></trkpt><trkpt lat="42.09462395187864" lon="12.776716529432196"><ele>264.3333333333333</ele><time>2026-04-12T10:38:15.999Z</time></trkpt><trkpt lat="42.09459796688265" lon="12.77652109922359"><ele>263.6666666666667</ele><time>2026-04-12T10:38:16.999Z</time></trkpt><trkpt lat="42.094608882060804" lon="12.776299678726145"><ele>263.0</ele><time>2026-04-12T10:38:17.999Z</time></trkpt><trkpt lat="42.09463355034261" lon="12.77607867271941"><ele>261.6666666666667</ele><time>2026-04-12T10:38:18.999Z</time></trkpt><trkpt lat="42.09467598354831" lon="12.775852271821673"><ele>260.3333333333333</ele><time>2026-04-12T10:38:19.999Z</time></trkpt><trkpt lat="42.09472600521301" lon="12.77562097403749"><ele>259.0</ele><time>2026-04-12T10:38:20.999Z</time></trkpt><trkpt lat="42.09477574234568" lon="12.77539427646375"><ele>256.66666666666663</ele><time>2026-04-12T10:38:21.999Z</time></trkpt><trkpt lat="42.0948062209784" lon="12.775156720209754"><ele>254.33333333333331</ele><time>2026-04-12T10:38:22.999Z</time></trkpt><trkpt lat="42.09480730440393" lon="12.774908004152309"><ele>252.0</ele><time>2026-04-12T10:38:23.999Z</time></trkpt><trkpt lat="42.09479692720112" lon="12.774647356356569"><ele>252.0</ele><time>2026-04-12T10:38:24.999Z</time></trkpt><trkpt lat="42.0947783276065" lon="12.774411412221419"><ele>252.0</ele><time>2026-04-12T10:38:25.999Z</time></trkpt><trkpt lat="42.09479767961375" lon="12.774161507959056"><ele>252.0</ele><time>2026-04-12T10:38:26.999Z</time></trkpt><trkpt lat="42.09483612406635" lon="12.773939742265956"><ele>251.0</ele><time>2026-04-12T10:38:27.999Z</time></trkpt><trkpt lat="42.094887937679516" lon="12.7737583297826"><ele>250.0</ele><time>2026-04-12T10:38:28.999Z</time></trkpt><trkpt lat="42.09488041723666" lon="12.773554778878093"><ele>249.0</ele><time>2026-04-12T10:38:29.999Z</time></trkpt><trkpt lat="42.094822045244584" lon="12.773401329909728"><ele>248.0</ele><time>2026-04-12T10:38:30.999Z</time></trkpt><trkpt lat="42.09471175086364" lon="12.773298690095594"><ele>248.0</ele><time>2026-04-12T10:38:31.999Z</time></trkpt><trkpt lat="42.09456293767463" lon="12.773246700046943"><ele>248.0</ele><time>2026-04-12T10:38:32.999Z</time></trkpt><trkpt lat="42.09440648094948" lon="12.773211038273123"><ele>248.0</ele><time>2026-04-12T10:38:33.999Z</time></trkpt><trkpt lat="42.094260631853324" lon="12.773163075736733"><ele>250.66666666666669</ele><time>2026-04-12T10:38:34.999Z</time></trkpt><trkpt lat="42.094061101139154" lon="12.773064218333309"><ele>253.33333333333331</ele><time>2026-04-12T10:38:35.999Z</time></trkpt><trkpt lat="42.09392003234061" lon="12.772978831185178"><ele>256.0</ele><time>2026-04-12T10:38:36.999Z</time></trkpt><trkpt lat="42.09377767353994" lon="12.773002912362388"><ele>256.0</ele><time>2026-04-12T10:38:37.999Z</time></trkpt><trkpt lat="42.093641779632755" lon="12.773088121443504"><ele>256.0</ele><time>2026-04-12T10:38:38.999Z</time></trkpt><trkpt lat="42.09352941622586" lon="12.773207981082045"><ele>256.0</ele><time>2026-04-12T10:38:39.999Z</time></trkpt><trkpt lat="42.09344625445256" lon="12.773378431193036"><ele>256.0</ele><time>2026-04-12T10:38:40.999Z</time></trkpt><trkpt lat="42.09334886740701" lon="12.773543018512044"><ele>256.0</ele><time>2026-04-12T10:38:41.999Z</time></trkpt><trkpt lat="42.09328133175696" lon="12.773702541657675"><ele>256.0</ele><time>2026-04-12T10:38:42.999Z</time></trkpt><trkpt lat="42.09320115377713" lon="12.77384638329493"><ele>256.0</ele><time>2026-04-12T10:38:43.999Z</time></trkpt><trkpt lat="42.09311478787446" lon="12.774001363805354"><ele>256.0</ele><time>2026-04-12T10:38:44.999Z</time></trkpt><trkpt lat="42.09303482521925" lon="12.774144000276005"><ele>259.0</ele><time>2026-04-12T10:38:45.999Z</time></trkpt><trkpt lat="42.09293462797525" lon="12.77430362396616"><ele>262.0</ele><time>2026-04-12T10:38:46.999Z</time></trkpt><trkpt lat="42.09282318451722" lon="12.774449340317018"><ele>265.0</ele><time>2026-04-12T10:38:47.999Z</time></trkpt><trkpt lat="42.09270842716518" lon="12.774568493687337"><ele>265.0</ele><time>2026-04-12T10:38:48.999Z</time></trkpt><trkpt lat="42.09260553624988" lon="12.774702530194109"><ele>265.0</ele><time>2026-04-12T10:38:49.999Z</time></trkpt><trkpt lat="42.09251835631447" lon="12.774818376546243"><ele>265.0</ele><time>2026-04-12T10:38:50.999Z</time></trkpt><trkpt lat="42.09245294938048" lon="12.774915709377472"><ele>265.0</ele><time>2026-04-12T10:38:51.999Z</time></trkpt><trkpt lat="42.09236226505952" lon="12.774978171724413"><ele>267.6</ele><time>2026-04-12T10:38:53.999Z</time></trkpt><trkpt lat="42.09232769458815" lon="12.774782713041342"><ele>270.2</ele><time>2026-04-12T10:38:54.999Z</time></trkpt><trkpt lat="42.092252505319095" lon="12.774713448508596"><ele>272.8</ele><time>2026-04-12T10:38:55.999Z</time></trkpt><trkpt lat="42.09218273203083" lon="12.77465183378646"><ele>275.4</ele><time>2026-04-12T10:38:56.999Z</time></trkpt><trkpt lat="42.09209411172384" lon="12.774620971137573"><ele>278.0</ele><time>2026-04-12T10:38:57.999Z</time></trkpt><trkpt lat="42.092026884989025" lon="12.774566200390103"><ele>278.0</ele><time>2026-04-12T10:38:58.999Z</time></trkpt><trkpt lat="42.091923756888214" lon="12.774499776780067"><ele>278.0</ele><time>2026-04-12T10:39:00.999Z</time></trkpt><trkpt lat="42.09185354904214" lon="12.774559579023068"><ele>278.0</ele><time>2026-04-12T10:39:34Z</time></trkpt><trkpt lat="42.09189411800982" lon="12.774627155893764"><ele>278.0</ele><time>2026-04-12T10:39:47Z</time></trkpt><trkpt lat="42.091947810724385" lon="12.77468812834093"><ele>278.0</ele><time>2026-04-12T10:39:50.019Z</time></trkpt><trkpt lat="42.09197944855634" lon="12.774819496307368"><ele>278.0</ele><time>2026-04-12T10:40:03.108Z</time></trkpt><trkpt lat="42.091899282448956" lon="12.77464340365175"><ele>278.0</ele><time>2026-04-12T10:40:07.097Z</time></trkpt><trkpt lat="42.091966992244146" lon="12.774794411439126"><ele>278.0</ele><time>2026-04-12T10:40:58.012Z</time></trkpt><trkpt lat="42.09197986852226" lon="12.774688343759866"><ele>278.0</ele><time>2026-04-12T10:41:16.999Z</time></trkpt><trkpt lat="42.09194618100384" lon="12.774603155107352"><ele>278.0</ele><time>2026-04-12T10:41:18.999Z</time></trkpt><trkpt lat="42.09193213300313" lon="12.77450258766031"><ele>278.0</ele><time>2026-04-12T10:41:25Z</time></trkpt><trkpt lat="42.09190306724076" lon="12.774425611836127"><ele>278.0</ele><time>2026-04-12T10:41:30Z</time></trkpt><trkpt lat="42.09192004653416" lon="12.774521058277877"><ele>278.0</ele><time>2026-04-12T10:41:39Z</time></trkpt><trkpt lat="42.09186932126494" lon="12.7746005477522"><ele>278.0</ele><time>2026-04-12T10:42:14Z</time></trkpt><trkpt lat="42.091797910050175" lon="12.774636694628255"><ele>278.0</ele><time>2026-04-12T10:42:21.999Z</time></trkpt><trkpt lat="42.09173590721723" lon="12.774739963386244"><ele>278.0</ele><time>2026-04-12T10:42:23.999Z</time></trkpt><trkpt lat="42.09166004425525" lon="12.774866210645262"><ele>278.0</ele><time>2026-04-12T10:42:24.999Z</time></trkpt><trkpt lat="42.091644322275144" lon="12.775006869494451"><ele>278.0</ele><time>2026-04-12T10:42:25.999Z</time></trkpt><trkpt lat="42.09160410377698" lon="12.775088118514297"><ele>278.0</ele><time>2026-04-12T10:42:26.999Z</time></trkpt><trkpt lat="42.09163313624889" lon="12.775172433165238"><ele>278.0</ele><time>2026-04-12T10:42:27.999Z</time></trkpt><trkpt lat="42.09180232286623" lon="12.775294048218294"><ele>278.0</ele><time>2026-04-12T10:42:35.999Z</time></trkpt><trkpt lat="42.091863002460265" lon="12.775167653737112"><ele>278.0</ele><time>2026-04-12T10:42:36.999Z</time></trkpt><trkpt lat="42.091901434007504" lon="12.775054409764953"><ele>278.0</ele><time>2026-04-12T10:42:37.999Z</time></trkpt><trkpt lat="42.09194693771137" lon="12.774962170423768"><ele>278.0</ele><time>2026-04-12T10:42:38.999Z</time></trkpt><trkpt lat="42.091985375196444" lon="12.774887708013148"><ele>278.0</ele><time>2026-04-12T10:42:39.999Z</time></trkpt><trkpt lat="42.09201237082023" lon="12.774769034322514"><ele>278.0</ele><time>2026-04-12T10:42:41.999Z</time></trkpt><trkpt lat="42.09192484647931" lon="12.774732952354693"><ele>278.0</ele><time>2026-04-12T10:42:42.999Z</time></trkpt><trkpt lat="42.09186792390636" lon="12.774663385717147"><ele>278.0</ele><time>2026-04-12T10:42:44.999Z</time></trkpt><trkpt lat="42.09178795547399" lon="12.774786585812645"><ele>278.0</ele><time>2026-04-12T10:42:45.999Z</time></trkpt><trkpt lat="42.091744526803716" lon="12.774875134407692"><ele>278.0</ele><time>2026-04-12T10:42:46.999Z</time></trkpt><trkpt lat="42.0916955225634" lon="12.774966845202957"><ele>278.0</ele><time>2026-04-12T10:42:47.999Z</time></trkpt><trkpt lat="42.091660283532434" lon="12.775102624560722"><ele>278.0</ele><time>2026-04-12T10:42:48.999Z</time></trkpt><trkpt lat="42.09161246301954" lon="12.775192747248578"><ele>278.0</ele><time>2026-04-12T10:42:50.999Z</time></trkpt><trkpt lat="42.091432442892106" lon="12.77505673617538"><ele>278.33333333333337</ele><time>2026-04-12T10:42:55.999Z</time></trkpt><trkpt lat="42.09135518490833" lon="12.775015029991481"><ele>278.6666666666667</ele><time>2026-04-12T10:42:57.999Z</time></trkpt><trkpt lat="42.0912711044798" lon="12.77500324279423"><ele>279.0</ele><time>2026-04-12T10:43:00.999Z</time></trkpt><trkpt lat="42.091194402240895" lon="12.774924000086717"><ele>279.3333333333333</ele><time>2026-04-12T10:43:03.999Z</time></trkpt><trkpt lat="42.091120197462544" lon="12.774895744828171"><ele>279.66666666666663</ele><time>2026-04-12T10:43:05.999Z</time></trkpt><trkpt lat="42.09105554217253" lon="12.774852741649555"><ele>280.0</ele><time>2026-04-12T10:43:07.999Z</time></trkpt><trkpt lat="42.09098588823841" lon="12.774807923858905"><ele>280.0</ele><time>2026-04-12T10:43:09.999Z</time></trkpt><trkpt lat="42.09091611116979" lon="12.77478249529386"><ele>280.0</ele><time>2026-04-12T10:43:12.999Z</time></trkpt><trkpt lat="42.09086332508953" lon="12.774708269904892"><ele>280.0</ele><time>2026-04-12T10:43:40Z</time></trkpt><trkpt lat="42.090828512630864" lon="12.774595736608168"><ele>280.0</ele><time>2026-04-12T10:43:44Z</time></trkpt><trkpt lat="42.090850891678606" lon="12.774498526463459"><ele>280.0</ele><time>2026-04-12T10:43:46Z</time></trkpt><trkpt lat="42.09088851291026" lon="12.774402703982805"><ele>280.0</ele><time>2026-04-12T10:43:48Z</time></trkpt><trkpt lat="42.09092582218996" lon="12.774302169054305"><ele>279.4</ele><time>2026-04-12T10:43:49Z</time></trkpt><trkpt lat="42.09097076772491" lon="12.774203123400676"><ele>278.8</ele><time>2026-04-12T10:43:50Z</time></trkpt><trkpt lat="42.09103349213609" lon="12.774087832108087"><ele>278.2</ele><time>2026-04-12T10:43:52Z</time></trkpt><trkpt lat="42.09108011986057" lon="12.773997418952172"><ele>277.6</ele><time>2026-04-12T10:43:54Z</time></trkpt><trkpt lat="42.09111948115805" lon="12.77387363547903"><ele>277.0</ele><time>2026-04-12T10:43:57Z</time></trkpt><trkpt lat="42.09117577405411" lon="12.773798848735732"><ele>277.0</ele><time>2026-04-12T10:43:59Z</time></trkpt><trkpt lat="42.091250314900144" lon="12.773754604317764"><ele>277.0</ele><time>2026-04-12T10:44:01Z</time></trkpt><trkpt lat="42.09130720742548" lon="12.773804691492218"><ele>277.0</ele><time>2026-04-12T10:44:02Z</time></trkpt><trkpt lat="42.09150489747877" lon="12.773783761209838"><ele>277.0</ele><time>2026-04-12T10:44:04Z</time></trkpt><trkpt lat="42.091476489856" lon="12.774051516122856"><ele>277.0</ele><time>2026-04-12T10:44:08Z</time></trkpt><trkpt lat="42.09144591582395" lon="12.77413274268439"><ele>277.0</ele><time>2026-04-12T10:44:09Z</time></trkpt><trkpt lat="42.09147667997491" lon="12.774245290581478"><ele>277.0</ele><time>2026-04-12T10:44:11Z</time></trkpt><trkpt lat="42.09156043974987" lon="12.774328456839141"><ele>277.0</ele><time>2026-04-12T10:44:13Z</time></trkpt><trkpt lat="42.09167782643046" lon="12.774342861929254"><ele>277.0</ele><time>2026-04-12T10:44:14Z</time></trkpt><trkpt lat="42.09183398433875" lon="12.774411698935593"><ele>277.25</ele><time>2026-04-12T10:44:15Z</time></trkpt><trkpt lat="42.09189685488138" lon="12.774491682825268"><ele>277.5</ele><time>2026-04-12T10:44:16Z</time></trkpt><trkpt lat="42.09193692046165" lon="12.774652621283051"><ele>277.75</ele><time>2026-04-12T10:45:11.425Z</time></trkpt><trkpt lat="42.09208382433996" lon="12.774834721623366"><ele>278.0</ele><time>2026-04-12T10:45:15.23Z</time></trkpt><trkpt lat="42.09193444663519" lon="12.774625310782003"><ele>278.0</ele><time>2026-04-12T10:45:22.081Z</time></trkpt></trkseg></trk></gpx>